<?xml version='1.0' encoding='UTF-8'?><gpx version="1.1" creator="JPX - https://github.com/jenetics/jpx" xmlns="http://www.topografix.com/GPX/1/1"><trk><trkseg><trkpt lat="44.61768476930506" lon="2.003584333760185"><ele>303.0</ele><time>2026-04-30T16:28:32Z</time></trkpt><trkpt lat="44.61767513596734" lon="2.0036951184700103"><ele>303.0</ele><time>2026-04-30T16:30:06Z</time></trkpt><trkpt lat="44.61772849460228" lon="2.003762766015715"><ele>303.0</ele><time>2026-04-30T16:30:33Z</time></trkpt><trkpt lat="44.61767153185962" lon="2.0038039726544734"><ele>303.0</ele><time>2026-04-30T16:31:23Z</time></trkpt><trkpt lat="44.61769386332971" lon="2.0039185535457062"><ele>303.0</ele><time>2026-04-30T16:31:25Z</time></trkpt><trkpt lat="44.617765976811455" lon="2.0040218402671"><ele>303.0</ele><time>2026-04-30T16:31:27Z</time></trkpt><trkpt lat="44.61785205225678" lon="2.00409382543558"><ele>303.2</ele><time>2026-04-30T16:31:29Z</time></trkpt><trkpt lat="44.617928887338394" lon="2.0041380730459326"><ele>303.4</ele><time>2026-04-30T16:31:32Z</time></trkpt><trkpt lat="44.61804960200893" lon="2.004123045833263"><ele>303.59999999999997</ele><time>2026-04-30T16:31:34Z</time></trkpt><trkpt lat="44.61815775455521" lon="2.0040994011099227"><ele>303.8</ele><time>2026-04-30T16:31:36Z</time></trkpt><trkpt lat="44.61827942818438" lon="2.00409393973691"><ele>304.0</ele><time>2026-04-30T16:31:38Z</time></trkpt><trkpt lat="44.61833809873606" lon="2.0043645525211873"><ele>304.1428571428571</ele><time>2026-04-30T16:31:39Z</time></trkpt><trkpt lat="44.618425142910084" lon="2.0043855660450847"><ele>304.28571428571433</ele><time>2026-04-30T16:31:40Z</time></trkpt><trkpt lat="44.6185018461899" lon="2.0044040831921173"><ele>304.42857142857144</ele><time>2026-04-30T16:31:41Z</time></trkpt><trkpt lat="44.618570561121224" lon="2.004419860656348"><ele>304.57142857142856</ele><time>2026-04-30T16:31:42Z</time></trkpt><trkpt lat="44.618638881122806" lon="2.0044353390672054"><ele>304.71428571428567</ele><time>2026-04-30T16:31:43Z</time></trkpt><trkpt lat="44.61870459303931" lon="2.004450226582908"><ele>304.8571428571429</ele><time>2026-04-30T16:31:44Z</time></trkpt><trkpt lat="44.61876697686323" lon="2.0044643601030327"><ele>305.0</ele><time>2026-04-30T16:31:45Z</time></trkpt><trkpt lat="44.618880083159915" lon="2.004489985166704"><ele>304.4</ele><time>2026-04-30T16:31:47Z</time></trkpt><trkpt lat="44.61895049372149" lon="2.004505937200233"><ele>303.8</ele><time>2026-04-30T16:31:48Z</time></trkpt><trkpt lat="44.61902924242836" lon="2.004523778308375"><ele>303.2</ele><time>2026-04-30T16:31:49Z</time></trkpt><trkpt lat="44.61909617046354" lon="2.004538941347576"><ele>302.6</ele><time>2026-04-30T16:31:50Z</time></trkpt><trkpt lat="44.61921755336926" lon="2.004570607920108"><ele>302.0</ele><time>2026-04-30T16:31:52Z</time></trkpt><trkpt lat="44.61932009426157" lon="2.004623556232258"><ele>302.0</ele><time>2026-04-30T16:31:54Z</time></trkpt><trkpt lat="44.619402109210235" lon="2.0046876336291723"><ele>302.0</ele><time>2026-04-30T16:31:56Z</time></trkpt><trkpt lat="44.61954223198383" lon="2.0046450590120966"><ele>302.0</ele><time>2026-04-30T16:31:57Z</time></trkpt><trkpt lat="44.6196268391947" lon="2.004674994445267"><ele>302.0</ele><time>2026-04-30T16:31:59Z</time></trkpt><trkpt lat="44.619719882670445" lon="2.0047478697802554"><ele>302.0</ele><time>2026-04-30T16:32:01Z</time></trkpt><trkpt lat="44.61977273148459" lon="2.0048062118605223"><ele>301.0</ele><time>2026-04-30T16:32:03Z</time></trkpt><trkpt lat="44.62008888384232" lon="2.004961448333258"><ele>300.0</ele><time>2026-04-30T16:32:04Z</time></trkpt><trkpt lat="44.62010975326847" lon="2.0036154719949453"><ele>301.0</ele><time>2026-04-30T16:32:15Z</time></trkpt><trkpt lat="44.61997411547134" lon="2.0035691723178215"><ele>302.0</ele><time>2026-04-30T16:32:17.001Z</time></trkpt><trkpt lat="44.61989432432502" lon="2.0035480734379947"><ele>303.0</ele><time>2026-04-30T16:32:18.001Z</time></trkpt><trkpt lat="44.61982338786819" lon="2.0035313135671036"><ele>304.0</ele><time>2026-04-30T16:32:19.001Z</time></trkpt><trkpt lat="44.61970907811798" lon="2.003477400847054"><ele>305.0</ele><time>2026-04-30T16:32:21.001Z</time></trkpt><trkpt lat="44.61964794000796" lon="2.003437355998112"><ele>305.0</ele><time>2026-04-30T16:32:22.001Z</time></trkpt><trkpt lat="44.619588119228595" lon="2.0034089821716976"><ele>305.0</ele><time>2026-04-30T16:32:23.001Z</time></trkpt><trkpt lat="44.61952339633731" lon="2.003383737860596"><ele>305.0</ele><time>2026-04-30T16:32:24.001Z</time></trkpt><trkpt lat="44.61939772629113" lon="2.0033348856589974"><ele>305.0</ele><time>2026-04-30T16:32:26.001Z</time></trkpt><trkpt lat="44.61931740568222" lon="2.003352389944011"><ele>305.0</ele><time>2026-04-30T16:32:27.001Z</time></trkpt><trkpt lat="44.61923588712254" lon="2.0033824489290875"><ele>305.0</ele><time>2026-04-30T16:32:28.001Z</time></trkpt><trkpt lat="44.61912740102732" lon="2.0034542997878813"><ele>304.4</ele><time>2026-04-30T16:32:30.001Z</time></trkpt><trkpt lat="44.61905601485174" lon="2.0034878821753206"><ele>303.8</ele><time>2026-04-30T16:32:32.001Z</time></trkpt><trkpt lat="44.61897566271437" lon="2.00355475515025"><ele>303.2</ele><time>2026-04-30T16:32:34Z</time></trkpt><trkpt lat="44.618853127590995" lon="2.003564613582454"><ele>302.6</ele><time>2026-04-30T16:32:36Z</time></trkpt><trkpt lat="44.61878535132102" lon="2.0036296397056663"><ele>302.0</ele><time>2026-04-30T16:32:40Z</time></trkpt><trkpt lat="44.61876682269434" lon="2.0037418552215525"><ele>302.0</ele><time>2026-04-30T16:32:43Z</time></trkpt><trkpt lat="44.618775576063506" lon="2.0038793579870053"><ele>302.0</ele><time>2026-04-30T16:32:45Z</time></trkpt><trkpt lat="44.618731984902375" lon="2.003977290984645"><ele>302.0</ele><time>2026-04-30T16:32:47Z</time></trkpt><trkpt lat="44.61865984274666" lon="2.0039792116255257"><ele>302.0</ele><time>2026-04-30T16:32:48Z</time></trkpt><trkpt lat="44.61858356289182" lon="2.0039594029207453"><ele>302.0</ele><time>2026-04-30T16:32:49Z</time></trkpt><trkpt lat="44.61850608804054" lon="2.0039433488245586"><ele>302.0</ele><time>2026-04-30T16:32:50Z</time></trkpt><trkpt lat="44.61843350031567" lon="2.003959118076804"><ele>302.33333333333337</ele><time>2026-04-30T16:32:51Z</time></trkpt><trkpt lat="44.61837962669972" lon="2.004009889591894"><ele>302.6666666666667</ele><time>2026-04-30T16:32:52Z</time></trkpt><trkpt lat="44.61831834092722" lon="2.0040412964742305"><ele>303.0</ele><time>2026-04-30T16:32:53Z</time></trkpt><trkpt lat="44.618229627915376" lon="2.0040834773556693"><ele>303.3333333333333</ele><time>2026-04-30T16:32:54Z</time></trkpt><trkpt lat="44.618133748953156" lon="2.004111508175265"><ele>303.66666666666663</ele><time>2026-04-30T16:32:55Z</time></trkpt><trkpt lat="44.618050646484875" lon="2.0041313804043033"><ele>304.0</ele><time>2026-04-30T16:32:56Z</time></trkpt><trkpt lat="44.6179855809924" lon="2.0041339977275907"><ele>304.16666666666663</ele><time>2026-04-30T16:32:57Z</time></trkpt><trkpt lat="44.61791230240517" lon="2.004166613941128"><ele>304.3333333333333</ele><time>2026-04-30T16:32:59Z</time></trkpt><trkpt lat="44.617860322625404" lon="2.0042295278611415"><ele>304.5</ele><time>2026-04-30T16:33:01Z</time></trkpt><trkpt lat="44.61779415801268" lon="2.004201597583224"><ele>304.6666666666667</ele><time>2026-04-30T16:33:02Z</time></trkpt><trkpt lat="44.61770464636944" lon="2.0042138862538916"><ele>304.83333333333337</ele><time>2026-04-30T16:33:03Z</time></trkpt><trkpt lat="44.617596342079835" lon="2.0041928125033954"><ele>305.0</ele><time>2026-04-30T16:33:04Z</time></trkpt><trkpt lat="44.61747462022597" lon="2.004179840720242"><ele>305.0</ele><time>2026-04-30T16:33:05Z</time></trkpt><trkpt lat="44.61734507683966" lon="2.0041704373640408"><ele>305.0</ele><time>2026-04-30T16:33:06Z</time></trkpt><trkpt lat="44.6172057813085" lon="2.004166398904221"><ele>305.0</ele><time>2026-04-30T16:33:07Z</time></trkpt><trkpt lat="44.61707313259721" lon="2.0041557966573795"><ele>305.0</ele><time>2026-04-30T16:33:08Z</time></trkpt><trkpt lat="44.616950980602034" lon="2.004142257798513"><ele>304.75</ele><time>2026-04-30T16:33:09Z</time></trkpt><trkpt lat="44.616835469081046" lon="2.004128821031437"><ele>304.5</ele><time>2026-04-30T16:33:10Z</time></trkpt><trkpt lat="44.616715384521996" lon="2.004093002662722"><ele>304.25</ele><time>2026-04-30T16:33:11Z</time></trkpt><trkpt lat="44.616588876842265" lon="2.0040223312440872"><ele>304.0</ele><time>2026-04-30T16:33:12Z</time></trkpt><trkpt lat="44.616468455467654" lon="2.0039108580841987"><ele>304.0</ele><time>2026-04-30T16:33:13Z</time></trkpt><trkpt lat="44.61637374631895" lon="2.003769377810727"><ele>304.0</ele><time>2026-04-30T16:33:14Z</time></trkpt><trkpt lat="44.6162881986649" lon="2.0036255382831887"><ele>304.0</ele><time>2026-04-30T16:33:15Z</time></trkpt><trkpt lat="44.61622329252146" lon="2.0034786096267414"><ele>304.0</ele><time>2026-04-30T16:33:16Z</time></trkpt><trkpt lat="44.61616738318157" lon="2.003339273481438"><ele>303.16666666666663</ele><time>2026-04-30T16:33:17Z</time></trkpt><trkpt lat="44.61612277371931" lon="2.003231038018867"><ele>302.3333333333333</ele><time>2026-04-30T16:33:18Z</time></trkpt><trkpt lat="44.616089312527926" lon="2.0031507064783747"><ele>301.5</ele><time>2026-04-30T16:33:19Z</time></trkpt><trkpt lat="44.615963005362566" lon="2.003113482153831"><ele>300.6666666666667</ele><time>2026-04-30T16:33:22Z</time></trkpt><trkpt lat="44.61591616258319" lon="2.0032081590291164"><ele>299.83333333333337</ele><time>2026-04-30T16:33:23Z</time></trkpt><trkpt lat="44.61586939928949" lon="2.003301175019502"><ele>299.0</ele><time>2026-04-30T16:33:24Z</time></trkpt><trkpt lat="44.615828688930165" lon="2.003386277909821"><ele>299.0</ele><time>2026-04-30T16:33:25Z</time></trkpt><trkpt lat="44.61580168890098" lon="2.0034785291549957"><ele>299.0</ele><time>2026-04-30T16:33:26Z</time></trkpt><trkpt lat="44.61576857848226" lon="2.0036416722321078"><ele>299.0</ele><time>2026-04-30T16:33:28Z</time></trkpt><trkpt lat="44.61574269774318" lon="2.0037280050390014"><ele>299.0</ele><time>2026-04-30T16:33:29Z</time></trkpt><trkpt lat="44.61570138642307" lon="2.0038236057914443"><ele>299.0</ele><time>2026-04-30T16:33:30Z</time></trkpt><trkpt lat="44.615602192318924" lon="2.0038721268217587"><ele>299.0</ele><time>2026-04-30T16:33:31Z</time></trkpt><trkpt lat="44.61554415423577" lon="2.003970425027639"><ele>299.0</ele><time>2026-04-30T16:33:32Z</time></trkpt><trkpt lat="44.61548982479396" lon="2.004054326414431"><ele>299.0</ele><time>2026-04-30T16:33:33Z</time></trkpt><trkpt lat="44.61543911882489" lon="2.0041106758795686"><ele>299.0</ele><time>2026-04-30T16:33:34Z</time></trkpt><trkpt lat="44.615388910582894" lon="2.0041671918746524"><ele>299.0</ele><time>2026-04-30T16:33:35Z</time></trkpt><trkpt lat="44.61537403421794" lon="2.004275692245405"><ele>299.0</ele><time>2026-04-30T16:33:36Z</time></trkpt><trkpt lat="44.615326419831796" lon="2.0044047001872984"><ele>299.0</ele><time>2026-04-30T16:33:38Z</time></trkpt><trkpt lat="44.615395601284256" lon="2.00461791476256"><ele>299.0</ele><time>2026-04-30T16:33:40Z</time></trkpt><trkpt lat="44.615043671797196" lon="2.0043864908951385"><ele>299.0</ele><time>2026-04-30T16:33:42Z</time></trkpt><trkpt lat="44.61492310718389" lon="2.0043360087462347"><ele>299.0</ele><time>2026-04-30T16:33:43Z</time></trkpt><trkpt lat="44.61480040840058" lon="2.0042986263987834"><ele>299.0</ele><time>2026-04-30T16:33:44Z</time></trkpt><trkpt lat="44.61468150409736" lon="2.0042554085703834"><ele>299.0</ele><time>2026-04-30T16:33:45Z</time></trkpt><trkpt lat="44.61456725841885" lon="2.0042246061913658"><ele>299.0</ele><time>2026-04-30T16:33:46Z</time></trkpt><trkpt lat="44.61444313061296" lon="2.0041934199002047"><ele>298.8</ele><time>2026-04-30T16:33:47Z</time></trkpt><trkpt lat="44.61433244974098" lon="2.004167451911255"><ele>298.59999999999997</ele><time>2026-04-30T16:33:48Z</time></trkpt><trkpt lat="44.61422973109709" lon="2.004135586999596"><ele>298.4</ele><time>2026-04-30T16:33:49Z</time></trkpt><trkpt lat="44.614133017222066" lon="2.004104745224026"><ele>298.2</ele><time>2026-04-30T16:33:50Z</time></trkpt><trkpt lat="44.61404704992293" lon="2.004083372199051"><ele>298.0</ele><time>2026-04-30T16:33:51Z</time></trkpt><trkpt lat="44.61396924376125" lon="2.0040787759971823"><ele>298.0</ele><time>2026-04-30T16:33:52Z</time></trkpt><trkpt lat="44.61389936657539" lon="2.0040733235531776"><ele>298.0</ele><time>2026-04-30T16:33:53Z</time></trkpt><trkpt lat="44.61379403283215" lon="2.0040286761014574"><ele>298.0</ele><time>2026-04-30T16:33:55Z</time></trkpt><trkpt lat="44.613680008928846" lon="2.003995328645826"><ele>298.0</ele><time>2026-04-30T16:33:57Z</time></trkpt><trkpt lat="44.613609587927094" lon="2.003903876563947"><ele>298.0</ele><time>2026-04-30T16:33:59Z</time></trkpt><trkpt lat="44.6135671753294" lon="2.0037457591437082"><ele>298.3333333333333</ele><time>2026-04-30T16:34:01Z</time></trkpt><trkpt lat="44.61347789139375" lon="2.0036035863396933"><ele>298.66666666666663</ele><time>2026-04-30T16:34:03Z</time></trkpt><trkpt lat="44.61341691949655" lon="2.003545822784012"><ele>299.0</ele><time>2026-04-30T16:34:04Z</time></trkpt><trkpt lat="44.613364310649594" lon="2.00348220071879"><ele>299.3333333333333</ele><time>2026-04-30T16:34:05Z</time></trkpt><trkpt lat="44.61331786945918" lon="2.003403242304712"><ele>299.6666666666667</ele><time>2026-04-30T16:34:06Z</time></trkpt><trkpt lat="44.61325844937028" lon="2.00336240190006"><ele>300.0</ele><time>2026-04-30T16:34:07Z</time></trkpt><trkpt lat="44.61319208862507" lon="2.00333208931261"><ele>299.0</ele><time>2026-04-30T16:34:08Z</time></trkpt><trkpt lat="44.613121665133214" lon="2.0032942896524397"><ele>298.0</ele><time>2026-04-30T16:34:09Z</time></trkpt><trkpt lat="44.6130251314885" lon="2.00322372711625"><ele>297.0</ele><time>2026-04-30T16:34:11Z</time></trkpt><trkpt lat="44.61296625176073" lon="2.003095418838799"><ele>296.0</ele><time>2026-04-30T16:34:13Z</time></trkpt><trkpt lat="44.61290810064621" lon="2.0030140279328776"><ele>295.0</ele><time>2026-04-30T16:34:15Z</time></trkpt><trkpt lat="44.61283072686744" lon="2.002921760888474"><ele>294.8</ele><time>2026-04-30T16:34:17Z</time></trkpt><trkpt lat="44.61277975315538" lon="2.0028093594814687"><ele>294.6</ele><time>2026-04-30T16:34:19Z</time></trkpt><trkpt lat="44.61269460405303" lon="2.002701317634286"><ele>294.4</ele><time>2026-04-30T16:34:21Z</time></trkpt><trkpt lat="44.61263819912997" lon="2.0026173591031866"><ele>294.2</ele><time>2026-04-30T16:34:23.001Z</time></trkpt><trkpt lat="44.612616742979604" lon="2.002533364242291"><ele>294.0</ele><time>2026-04-30T16:34:25.001Z</time></trkpt><trkpt lat="44.61254918186811" lon="2.002427130975844"><ele>294.0</ele><time>2026-04-30T16:34:28.001Z</time></trkpt><trkpt lat="44.612483310296376" lon="2.002383914195268"><ele>294.0</ele><time>2026-04-30T16:34:30.001Z</time></trkpt><trkpt lat="44.61236252540843" lon="2.002345776065158"><ele>294.0</ele><time>2026-04-30T16:34:32Z</time></trkpt><trkpt lat="44.61228212842838" lon="2.0023253967560763"><ele>294.0</ele><time>2026-04-30T16:34:33Z</time></trkpt><trkpt lat="44.612211633504614" lon="2.0023144010207785"><ele>294.0</ele><time>2026-04-30T16:34:34Z</time></trkpt><trkpt lat="44.61210601673572" lon="2.002322703112171"><ele>294.0</ele><time>2026-04-30T16:34:36Z</time></trkpt><trkpt lat="44.61200473845649" lon="2.0023129680896994"><ele>294.0</ele><time>2026-04-30T16:34:38Z</time></trkpt><trkpt lat="44.6119136147746" lon="2.0023149780410687"><ele>294.0</ele><time>2026-04-30T16:34:40Z</time></trkpt><trkpt lat="44.61180216247382" lon="2.002262405550175"><ele>294.0</ele><time>2026-04-30T16:34:42Z</time></trkpt><trkpt lat="44.61171141957547" lon="2.0022202743810094"><ele>294.0</ele><time>2026-04-30T16:34:43Z</time></trkpt><trkpt lat="44.6116208612687" lon="2.00217640688797"><ele>295.0</ele><time>2026-04-30T16:34:44Z</time></trkpt><trkpt lat="44.61154347104574" lon="2.002134101751288"><ele>296.0</ele><time>2026-04-30T16:34:45Z</time></trkpt><trkpt lat="44.61148300660684" lon="2.002103031461513"><ele>297.0</ele><time>2026-04-30T16:34:46Z</time></trkpt><trkpt lat="44.611396228859796" lon="2.002042298492153"><ele>298.0</ele><time>2026-04-30T16:34:48Z</time></trkpt><trkpt lat="44.61132413019404" lon="2.0020390394962506"><ele>299.0</ele><time>2026-04-30T16:34:50Z</time></trkpt><trkpt lat="44.61135149850606" lon="2.0019482866103133"><ele>300.0</ele><time>2026-04-30T16:34:56Z</time></trkpt><trkpt lat="44.611407280486176" lon="2.0018883234729072"><ele>300.0</ele><time>2026-04-30T16:34:57Z</time></trkpt><trkpt lat="44.611468722178024" lon="2.0018199024214787"><ele>300.0</ele><time>2026-04-30T16:34:58Z</time></trkpt><trkpt lat="44.61155114198001" lon="2.0017204365209764"><ele>300.0</ele><time>2026-04-30T16:35:00Z</time></trkpt><trkpt lat="44.611620586455466" lon="2.0016301196279893"><ele>300.0</ele><time>2026-04-30T16:35:02Z</time></trkpt><trkpt lat="44.61168979402966" lon="2.0015489419210266"><ele>300.0</ele><time>2026-04-30T16:35:04Z</time></trkpt><trkpt lat="44.61175015966949" lon="2.0014615801800515"><ele>300.1666666666667</ele><time>2026-04-30T16:35:06Z</time></trkpt><trkpt lat="44.6118052808446" lon="2.001386990163203"><ele>300.3333333333333</ele><time>2026-04-30T16:35:07Z</time></trkpt><trkpt lat="44.61185654127811" lon="2.001306798624927"><ele>300.5</ele><time>2026-04-30T16:35:08Z</time></trkpt><trkpt lat="44.61192366208384" lon="2.0012084165865796"><ele>300.66666666666663</ele><time>2026-04-30T16:35:10Z</time></trkpt><trkpt lat="44.611963843216955" lon="2.001118150765176"><ele>300.8333333333333</ele><time>2026-04-30T16:35:12Z</time></trkpt><trkpt lat="44.611990127188925" lon="2.0010229701509186"><ele>301.0</ele><time>2026-04-30T16:35:14Z</time></trkpt><trkpt lat="44.611999949401806" lon="2.0009214909948927"><ele>298.8333333333333</ele><time>2026-04-30T16:35:16Z</time></trkpt><trkpt lat="44.61205730810781" lon="2.000827756146594"><ele>296.66666666666663</ele><time>2026-04-30T16:35:18Z</time></trkpt><trkpt lat="44.61210351683221" lon="2.0007487974761147"><ele>294.5</ele><time>2026-04-30T16:35:20Z</time></trkpt><trkpt lat="44.61214582715975" lon="2.0006777257577837"><ele>292.3333333333333</ele><time>2026-04-30T16:35:22Z</time></trkpt><trkpt lat="44.61221333104012" lon="2.000618308765257"><ele>290.1666666666667</ele><time>2026-04-30T16:35:24Z</time></trkpt><trkpt lat="44.61227859294488" lon="2.0005370702357"><ele>288.0</ele><time>2026-04-30T16:35:26Z</time></trkpt><trkpt lat="44.6123307200103" lon="2.000453280018933"><ele>288.00000000000006</ele><time>2026-04-30T16:35:28Z</time></trkpt><trkpt lat="44.61237657984943" lon="2.0003611440176505"><ele>288.0</ele><time>2026-04-30T16:35:30Z</time></trkpt><trkpt lat="44.61241079468277" lon="2.0002686640407017"><ele>288.0</ele><time>2026-04-30T16:35:32Z</time></trkpt><trkpt lat="44.61246101694865" lon="2.000203231174453"><ele>288.0</ele><time>2026-04-30T16:35:34Z</time></trkpt><trkpt lat="44.61248281129331" lon="2.000119715422022"><ele>288.0</ele><time>2026-04-30T16:35:36Z</time></trkpt><trkpt lat="44.61252533423935" lon="2.0000420533127468"><ele>288.00000000000006</ele><time>2026-04-30T16:35:38Z</time></trkpt><trkpt lat="44.6125478388404" lon="1.9999545546537207"><ele>288.0</ele><time>2026-04-30T16:35:40Z</time></trkpt><trkpt lat="44.6125849217189" lon="1.999875820856527"><ele>288.0</ele><time>2026-04-30T16:35:42Z</time></trkpt><trkpt lat="44.61261913991634" lon="1.9997552147517406"><ele>288.0</ele><time>2026-04-30T16:35:45Z</time></trkpt><trkpt lat="44.61264186263797" lon="1.9996716446263991"><ele>288.0</ele><time>2026-04-30T16:35:47Z</time></trkpt><trkpt lat="44.61267223354184" lon="1.999574853429257"><ele>288.0</ele><time>2026-04-30T16:35:50Z</time></trkpt><trkpt lat="44.61270621520544" lon="1.9994825250468133"><ele>288.0</ele><time>2026-04-30T16:35:52Z</time></trkpt><trkpt lat="44.61271469728254" lon="1.9993742308975364"><ele>288.0</ele><time>2026-04-30T16:35:54Z</time></trkpt><trkpt lat="44.61274400043037" lon="1.9992857284961352"><ele>287.6666666666667</ele><time>2026-04-30T16:35:56Z</time></trkpt><trkpt lat="44.61276715458365" lon="1.9991565489911576"><ele>287.3333333333333</ele><time>2026-04-30T16:35:58Z</time></trkpt><trkpt lat="44.61279064538221" lon="1.999054119804396"><ele>287.0</ele><time>2026-04-30T16:36:00Z</time></trkpt><trkpt lat="44.6128089952732" lon="1.9989659648004379"><ele>286.66666666666663</ele><time>2026-04-30T16:36:02Z</time></trkpt><trkpt lat="44.61284215683009" lon="1.9988606054924207"><ele>286.3333333333333</ele><time>2026-04-30T16:36:05Z</time></trkpt><trkpt lat="44.612867291042555" lon="1.998758545187729"><ele>286.0</ele><time>2026-04-30T16:36:07Z</time></trkpt><trkpt lat="44.612866475781814" lon="1.9986659150918789"><ele>284.66666666666663</ele><time>2026-04-30T16:36:09Z</time></trkpt><trkpt lat="44.6128818271707" lon="1.9985675049260874"><ele>283.3333333333333</ele><time>2026-04-30T16:36:11Z</time></trkpt><trkpt lat="44.61292967880475" lon="1.9984737447015055"><ele>282.0</ele><time>2026-04-30T16:36:13Z</time></trkpt><trkpt lat="44.612978562765036" lon="1.9983823071475382"><ele>280.6666666666667</ele><time>2026-04-30T16:36:15Z</time></trkpt><trkpt lat="44.613033994597664" lon="1.998314658524588"><ele>279.33333333333337</ele><time>2026-04-30T16:36:18Z</time></trkpt><trkpt lat="44.61310287736664" lon="1.9982589336501049"><ele>278.0</ele><time>2026-04-30T16:36:21Z</time></trkpt><trkpt lat="44.613176608314554" lon="1.998270954312423"><ele>278.0</ele><time>2026-04-30T16:36:24Z</time></trkpt><trkpt lat="44.61326126396704" lon="1.9982263583055526"><ele>278.0</ele><time>2026-04-30T16:36:26Z</time></trkpt><trkpt lat="44.61331480844934" lon="1.9981194767527484"><ele>278.0</ele><time>2026-04-30T16:36:28Z</time></trkpt><trkpt lat="44.61333158759638" lon="1.9980312847304262"><ele>278.0</ele><time>2026-04-30T16:36:29Z</time></trkpt><trkpt lat="44.61334023784916" lon="1.997897544696385"><ele>278.0</ele><time>2026-04-30T16:36:30Z</time></trkpt><trkpt lat="44.61337778082545" lon="1.9977682676759791"><ele>278.0</ele><time>2026-04-30T16:36:31Z</time></trkpt><trkpt lat="44.6134029829682" lon="1.9976452820448969"><ele>278.0</ele><time>2026-04-30T16:36:32Z</time></trkpt><trkpt lat="44.61343188819185" lon="1.9975545017396585"><ele>278.0</ele><time>2026-04-30T16:36:33Z</time></trkpt><trkpt lat="44.61346304530308" lon="1.9974745604714623"><ele>278.0</ele><time>2026-04-30T16:36:34Z</time></trkpt><trkpt lat="44.61350912870751" lon="1.9973744659929322"><ele>278.0</ele><time>2026-04-30T16:36:35Z</time></trkpt><trkpt lat="44.61357135214805" lon="1.9972597762406485"><ele>278.0</ele><time>2026-04-30T16:36:36Z</time></trkpt><trkpt lat="44.61363035949974" lon="1.9971286706606577"><ele>278.0</ele><time>2026-04-30T16:36:37Z</time></trkpt><trkpt lat="44.61370003992786" lon="1.9970417139984586"><ele>278.1666666666667</ele><time>2026-04-30T16:36:38Z</time></trkpt><trkpt lat="44.61375115131943" lon="1.9969606506330144"><ele>278.33333333333337</ele><time>2026-04-30T16:36:39Z</time></trkpt><trkpt lat="44.61380321564011" lon="1.9968823283669144"><ele>278.5</ele><time>2026-04-30T16:36:40Z</time></trkpt><trkpt lat="44.61386115266319" lon="1.996795186892579"><ele>278.6666666666667</ele><time>2026-04-30T16:36:41Z</time></trkpt><trkpt lat="44.61392781200735" lon="1.9967006705894808"><ele>278.8333333333333</ele><time>2026-04-30T16:36:42Z</time></trkpt><trkpt lat="44.61399874812052" lon="1.9966039798283806"><ele>279.0</ele><time>2026-04-30T16:36:43Z</time></trkpt><trkpt lat="44.614063628880075" lon="1.996517936546606"><ele>279.2857142857143</ele><time>2026-04-30T16:36:44Z</time></trkpt><trkpt lat="44.614121154768334" lon="1.9964433648075404"><ele>279.57142857142856</ele><time>2026-04-30T16:36:45Z</time></trkpt><trkpt lat="44.61417852349236" lon="1.996373392342351"><ele>279.8571428571429</ele><time>2026-04-30T16:36:46Z</time></trkpt><trkpt lat="44.61422824720254" lon="1.9963155847355947"><ele>280.1428571428571</ele><time>2026-04-30T16:36:47Z</time></trkpt><trkpt lat="44.614278692681935" lon="1.9962582185654045"><ele>280.42857142857144</ele><time>2026-04-30T16:36:48Z</time></trkpt><trkpt lat="44.614357215845736" lon="1.9961921225776573"><ele>280.7142857142857</ele><time>2026-04-30T16:36:50Z</time></trkpt><trkpt lat="44.61441589014027" lon="1.9961570542175082"><ele>281.0</ele><time>2026-04-30T16:36:52Z</time></trkpt><trkpt lat="44.614441434507455" lon="1.996030853255038"><ele>281.0</ele><time>2026-04-30T16:36:57Z</time></trkpt><trkpt lat="44.61437922559138" lon="1.995886459612916"><ele>281.0</ele><time>2026-04-30T16:36:59Z</time></trkpt><trkpt lat="44.614335755700026" lon="1.9957801988105057"><ele>281.0</ele><time>2026-04-30T16:37:00Z</time></trkpt><trkpt lat="44.614273644403866" lon="1.9956746072686988"><ele>281.0</ele><time>2026-04-30T16:37:01Z</time></trkpt><trkpt lat="44.61420669504296" lon="1.9955753201557338"><ele>281.0</ele><time>2026-04-30T16:37:02Z</time></trkpt><trkpt lat="44.61414869559781" lon="1.9954882442436634"><ele>280.83333333333337</ele><time>2026-04-30T16:37:03Z</time></trkpt><trkpt lat="44.61409298582504" lon="1.9954212721189832"><ele>280.6666666666667</ele><time>2026-04-30T16:37:04Z</time></trkpt><trkpt lat="44.61403543348968" lon="1.9953655042134366"><ele>280.5</ele><time>2026-04-30T16:37:05Z</time></trkpt><trkpt lat="44.61395117973511" lon="1.995313225989922"><ele>280.3333333333333</ele><time>2026-04-30T16:37:06Z</time></trkpt><trkpt lat="44.613863225718" lon="1.9952627782891021"><ele>280.16666666666663</ele><time>2026-04-30T16:37:07Z</time></trkpt><trkpt lat="44.613757677517796" lon="1.9952088168551647"><ele>280.0</ele><time>2026-04-30T16:37:08Z</time></trkpt><trkpt lat="44.61365759664758" lon="1.9951779551397282"><ele>279.8</ele><time>2026-04-30T16:37:09Z</time></trkpt><trkpt lat="44.613563726448405" lon="1.9951634745725948"><ele>279.6</ele><time>2026-04-30T16:37:10Z</time></trkpt><trkpt lat="44.613475017010266" lon="1.9951467515591426"><ele>279.4</ele><time>2026-04-30T16:37:11Z</time></trkpt><trkpt lat="44.61339756061255" lon="1.9950842805353306"><ele>279.2</ele><time>2026-04-30T16:37:12Z</time></trkpt><trkpt lat="44.61331351185366" lon="1.995054680189389"><ele>279.0</ele><time>2026-04-30T16:37:13Z</time></trkpt><trkpt lat="44.6132316672167" lon="1.9950006543779948"><ele>279.0</ele><time>2026-04-30T16:37:14Z</time></trkpt><trkpt lat="44.613152530340145" lon="1.9949298132015603"><ele>279.0</ele><time>2026-04-30T16:37:15Z</time></trkpt><trkpt lat="44.61306426247181" lon="1.9948801815482107"><ele>279.0</ele><time>2026-04-30T16:37:16Z</time></trkpt><trkpt lat="44.612973234296014" lon="1.9948700883907236"><ele>279.0</ele><time>2026-04-30T16:37:17Z</time></trkpt><trkpt lat="44.61288246890229" lon="1.9948436036482247"><ele>279.0</ele><time>2026-04-30T16:37:18Z</time></trkpt><trkpt lat="44.612778612797676" lon="1.9948273497565792"><ele>280.2</ele><time>2026-04-30T16:37:19Z</time></trkpt><trkpt lat="44.61268026918688" lon="1.9948162631860122"><ele>281.4</ele><time>2026-04-30T16:37:20Z</time></trkpt><trkpt lat="44.612602885882005" lon="1.9948169053704954"><ele>282.6</ele><time>2026-04-30T16:37:21Z</time></trkpt><trkpt lat="44.6125359250372" lon="1.994818111066696"><ele>283.8</ele><time>2026-04-30T16:37:22Z</time></trkpt><trkpt lat="44.6124106583509" lon="1.9947923160923497"><ele>285.0</ele><time>2026-04-30T16:37:24Z</time></trkpt><trkpt lat="44.6122999905064" lon="1.994768824781212"><ele>285.0</ele><time>2026-04-30T16:37:26Z</time></trkpt><trkpt lat="44.61218119815777" lon="1.9947175818633793"><ele>285.0</ele><time>2026-04-30T16:37:28Z</time></trkpt><trkpt lat="44.61206162767408" lon="1.9946319569143887"><ele>285.0</ele><time>2026-04-30T16:37:30Z</time></trkpt><trkpt lat="44.61200699384979" lon="1.994574980868665"><ele>285.0</ele><time>2026-04-30T16:37:31Z</time></trkpt><trkpt lat="44.611928895462256" lon="1.9944777480313702"><ele>285.0</ele><time>2026-04-30T16:37:33Z</time></trkpt><trkpt lat="44.611838372004904" lon="1.9943908151305614"><ele>285.5</ele><time>2026-04-30T16:37:35Z</time></trkpt><trkpt lat="44.61178898019206" lon="1.994333210509996"><ele>286.0</ele><time>2026-04-30T16:37:36Z</time></trkpt><trkpt lat="44.61169223714007" lon="1.994220607912869"><ele>286.5</ele><time>2026-04-30T16:37:38Z</time></trkpt><trkpt lat="44.61164650199941" lon="1.994155672527728"><ele>287.0</ele><time>2026-04-30T16:37:39Z</time></trkpt><trkpt lat="44.61160178776478" lon="1.9940860592322112"><ele>287.5</ele><time>2026-04-30T16:37:40Z</time></trkpt><trkpt lat="44.611557012333776" lon="1.9940220624783527"><ele>288.0</ele><time>2026-04-30T16:37:41Z</time></trkpt><trkpt lat="44.611505429474036" lon="1.9939536836728344"><ele>288.0</ele><time>2026-04-30T16:37:42Z</time></trkpt><trkpt lat="44.611458285339786" lon="1.993890100057444"><ele>288.0</ele><time>2026-04-30T16:37:43Z</time></trkpt><trkpt lat="44.611416376519664" lon="1.9938154306740723"><ele>288.0</ele><time>2026-04-30T16:37:44Z</time></trkpt><trkpt lat="44.61137953617533" lon="1.9937069909942147"><ele>288.0</ele><time>2026-04-30T16:37:45Z</time></trkpt><trkpt lat="44.611347704908226" lon="1.9935749273295653"><ele>288.0</ele><time>2026-04-30T16:37:46Z</time></trkpt><trkpt lat="44.6113261305264" lon="1.993456591662812"><ele>288.0</ele><time>2026-04-30T16:37:47Z</time></trkpt><trkpt lat="44.61131408600405" lon="1.993336147154447"><ele>286.6666666666667</ele><time>2026-04-30T16:37:48Z</time></trkpt><trkpt lat="44.611304500972196" lon="1.9932252344089048"><ele>285.3333333333333</ele><time>2026-04-30T16:37:49Z</time></trkpt><trkpt lat="44.61129878960124" lon="1.9931112426539275"><ele>284.0</ele><time>2026-04-30T16:37:50Z</time></trkpt><trkpt lat="44.611291253062674" lon="1.9930034931352156"><ele>282.66666666666663</ele><time>2026-04-30T16:37:51Z</time></trkpt><trkpt lat="44.61127624483354" lon="1.9928975121620072"><ele>281.3333333333333</ele><time>2026-04-30T16:37:52Z</time></trkpt><trkpt lat="44.611256349698685" lon="1.9927957879498512"><ele>280.0</ele><time>2026-04-30T16:37:53Z</time></trkpt><trkpt lat="44.61123000487153" lon="1.99269201991359"><ele>280.0</ele><time>2026-04-30T16:37:54Z</time></trkpt><trkpt lat="44.611197619486106" lon="1.992591565192716"><ele>280.0</ele><time>2026-04-30T16:37:55Z</time></trkpt><trkpt lat="44.61116146412367" lon="1.9924938359491489"><ele>280.0</ele><time>2026-04-30T16:37:56Z</time></trkpt><trkpt lat="44.61112290024764" lon="1.9924062194145573"><ele>280.0</ele><time>2026-04-30T16:37:57Z</time></trkpt><trkpt lat="44.61108854104161" lon="1.992331623763372"><ele>280.0</ele><time>2026-04-30T16:37:58Z</time></trkpt><trkpt lat="44.611038915403505" lon="1.9922338237992179"><ele>280.0</ele><time>2026-04-30T16:38:00Z</time></trkpt><trkpt lat="44.61101847516336" lon="1.9923207433648833"><ele>280.0</ele><time>2026-04-30T16:38:05Z</time></trkpt><trkpt lat="44.61106457168087" lon="1.992407717904189"><ele>284.0</ele><time>2026-04-30T16:38:07Z</time></trkpt><trkpt lat="44.61109177128041" lon="1.9925429840577515"><ele>288.0</ele><time>2026-04-30T16:38:10Z</time></trkpt><trkpt lat="44.61111747029704" lon="1.992666781878321"><ele>292.0</ele><time>2026-04-30T16:38:13Z</time></trkpt><trkpt lat="44.611107486738355" lon="1.992777252917327"><ele>296.0</ele><time>2026-04-30T16:38:15Z</time></trkpt><trkpt lat="44.61109257279646" lon="1.992913421622188"><ele>300.0</ele><time>2026-04-30T16:38:18Z</time></trkpt><trkpt lat="44.61108790220027" lon="1.9930028506715678"><ele>304.0</ele><time>2026-04-30T16:38:20Z</time></trkpt><trkpt lat="44.61108861436705" lon="1.9931182781394141"><ele>304.0</ele><time>2026-04-30T16:38:23Z</time></trkpt><trkpt lat="44.61109601959758" lon="1.9932274046477505"><ele>304.0</ele><time>2026-04-30T16:38:26Z</time></trkpt><trkpt lat="44.61111378026922" lon="1.9933322142771839"><ele>304.0</ele><time>2026-04-30T16:38:29Z</time></trkpt><trkpt lat="44.61112282607249" lon="1.993443458193973"><ele>304.0</ele><time>2026-04-30T16:38:32Z</time></trkpt><trkpt lat="44.611112140615376" lon="1.9935611504315036"><ele>304.0</ele><time>2026-04-30T16:38:35Z</time></trkpt><trkpt lat="44.611106556399434" lon="1.9936875056795422"><ele>304.0</ele><time>2026-04-30T16:38:38Z</time></trkpt><trkpt lat="44.611102447318046" lon="1.9937774673392523"><ele>304.0</ele><time>2026-04-30T16:38:40Z</time></trkpt><trkpt lat="44.611084393671526" lon="1.9938795350378133"><ele>304.0</ele><time>2026-04-30T16:38:42Z</time></trkpt><trkpt lat="44.611068882307066" lon="1.9939926383878266"><ele>304.0</ele><time>2026-04-30T16:38:46Z</time></trkpt><trkpt lat="44.61104852425045" lon="1.9940764887839377"><ele>304.0</ele><time>2026-04-30T16:38:47Z</time></trkpt><trkpt lat="44.61099157943466" lon="1.9941496346193035"><ele>304.0</ele><time>2026-04-30T16:38:49Z</time></trkpt><trkpt lat="44.610952550534435" lon="1.994268929176104"><ele>304.0</ele><time>2026-04-30T16:38:51Z</time></trkpt><trkpt lat="44.6109300335821" lon="1.9943748165246835"><ele>304.0</ele><time>2026-04-30T16:38:53Z</time></trkpt><trkpt lat="44.61089509544297" lon="1.9944848372054897"><ele>304.0</ele><time>2026-04-30T16:38:55Z</time></trkpt><trkpt lat="44.61083583710907" lon="1.9946043817352734"><ele>304.0</ele><time>2026-04-30T16:38:57Z</time></trkpt><trkpt lat="44.61077800179735" lon="1.994670250955368"><ele>304.0</ele><time>2026-04-30T16:39:01Z</time></trkpt><trkpt lat="44.61073556507733" lon="1.9945967477343884"><ele>304.0</ele><time>2026-04-30T16:39:03Z</time></trkpt><trkpt lat="44.61065892634955" lon="1.9944912759521076"><ele>304.0</ele><time>2026-04-30T16:39:05Z</time></trkpt><trkpt lat="44.61056524988476" lon="1.9944160915607223"><ele>304.0</ele><time>2026-04-30T16:39:07Z</time></trkpt><trkpt lat="44.610504666249895" lon="1.99435618180593"><ele>304.0</ele><time>2026-04-30T16:39:09Z</time></trkpt><trkpt lat="44.61043820427673" lon="1.9943048133853305"><ele>304.0</ele><time>2026-04-30T16:39:11Z</time></trkpt><trkpt lat="44.610391371233774" lon="1.9942279384653068"><ele>304.0</ele><time>2026-04-30T16:39:13Z</time></trkpt><trkpt lat="44.610359745542" lon="1.9941111464189698"><ele>304.0</ele><time>2026-04-30T16:39:16Z</time></trkpt><trkpt lat="44.61036270438748" lon="1.9940110866959586"><ele>304.0</ele><time>2026-04-30T16:39:18Z</time></trkpt><trkpt lat="44.61033978176683" lon="1.9939007574899126"><ele>305.8333333333333</ele><time>2026-04-30T16:39:20Z</time></trkpt><trkpt lat="44.61027290705409" lon="1.9938333389265215"><ele>307.66666666666663</ele><time>2026-04-30T16:39:22Z</time></trkpt><trkpt lat="44.610180550175635" lon="1.9937988339969506"><ele>309.5</ele><time>2026-04-30T16:39:24Z</time></trkpt><trkpt lat="44.61012552318902" lon="1.9937230623891338"><ele>311.3333333333333</ele><time>2026-04-30T16:39:26Z</time></trkpt><trkpt lat="44.61004818539568" lon="1.993698363970142"><ele>313.1666666666667</ele><time>2026-04-30T16:39:28Z</time></trkpt><trkpt lat="44.60996609341089" lon="1.9936414731230443"><ele>315.0</ele><time>2026-04-30T16:39:30Z</time></trkpt><trkpt lat="44.60986638490893" lon="1.9936292528932764"><ele>315.0</ele><time>2026-04-30T16:39:33Z</time></trkpt><trkpt lat="44.60978692932352" lon="1.9936284972780176"><ele>315.0</ele><time>2026-04-30T16:39:35Z</time></trkpt><trkpt lat="44.609720838926656" lon="1.9936221104985048"><ele>315.0</ele><time>2026-04-30T16:39:37Z</time></trkpt><trkpt lat="44.60965469674252" lon="1.993518745911657"><ele>315.0</ele><time>2026-04-30T16:39:39Z</time></trkpt><trkpt lat="44.60959591348995" lon="1.9934545165037199"><ele>315.0</ele><time>2026-04-30T16:39:40Z</time></trkpt><trkpt lat="44.60955235208294" lon="1.993374824082171"><ele>315.0</ele><time>2026-04-30T16:39:41Z</time></trkpt><trkpt lat="44.609509668260735" lon="1.9932827758093254"><ele>315.42857142857144</ele><time>2026-04-30T16:39:43Z</time></trkpt><trkpt lat="44.60946220264737" lon="1.9932182008014263"><ele>315.8571428571429</ele><time>2026-04-30T16:39:45Z</time></trkpt><trkpt lat="44.609410065738366" lon="1.9931643424038015"><ele>316.2857142857143</ele><time>2026-04-30T16:39:47Z</time></trkpt><trkpt lat="44.60933607765551" lon="1.9931247668184375"><ele>316.7142857142857</ele><time>2026-04-30T16:39:49Z</time></trkpt><trkpt lat="44.60926815438508" lon="1.993116264275201"><ele>317.14285714285717</ele><time>2026-04-30T16:39:51Z</time></trkpt><trkpt lat="44.6092038492904" lon="1.9930569956214728"><ele>317.57142857142856</ele><time>2026-04-30T16:39:54Z</time></trkpt><trkpt lat="44.609133871188035" lon="1.9929936013032117"><ele>318.0</ele><time>2026-04-30T16:39:57Z</time></trkpt><trkpt lat="44.60905627447312" lon="1.992949181931408"><ele>318.0</ele><time>2026-04-30T16:40:00Z</time></trkpt><trkpt lat="44.60896448922805" lon="1.992927472417073"><ele>318.0</ele><time>2026-04-30T16:40:03Z</time></trkpt><trkpt lat="44.608909483449395" lon="1.9928774119479127"><ele>318.0</ele><time>2026-04-30T16:40:05Z</time></trkpt><trkpt lat="44.60884969452771" lon="1.9927952714421526"><ele>318.0</ele><time>2026-04-30T16:40:07Z</time></trkpt><trkpt lat="44.60880362085956" lon="1.9927037734738722"><ele>318.0</ele><time>2026-04-30T16:40:09Z</time></trkpt><trkpt lat="44.60876382509243" lon="1.9926206835058191"><ele>318.0</ele><time>2026-04-30T16:40:11Z</time></trkpt><trkpt lat="44.608690042225525" lon="1.9925313412628427"><ele>315.6</ele><time>2026-04-30T16:40:14Z</time></trkpt><trkpt lat="44.60865096178275" lon="1.9924508623965829"><ele>313.20000000000005</ele><time>2026-04-30T16:40:16Z</time></trkpt><trkpt lat="44.60861056906009" lon="1.9923234416038964"><ele>310.8</ele><time>2026-04-30T16:40:18Z</time></trkpt><trkpt lat="44.60847941456672" lon="1.992234342217305"><ele>308.40000000000003</ele><time>2026-04-30T16:40:20Z</time></trkpt><trkpt lat="44.608375376154726" lon="1.9921774603723066"><ele>306.0</ele><time>2026-04-30T16:40:21Z</time></trkpt><trkpt lat="44.60828296051991" lon="1.9921458612797787"><ele>306.0</ele><time>2026-04-30T16:40:22Z</time></trkpt><trkpt lat="44.60817069222624" lon="1.9921311449011059"><ele>306.0</ele><time>2026-04-30T16:40:23Z</time></trkpt><trkpt lat="44.60807505662619" lon="1.992106439392551"><ele>306.0</ele><time>2026-04-30T16:40:23.999Z</time></trkpt><trkpt lat="44.607991193749136" lon="1.9920825863407297"><ele>306.0</ele><time>2026-04-30T16:40:24.999Z</time></trkpt><trkpt lat="44.607886730940685" lon="1.9920701560504113"><ele>306.0</ele><time>2026-04-30T16:40:26.999Z</time></trkpt><trkpt lat="44.60781103924878" lon="1.9920681134556668"><ele>305.2857142857143</ele><time>2026-04-30T16:40:28.999Z</time></trkpt><trkpt lat="44.60773631390468" lon="1.9920688915162184"><ele>304.57142857142856</ele><time>2026-04-30T16:40:32.999Z</time></trkpt><trkpt lat="44.60767948009153" lon="1.9921135902267975"><ele>303.8571428571429</ele><time>2026-04-30T16:40:35.999Z</time></trkpt><trkpt lat="44.607612373671" lon="1.992099469707348"><ele>303.1428571428571</ele><time>2026-04-30T16:40:38.999Z</time></trkpt><trkpt lat="44.60759442193634" lon="1.9920135734974567"><ele>302.42857142857144</ele><time>2026-04-30T16:40:42Z</time></trkpt><trkpt lat="44.607522903962334" lon="1.9920297287166095"><ele>301.7142857142857</ele><time>2026-04-30T16:40:46Z</time></trkpt><trkpt lat="44.607566929949854" lon="1.9920994920856545"><ele>301.0</ele><time>2026-04-30T16:40:48Z</time></trkpt><trkpt lat="44.607651439553244" lon="1.9921344173715678"><ele>301.0</ele><time>2026-04-30T16:40:50Z</time></trkpt><trkpt lat="44.60772329648066" lon="1.9920534687422893"><ele>301.0</ele><time>2026-04-30T16:40:54Z</time></trkpt><trkpt lat="44.60781876395552" lon="1.992052989122318"><ele>301.0</ele><time>2026-04-30T16:40:56Z</time></trkpt><trkpt lat="44.60790190908761" lon="1.9920681133428522"><ele>301.0</ele><time>2026-04-30T16:40:57Z</time></trkpt><trkpt lat="44.60800981104261" lon="1.9920945343344498"><ele>301.0</ele><time>2026-04-30T16:40:58Z</time></trkpt><trkpt lat="44.60812951002598" lon="1.9921280027821577"><ele>301.8333333333333</ele><time>2026-04-30T16:40:59Z</time></trkpt><trkpt lat="44.60823075712435" lon="1.9921555869964864"><ele>302.66666666666663</ele><time>2026-04-30T16:41:00Z</time></trkpt><trkpt lat="44.608314702490766" lon="1.9921668115507378"><ele>303.5</ele><time>2026-04-30T16:41:01Z</time></trkpt><trkpt lat="44.608396397345615" lon="1.9921788180918838"><ele>304.3333333333333</ele><time>2026-04-30T16:41:02Z</time></trkpt><trkpt lat="44.60845899338406" lon="1.9922052155551502"><ele>305.1666666666667</ele><time>2026-04-30T16:41:03Z</time></trkpt><trkpt lat="44.60853782566622" lon="1.992253564473722"><ele>306.0</ele><time>2026-04-30T16:41:04Z</time></trkpt><trkpt lat="44.608611965689484" lon="1.9923081822733637"><ele>306.0</ele><time>2026-04-30T16:41:05Z</time></trkpt><trkpt lat="44.60865802307662" lon="1.9923747133073848"><ele>306.0</ele><time>2026-04-30T16:41:07Z</time></trkpt><trkpt lat="44.608623277816335" lon="1.9922837214552673"><ele>306.0</ele><time>2026-04-30T16:41:11Z</time></trkpt><trkpt lat="44.60853167004426" lon="1.9922701313933757"><ele>306.0</ele><time>2026-04-30T16:41:13Z</time></trkpt><trkpt lat="44.608453881587366" lon="1.9922210084973628"><ele>306.0</ele><time>2026-04-30T16:41:14Z</time></trkpt><trkpt lat="44.60837764633732" lon="1.9921728623241206"><ele>306.0</ele><time>2026-04-30T16:41:15Z</time></trkpt><trkpt lat="44.60827771977023" lon="1.9921524672454323"><ele>306.0</ele><time>2026-04-30T16:41:16Z</time></trkpt><trkpt lat="44.60817534999488" lon="1.9921434709732952"><ele>306.0</ele><time>2026-04-30T16:41:17Z</time></trkpt><trkpt lat="44.60809098715585" lon="1.9921119494215438"><ele>306.0</ele><time>2026-04-30T16:41:18Z</time></trkpt><trkpt lat="44.608018212134276" lon="1.99209452901105"><ele>306.0</ele><time>2026-04-30T16:41:19Z</time></trkpt><trkpt lat="44.607943638510534" lon="1.9920816456413721"><ele>306.0</ele><time>2026-04-30T16:41:20Z</time></trkpt><trkpt lat="44.60787599649243" lon="1.9920742043095188"><ele>306.0</ele><time>2026-04-30T16:41:21Z</time></trkpt><trkpt lat="44.607811138261546" lon="1.992067465342943"><ele>305.1666666666667</ele><time>2026-04-30T16:41:22Z</time></trkpt><trkpt lat="44.60773588454112" lon="1.9920672031935815"><ele>304.3333333333333</ele><time>2026-04-30T16:41:25Z</time></trkpt><trkpt lat="44.607675982723116" lon="1.9921240265859876"><ele>303.5</ele><time>2026-04-30T16:41:28Z</time></trkpt><trkpt lat="44.607552291240204" lon="1.9920865699615533"><ele>302.66666666666663</ele><time>2026-04-30T16:41:31Z</time></trkpt><trkpt lat="44.60748862146083" lon="1.992105047801233"><ele>301.8333333333333</ele><time>2026-04-30T16:41:32Z</time></trkpt><trkpt lat="44.60739299043397" lon="1.9921279322347945"><ele>301.0</ele><time>2026-04-30T16:41:34Z</time></trkpt><trkpt lat="44.6073029025727" lon="1.9920912466738694"><ele>301.0</ele><time>2026-04-30T16:41:36Z</time></trkpt><trkpt lat="44.60721985568164" lon="1.9920144664375619"><ele>301.0</ele><time>2026-04-30T16:41:40Z</time></trkpt><trkpt lat="44.607237042316164" lon="1.9918249122055782"><ele>301.0</ele><time>2026-04-30T16:41:42Z</time></trkpt><trkpt lat="44.60725879939574" lon="1.9917138928019527"><ele>301.0</ele><time>2026-04-30T16:41:43Z</time></trkpt><trkpt lat="44.607279793142716" lon="1.9916149780977248"><ele>301.0</ele><time>2026-04-30T16:41:44Z</time></trkpt><trkpt lat="44.60731143177105" lon="1.9914580329464353"><ele>300.8</ele><time>2026-04-30T16:41:46Z</time></trkpt><trkpt lat="44.607341331170794" lon="1.9913388022310416"><ele>300.6</ele><time>2026-04-30T16:41:48Z</time></trkpt><trkpt lat="44.60732919989743" lon="1.9911991987835636"><ele>300.4</ele><time>2026-04-30T16:41:50Z</time></trkpt><trkpt lat="44.60732899535327" lon="1.9910648022448287"><ele>300.2</ele><time>2026-04-30T16:41:52Z</time></trkpt><trkpt lat="44.607319992626095" lon="1.990971268384056"><ele>300.0</ele><time>2026-04-30T16:41:54Z</time></trkpt><trkpt lat="44.60730403145937" lon="1.990833126749875"><ele>300.0</ele><time>2026-04-30T16:41:57Z</time></trkpt><trkpt lat="44.60733176166842" lon="1.9907037179457205"><ele>300.0</ele><time>2026-04-30T16:41:59Z</time></trkpt><trkpt lat="44.60734362962899" lon="1.990576738268501"><ele>300.0</ele><time>2026-04-30T16:42:01Z</time></trkpt><trkpt lat="44.60735826730245" lon="1.9904879478461273"><ele>300.0</ele><time>2026-04-30T16:42:02Z</time></trkpt><trkpt lat="44.60736859639027" lon="1.9903978348809843"><ele>300.0</ele><time>2026-04-30T16:42:03Z</time></trkpt><trkpt lat="44.607363492090855" lon="1.9902386662414258"><ele>300.0</ele><time>2026-04-30T16:42:05Z</time></trkpt><trkpt lat="44.60733107831017" lon="1.990049574363827"><ele>300.1666666666667</ele><time>2026-04-30T16:42:06.999Z</time></trkpt><trkpt lat="44.60730012379563" lon="1.98992493602111"><ele>300.3333333333333</ele><time>2026-04-30T16:42:07.999Z</time></trkpt><trkpt lat="44.607278851929884" lon="1.9898187528557747"><ele>300.5</ele><time>2026-04-30T16:42:08.999Z</time></trkpt><trkpt lat="44.60724088403704" lon="1.9897300595951652"><ele>300.66666666666663</ele><time>2026-04-30T16:42:09.999Z</time></trkpt><trkpt lat="44.60720063331976" lon="1.9896340037235551"><ele>300.8333333333333</ele><time>2026-04-30T16:42:10.999Z</time></trkpt><trkpt lat="44.607168625209184" lon="1.9895412538044155"><ele>301.0</ele><time>2026-04-30T16:42:11.999Z</time></trkpt><trkpt lat="44.60711092887672" lon="1.9893890914798535"><ele>301.0</ele><time>2026-04-30T16:42:13.999Z</time></trkpt><trkpt lat="44.607073010841866" lon="1.9892431214479607"><ele>301.0</ele><time>2026-04-30T16:42:15.999Z</time></trkpt><trkpt lat="44.60703028893468" lon="1.9891197263545097"><ele>301.0</ele><time>2026-04-30T16:42:17.999Z</time></trkpt><trkpt lat="44.6069717544106" lon="1.9889967166521536"><ele>301.0</ele><time>2026-04-30T16:42:19.999Z</time></trkpt><trkpt lat="44.60691471470992" lon="1.9888820014712278"><ele>301.0</ele><time>2026-04-30T16:42:21.999Z</time></trkpt><trkpt lat="44.60685165700854" lon="1.9888133945588116"><ele>300.6</ele><time>2026-04-30T16:42:23.999Z</time></trkpt><trkpt lat="44.606750918829654" lon="1.9887313949046028"><ele>300.20000000000005</ele><time>2026-04-30T16:42:25.999Z</time></trkpt><trkpt lat="44.606643289319706" lon="1.9886519355572287"><ele>299.79999999999995</ele><time>2026-04-30T16:42:27.999Z</time></trkpt><trkpt lat="44.6065815100325" lon="1.9886175230659826"><ele>299.4</ele><time>2026-04-30T16:42:28.999Z</time></trkpt><trkpt lat="44.60650414690053" lon="1.98858826442053"><ele>299.0</ele><time>2026-04-30T16:42:29.999Z</time></trkpt><trkpt lat="44.606420911051394" lon="1.9885618196564165"><ele>299.0</ele><time>2026-04-30T16:42:30.999Z</time></trkpt><trkpt lat="44.6063453716798" lon="1.9885642733622944"><ele>299.0</ele><time>2026-04-30T16:42:31.999Z</time></trkpt><trkpt lat="44.606226302154326" lon="1.9885347632808328"><ele>299.0</ele><time>2026-04-30T16:42:33.999Z</time></trkpt><trkpt lat="44.60616642415247" lon="1.9884986662727626"><ele>299.0</ele><time>2026-04-30T16:42:34.999Z</time></trkpt><trkpt lat="44.60609704811767" lon="1.9884864954022174"><ele>299.0</ele><time>2026-04-30T16:42:35.999Z</time></trkpt><trkpt lat="44.60597330969683" lon="1.9884914587361309"><ele>298.6666666666667</ele><time>2026-04-30T16:42:37.999Z</time></trkpt><trkpt lat="44.60589972658462" lon="1.9884942363228326"><ele>298.33333333333337</ele><time>2026-04-30T16:42:38.999Z</time></trkpt><trkpt lat="44.60581397958623" lon="1.9884820488189143"><ele>298.0</ele><time>2026-04-30T16:42:39.999Z</time></trkpt><trkpt lat="44.605737363140236" lon="1.9885137082243947"><ele>297.6666666666667</ele><time>2026-04-30T16:42:40.999Z</time></trkpt><trkpt lat="44.60566286086836" lon="1.9885236400214057"><ele>297.3333333333333</ele><time>2026-04-30T16:42:41.999Z</time></trkpt><trkpt lat="44.60557952928961" lon="1.9885332303158667"><ele>297.0</ele><time>2026-04-30T16:42:42.999Z</time></trkpt><trkpt lat="44.605484509308084" lon="1.9885461343172008"><ele>297.0</ele><time>2026-04-30T16:42:43.999Z</time></trkpt><trkpt lat="44.605393702182134" lon="1.9885450064042063"><ele>297.0</ele><time>2026-04-30T16:42:44.999Z</time></trkpt><trkpt lat="44.605323661122405" lon="1.9885470587177216"><ele>297.0</ele><time>2026-04-30T16:42:46Z</time></trkpt><trkpt lat="44.605260529236745" lon="1.9885406510297357"><ele>297.0</ele><time>2026-04-30T16:42:47Z</time></trkpt><trkpt lat="44.60515240837995" lon="1.9885401992724798"><ele>297.0</ele><time>2026-04-30T16:42:49Z</time></trkpt><trkpt lat="44.60507883417162" lon="1.9885469846566413"><ele>297.0</ele><time>2026-04-30T16:42:51Z</time></trkpt><trkpt lat="44.604995208128585" lon="1.9885516316620324"><ele>297.2</ele><time>2026-04-30T16:42:56Z</time></trkpt><trkpt lat="44.604933157812745" lon="1.9886949708253439"><ele>297.4</ele><time>2026-04-30T16:42:58Z</time></trkpt><trkpt lat="44.60489326700198" lon="1.9888081242359739"><ele>297.6</ele><time>2026-04-30T16:42:59Z</time></trkpt><trkpt lat="44.604843153607064" lon="1.9889417627494397"><ele>297.8</ele><time>2026-04-30T16:43:00Z</time></trkpt><trkpt lat="44.604793111034155" lon="1.9890976362705783"><ele>298.0</ele><time>2026-04-30T16:43:01Z</time></trkpt><trkpt lat="44.6047325239712" lon="1.989250666137171"><ele>298.0</ele><time>2026-04-30T16:43:02Z</time></trkpt><trkpt lat="44.60467708065768" lon="1.9893907462668035"><ele>298.0</ele><time>2026-04-30T16:43:03Z</time></trkpt><trkpt lat="44.60461449892673" lon="1.9895446006649309"><ele>298.0</ele><time>2026-04-30T16:43:04Z</time></trkpt><trkpt lat="44.60454364312263" lon="1.9897113791606267"><ele>298.0</ele><time>2026-04-30T16:43:05Z</time></trkpt><trkpt lat="44.60448745400574" lon="1.9898558135723095"><ele>300.8333333333333</ele><time>2026-04-30T16:43:06Z</time></trkpt><trkpt lat="44.60443896086744" lon="1.9899846089716582"><ele>303.66666666666663</ele><time>2026-04-30T16:43:07Z</time></trkpt><trkpt lat="44.604403062702026" lon="1.9900962481775573"><ele>306.5</ele><time>2026-04-30T16:43:08Z</time></trkpt><trkpt lat="44.604373791305456" lon="1.9901972774312788"><ele>309.3333333333333</ele><time>2026-04-30T16:43:09Z</time></trkpt><trkpt lat="44.60435599345156" lon="1.990284470966509"><ele>312.1666666666667</ele><time>2026-04-30T16:43:10Z</time></trkpt><trkpt lat="44.60432586858898" lon="1.990409854448896"><ele>315.0</ele><time>2026-04-30T16:43:12Z</time></trkpt><trkpt lat="44.6042324647474" lon="1.9903960460063554"><ele>315.1666666666667</ele><time>2026-04-30T16:43:14Z</time></trkpt><trkpt lat="44.60412875608774" lon="1.9904027224022314"><ele>315.3333333333333</ele><time>2026-04-30T16:43:16Z</time></trkpt><trkpt lat="44.60404011752158" lon="1.9904207635095226"><ele>315.5</ele><time>2026-04-30T16:43:18Z</time></trkpt><trkpt lat="44.60397255873953" lon="1.990465453381055"><ele>315.66666666666663</ele><time>2026-04-30T16:43:19Z</time></trkpt><trkpt lat="44.603901419324856" lon="1.9905125118154303"><ele>315.8333333333333</ele><time>2026-04-30T16:43:20Z</time></trkpt><trkpt lat="44.603841740225924" lon="1.9905536378602875"><ele>316.0</ele><time>2026-04-30T16:43:21Z</time></trkpt><trkpt lat="44.60378625003612" lon="1.9905955039187733"><ele>316.0</ele><time>2026-04-30T16:43:22Z</time></trkpt><trkpt lat="44.6037320179939" lon="1.9906422211024084"><ele>316.0</ele><time>2026-04-30T16:43:23Z</time></trkpt><trkpt lat="44.603658892519555" lon="1.9907116254460093"><ele>316.0</ele><time>2026-04-30T16:43:24Z</time></trkpt><trkpt lat="44.60360359270257" lon="1.9907612965050057"><ele>316.0</ele><time>2026-04-30T16:43:25Z</time></trkpt><trkpt lat="44.603481781260136" lon="1.9908489333833093"><ele>316.0</ele><time>2026-04-30T16:43:27Z</time></trkpt><trkpt lat="44.603421047676434" lon="1.9908894793809375"><ele>316.0</ele><time>2026-04-30T16:43:28Z</time></trkpt><trkpt lat="44.603357454664646" lon="1.9909375138456513"><ele>317.3333333333333</ele><time>2026-04-30T16:43:29Z</time></trkpt><trkpt lat="44.603282030572785" lon="1.9910140519093253"><ele>318.66666666666663</ele><time>2026-04-30T16:43:30Z</time></trkpt><trkpt lat="44.6032128437265" lon="1.991082902878028"><ele>320.0</ele><time>2026-04-30T16:43:31Z</time></trkpt><trkpt lat="44.603168030385575" lon="1.9911510465058284"><ele>321.3333333333333</ele><time>2026-04-30T16:43:32Z</time></trkpt><trkpt lat="44.60307980505864" lon="1.9912113620863103"><ele>322.6666666666667</ele><time>2026-04-30T16:43:34Z</time></trkpt><trkpt lat="44.603011739867696" lon="1.9912466421143238"><ele>324.0</ele><time>2026-04-30T16:43:37Z</time></trkpt><trkpt lat="44.60298588401023" lon="1.9914009572435396"><ele>324.0</ele><time>2026-04-30T16:43:41Z</time></trkpt><trkpt lat="44.60301069973207" lon="1.9915220115687355"><ele>324.0</ele><time>2026-04-30T16:43:42Z</time></trkpt><trkpt lat="44.603023361451484" lon="1.991668291884485"><ele>324.0</ele><time>2026-04-30T16:43:43Z</time></trkpt><trkpt lat="44.602997703722345" lon="1.9918145691243978"><ele>324.0</ele><time>2026-04-30T16:43:44Z</time></trkpt><trkpt lat="44.60300309491706" lon="1.991936343930577"><ele>324.0</ele><time>2026-04-30T16:43:45Z</time></trkpt><trkpt lat="44.60300700958509" lon="1.9920417951954756"><ele>323.6666666666667</ele><time>2026-04-30T16:43:46Z</time></trkpt><trkpt lat="44.60300951922936" lon="1.9921520190817927"><ele>323.3333333333333</ele><time>2026-04-30T16:43:47Z</time></trkpt><trkpt lat="44.603011755088666" lon="1.9922683516006534"><ele>323.0</ele><time>2026-04-30T16:43:48Z</time></trkpt><trkpt lat="44.60301380404895" lon="1.992374959616357"><ele>322.66666666666663</ele><time>2026-04-30T16:43:49Z</time></trkpt><trkpt lat="44.60301680915929" lon="1.992477836179008"><ele>322.3333333333333</ele><time>2026-04-30T16:43:50Z</time></trkpt><trkpt lat="44.603021849832174" lon="1.9925771581535776"><ele>322.0</ele><time>2026-04-30T16:43:51Z</time></trkpt><trkpt lat="44.60302985412735" lon="1.9926860462066058"><ele>322.0</ele><time>2026-04-30T16:43:52Z</time></trkpt><trkpt lat="44.603040606330254" lon="1.9928115958198545"><ele>322.0</ele><time>2026-04-30T16:43:53Z</time></trkpt><trkpt lat="44.60305261394893" lon="1.9929399786414395"><ele>322.0</ele><time>2026-04-30T16:43:54Z</time></trkpt><trkpt lat="44.603063775101" lon="1.9930497476807778"><ele>322.0</ele><time>2026-04-30T16:43:55Z</time></trkpt><trkpt lat="44.603074721716936" lon="1.9931574067213742"><ele>322.0</ele><time>2026-04-30T16:43:55.999Z</time></trkpt><trkpt lat="44.60308662103479" lon="1.9932614552281602"><ele>322.0</ele><time>2026-04-30T16:43:56.999Z</time></trkpt><trkpt lat="44.6030990840821" lon="1.9933657967497964"><ele>322.5</ele><time>2026-04-30T16:43:57.999Z</time></trkpt><trkpt lat="44.60311535926136" lon="1.9934850104895725"><ele>323.0</ele><time>2026-04-30T16:43:58.999Z</time></trkpt><trkpt lat="44.603139437833875" lon="1.9936291408696485"><ele>323.5</ele><time>2026-04-30T16:43:59.999Z</time></trkpt><trkpt lat="44.603165261614876" lon="1.9937519316768608"><ele>324.0</ele><time>2026-04-30T16:44:00.999Z</time></trkpt><trkpt lat="44.603192631424136" lon="1.9938495533260452"><ele>324.5</ele><time>2026-04-30T16:44:01.999Z</time></trkpt><trkpt lat="44.60321980472841" lon="1.9939381453571132"><ele>325.0</ele><time>2026-04-30T16:44:02.999Z</time></trkpt><trkpt lat="44.60324840259902" lon="1.9940213120669472"><ele>325.0</ele><time>2026-04-30T16:44:03.999Z</time></trkpt><trkpt lat="44.60327952010659" lon="1.994107816067098"><ele>325.0</ele><time>2026-04-30T16:44:04.999Z</time></trkpt><trkpt lat="44.603315486896065" lon="1.9941975608798153"><ele>325.0</ele><time>2026-04-30T16:44:05.999Z</time></trkpt><trkpt lat="44.60335292910967" lon="1.9942880455766583"><ele>325.0</ele><time>2026-04-30T16:44:06.999Z</time></trkpt><trkpt lat="44.603386809154266" lon="1.994369770453524"><ele>325.0</ele><time>2026-04-30T16:44:07.999Z</time></trkpt><trkpt lat="44.603420048252495" lon="1.9944462295913656"><ele>325.0</ele><time>2026-04-30T16:44:08.999Z</time></trkpt><trkpt lat="44.60348056690577" lon="1.9945724881269018"><ele>324.8</ele><time>2026-04-30T16:44:10.999Z</time></trkpt><trkpt lat="44.603550485462094" lon="1.9946291025851393"><ele>324.6</ele><time>2026-04-30T16:44:12.999Z</time></trkpt><trkpt lat="44.60360186907015" lon="1.9947457489862719"><ele>324.4</ele><time>2026-04-30T16:44:14.999Z</time></trkpt><trkpt lat="44.603651834737555" lon="1.9948564900284218"><ele>324.2</ele><time>2026-04-30T16:44:16.999Z</time></trkpt><trkpt lat="44.60367761624351" lon="1.9949864656500045"><ele>324.0</ele><time>2026-04-30T16:44:18.999Z</time></trkpt><trkpt lat="44.60366515156107" lon="1.9951292700054588"><ele>322.4</ele><time>2026-04-30T16:44:20.999Z</time></trkpt><trkpt lat="44.60363893335217" lon="1.9952841420397576"><ele>320.79999999999995</ele><time>2026-04-30T16:44:22.999Z</time></trkpt><trkpt lat="44.60365412703664" lon="1.9953704644973334"><ele>319.20000000000005</ele><time>2026-04-30T16:44:23.999Z</time></trkpt><trkpt lat="44.60371311928104" lon="1.9955112820367358"><ele>317.6</ele><time>2026-04-30T16:44:25.999Z</time></trkpt><trkpt lat="44.603776186334414" lon="1.9956047832969783"><ele>316.0</ele><time>2026-04-30T16:44:27.999Z</time></trkpt><trkpt lat="44.60382458863347" lon="1.99567878171379"><ele>314.5714285714286</ele><time>2026-04-30T16:44:29.999Z</time></trkpt><trkpt lat="44.603880547538736" lon="1.9957402419870571"><ele>313.14285714285717</ele><time>2026-04-30T16:44:33.999Z</time></trkpt><trkpt lat="44.603917338879555" lon="1.9958236593465546"><ele>311.7142857142857</ele><time>2026-04-30T16:44:36.999Z</time></trkpt><trkpt lat="44.60396013533579" lon="1.9958957662629075"><ele>310.28571428571433</ele><time>2026-04-30T16:44:38.999Z</time></trkpt><trkpt lat="44.60401583025999" lon="1.9959779839641156"><ele>308.8571428571429</ele><time>2026-04-30T16:44:40.999Z</time></trkpt><trkpt lat="44.60406736869755" lon="1.9960540681802397"><ele>307.42857142857144</ele><time>2026-04-30T16:44:43.999Z</time></trkpt><trkpt lat="44.604115264912146" lon="1.9961247754987814"><ele>306.0</ele><time>2026-04-30T16:44:49.999Z</time></trkpt><trkpt lat="44.60416616261292" lon="1.9959928357778212"><ele>306.0</ele><time>2026-04-30T16:44:52Z</time></trkpt><trkpt lat="44.60418747293059" lon="1.9958392123724982"><ele>306.0</ele><time>2026-04-30T16:44:54Z</time></trkpt><trkpt lat="44.60421140373357" lon="1.9957471465529315"><ele>306.0</ele><time>2026-04-30T16:44:58Z</time></trkpt><trkpt lat="44.60415043121192" lon="1.995803299722467"><ele>306.0</ele><time>2026-04-30T16:45:01Z</time></trkpt><trkpt lat="44.60414517646103" lon="1.9958982343999065"><ele>306.0</ele><time>2026-04-30T16:45:02Z</time></trkpt><trkpt lat="44.60413418578306" lon="1.996048206600048"><ele>306.0</ele><time>2026-04-30T16:45:03Z</time></trkpt><trkpt lat="44.60412568657257" lon="1.9962304525081216"><ele>306.0</ele><time>2026-04-30T16:45:04Z</time></trkpt><trkpt lat="44.604116114452275" lon="1.9964401928523259"><ele>306.0</ele><time>2026-04-30T16:45:05Z</time></trkpt><trkpt lat="44.60413281349529" lon="1.9966978583497477"><ele>306.0</ele><time>2026-04-30T16:45:06Z</time></trkpt><trkpt lat="44.60414881362812" lon="1.9969365494731057"><ele>306.0</ele><time>2026-04-30T16:45:07Z</time></trkpt><trkpt lat="44.6041654202369" lon="1.9971370779549893"><ele>306.0</ele><time>2026-04-30T16:45:08Z</time></trkpt><trkpt lat="44.60417892922418" lon="1.9972969992264067"><ele>306.0</ele><time>2026-04-30T16:45:09Z</time></trkpt><trkpt lat="44.604191333139774" lon="1.997421554041286"><ele>306.0</ele><time>2026-04-30T16:45:10Z</time></trkpt><trkpt lat="44.60420073823712" lon="1.9975113701741494"><ele>306.0</ele><time>2026-04-30T16:45:11Z</time></trkpt><trkpt lat="44.60421359697906" lon="1.997607982877593"><ele>306.0</ele><time>2026-04-30T16:45:17Z</time></trkpt><trkpt lat="44.60419438589963" lon="1.9974996481305403"><ele>306.0</ele><time>2026-04-30T16:45:20Z</time></trkpt><trkpt lat="44.60423035235522" lon="1.997353108014962"><ele>306.0</ele><time>2026-04-30T16:45:21Z</time></trkpt><trkpt lat="44.60421582493716" lon="1.9972224461784376"><ele>306.0</ele><time>2026-04-30T16:45:22Z</time></trkpt><trkpt lat="44.604213301040055" lon="1.9971190971356736"><ele>306.0</ele><time>2026-04-30T16:45:23Z</time></trkpt><trkpt lat="44.604203942471955" lon="1.9969704977964702"><ele>306.0</ele><time>2026-04-30T16:45:25Z</time></trkpt><trkpt lat="44.604172649525445" lon="1.997055429033067"><ele>306.0</ele><time>2026-04-30T16:45:30Z</time></trkpt><trkpt lat="44.60407259173202" lon="1.9971172011871943"><ele>306.0</ele><time>2026-04-30T16:45:31Z</time></trkpt><trkpt lat="44.6039552114075" lon="1.997205209452956"><ele>306.0</ele><time>2026-04-30T16:45:33Z</time></trkpt><trkpt lat="44.60388318386661" lon="1.99729260120307"><ele>306.0</ele><time>2026-04-30T16:45:35Z</time></trkpt><trkpt lat="44.60377343870583" lon="1.997330238357264"><ele>306.0</ele><time>2026-04-30T16:45:37Z</time></trkpt><trkpt lat="44.60370163049261" lon="1.9973581557475657"><ele>306.0</ele><time>2026-04-30T16:45:38Z</time></trkpt><trkpt lat="44.60363582287199" lon="1.9973974609140275"><ele>306.0</ele><time>2026-04-30T16:45:39Z</time></trkpt><trkpt lat="44.603582006983856" lon="1.9974635906162088"><ele>306.0</ele><time>2026-04-30T16:45:40Z</time></trkpt><trkpt lat="44.60354372520754" lon="1.9975615583092414"><ele>306.0</ele><time>2026-04-30T16:45:41Z</time></trkpt><trkpt lat="44.603504959117686" lon="1.9976316477479639"><ele>306.0</ele><time>2026-04-30T16:45:42Z</time></trkpt><trkpt lat="44.603439069436796" lon="1.9977164814907686"><ele>307.1666666666667</ele><time>2026-04-30T16:45:44Z</time></trkpt><trkpt lat="44.60336951443296" lon="1.997778375716181"><ele>308.3333333333333</ele><time>2026-04-30T16:45:46Z</time></trkpt><trkpt lat="44.60330216909119" lon="1.9977833957792068"><ele>309.5</ele><time>2026-04-30T16:45:47Z</time></trkpt><trkpt lat="44.60321505604249" lon="1.9978049835629956"><ele>310.66666666666663</ele><time>2026-04-30T16:45:49Z</time></trkpt><trkpt lat="44.60315592982921" lon="1.9979144481217992"><ele>311.8333333333333</ele><time>2026-04-30T16:45:51.999Z</time></trkpt><trkpt lat="44.603070357103164" lon="1.9979782688540646"><ele>313.0</ele><time>2026-04-30T16:45:54.999Z</time></trkpt><trkpt lat="44.603003703827675" lon="1.9980361785193526"><ele>313.0</ele><time>2026-04-30T16:45:58.999Z</time></trkpt><trkpt lat="44.60306323277471" lon="1.9981264382556538"><ele>313.0</ele><time>2026-04-30T16:46:00.999Z</time></trkpt><trkpt lat="44.603129955769724" lon="1.9980642130941293"><ele>313.0</ele><time>2026-04-30T16:46:02.999Z</time></trkpt><trkpt lat="44.60314761367723" lon="1.9979777551736906"><ele>313.0</ele><time>2026-04-30T16:46:03.999Z</time></trkpt><trkpt lat="44.60316990650831" lon="1.9978818261347062"><ele>313.0</ele><time>2026-04-30T16:46:04.999Z</time></trkpt><trkpt lat="44.60321850456871" lon="1.9977734247959287"><ele>313.0</ele><time>2026-04-30T16:46:06.999Z</time></trkpt><trkpt lat="44.603149533726516" lon="1.997643017578458"><ele>313.0</ele><time>2026-04-30T16:46:10.999Z</time></trkpt><trkpt lat="44.6031424268107" lon="1.9975157673155282"><ele>313.0</ele><time>2026-04-30T16:46:12.999Z</time></trkpt><trkpt lat="44.603156045422196" lon="1.997408489403481"><ele>313.0</ele><time>2026-04-30T16:46:14.999Z</time></trkpt><trkpt lat="44.6031417802943" lon="1.9973204694947861"><ele>313.0</ele><time>2026-04-30T16:46:16.999Z</time></trkpt><trkpt lat="44.60309349451288" lon="1.9972089409334357"><ele>313.0</ele><time>2026-04-30T16:46:18.999Z</time></trkpt><trkpt lat="44.603061248776186" lon="1.997051799337127"><ele>313.0</ele><time>2026-04-30T16:46:20.999Z</time></trkpt><trkpt lat="44.60302676273918" lon="1.9969711513235342"><ele>313.0</ele><time>2026-04-30T16:46:22.999Z</time></trkpt><trkpt lat="44.60295280668417" lon="1.9969027069929286"><ele>313.0</ele><time>2026-04-30T16:46:25.999Z</time></trkpt><trkpt lat="44.60290337905336" lon="1.9968215757515204"><ele>313.0</ele><time>2026-04-30T16:46:27.999Z</time></trkpt><trkpt lat="44.60282394002607" lon="1.9967124770972544"><ele>313.0</ele><time>2026-04-30T16:46:30.999Z</time></trkpt><trkpt lat="44.6027268645338" lon="1.9967283068826684"><ele>313.0</ele><time>2026-04-30T16:46:32.999Z</time></trkpt><trkpt lat="44.60266292489009" lon="1.9967394999948818"><ele>313.0</ele><time>2026-04-30T16:46:33.999Z</time></trkpt><trkpt lat="44.60258447767482" lon="1.9967478863602788"><ele>313.5</ele><time>2026-04-30T16:46:34.999Z</time></trkpt><trkpt lat="44.60248856681977" lon="1.9967655149376813"><ele>314.0</ele><time>2026-04-30T16:46:36.999Z</time></trkpt><trkpt lat="44.602443130755596" lon="1.9968489295081782"><ele>314.5</ele><time>2026-04-30T16:46:38.999Z</time></trkpt><trkpt lat="44.60243094379066" lon="1.9969544554915044"><ele>315.0</ele><time>2026-04-30T16:46:40.999Z</time></trkpt><trkpt lat="44.602371959172075" lon="1.9969947579480907"><ele>315.5</ele><time>2026-04-30T16:46:43.999Z</time></trkpt><trkpt lat="44.60232660117484" lon="1.9971046087924726"><ele>316.0</ele><time>2026-04-30T16:46:47.999Z</time></trkpt><trkpt lat="44.602365313619" lon="1.9972066342911894"><ele>316.0</ele><time>2026-04-30T16:46:50.999Z</time></trkpt><trkpt lat="44.602357826956535" lon="1.9973161794825764"><ele>316.0</ele><time>2026-04-30T16:46:53.999Z</time></trkpt><trkpt lat="44.60232545592084" lon="1.9974021101068837"><ele>316.0</ele><time>2026-04-30T16:46:58Z</time></trkpt><trkpt lat="44.60240411321957" lon="1.9975363397404078"><ele>316.0</ele><time>2026-04-30T16:47:03Z</time></trkpt><trkpt lat="44.6024969054503" lon="1.9976367021158365"><ele>316.0</ele><time>2026-04-30T16:47:04Z</time></trkpt><trkpt lat="44.60262168924057" lon="1.99773195970066"><ele>315.25</ele><time>2026-04-30T16:47:05Z</time></trkpt><trkpt lat="44.602758201321215" lon="1.9978184388342626"><ele>314.5</ele><time>2026-04-30T16:47:06Z</time></trkpt><trkpt lat="44.602863596697055" lon="1.9979083613543969"><ele>313.75</ele><time>2026-04-30T16:47:07Z</time></trkpt><trkpt lat="44.602948542865654" lon="1.9980191696603036"><ele>313.0</ele><time>2026-04-30T16:47:08Z</time></trkpt><trkpt lat="44.60302729153861" lon="1.9981908302254918"><ele>312.3333333333333</ele><time>2026-04-30T16:47:09Z</time></trkpt><trkpt lat="44.60312311544279" lon="1.9984131919970947"><ele>311.6666666666667</ele><time>2026-04-30T16:47:10Z</time></trkpt><trkpt lat="44.603230833447974" lon="1.998649853439881"><ele>311.0</ele><time>2026-04-30T16:47:11Z</time></trkpt><trkpt lat="44.60332629773679" lon="1.9988523797849442"><ele>311.0</ele><time>2026-04-30T16:47:12Z</time></trkpt><trkpt lat="44.60341069762005" lon="1.9990290043345191"><ele>311.0</ele><time>2026-04-30T16:47:13Z</time></trkpt><trkpt lat="44.603490234649136" lon="1.9991954527793059"><ele>311.0</ele><time>2026-04-30T16:47:14Z</time></trkpt><trkpt lat="44.60356741528253" lon="1.9993561507628521"><ele>311.0</ele><time>2026-04-30T16:47:15Z</time></trkpt><trkpt lat="44.60364423717395" lon="1.9995027829416843"><ele>310.5</ele><time>2026-04-30T16:47:16Z</time></trkpt><trkpt lat="44.603716669996736" lon="1.9996397099984033"><ele>310.0</ele><time>2026-04-30T16:47:17Z</time></trkpt><trkpt lat="44.603777163162604" lon="1.9997745413528862"><ele>309.5</ele><time>2026-04-30T16:47:18Z</time></trkpt><trkpt lat="44.60383611758066" lon="1.9999155789731087"><ele>309.0</ele><time>2026-04-30T16:47:19Z</time></trkpt><trkpt lat="44.603893721269046" lon="2.0000549115437525"><ele>309.0</ele><time>2026-04-30T16:47:20Z</time></trkpt><trkpt lat="44.60395722423375" lon="2.0001870826318537"><ele>309.0</ele><time>2026-04-30T16:47:21Z</time></trkpt><trkpt lat="44.60403406866454" lon="2.0002714129035764"><ele>309.0</ele><time>2026-04-30T16:47:22Z</time></trkpt><trkpt lat="44.60410843966692" lon="2.0003370807678356"><ele>309.0</ele><time>2026-04-30T16:47:23Z</time></trkpt><trkpt lat="44.604194973346054" lon="2.000366182920172"><ele>309.0</ele><time>2026-04-30T16:47:24Z</time></trkpt><trkpt lat="44.604283733595864" lon="2.0003495856886437"><ele>309.0</ele><time>2026-04-30T16:47:25Z</time></trkpt><trkpt lat="44.60436615533232" lon="2.000292758392782"><ele>309.0</ele><time>2026-04-30T16:47:26Z</time></trkpt><trkpt lat="44.60442990260798" lon="2.0002186611848543"><ele>309.0</ele><time>2026-04-30T16:47:27Z</time></trkpt><trkpt lat="44.60449516477928" lon="2.0001612630314884"><ele>309.0</ele><time>2026-04-30T16:47:28Z</time></trkpt><trkpt lat="44.60458284628582" lon="2.000093481607089"><ele>309.0</ele><time>2026-04-30T16:47:29Z</time></trkpt><trkpt lat="44.60467326909588" lon="2.0000296664895187"><ele>308.4</ele><time>2026-04-30T16:47:30Z</time></trkpt><trkpt lat="44.60474853709854" lon="1.999970528017706"><ele>307.79999999999995</ele><time>2026-04-30T16:47:31Z</time></trkpt><trkpt lat="44.6048189319325" lon="1.9999390249822497"><ele>307.20000000000005</ele><time>2026-04-30T16:47:32Z</time></trkpt><trkpt lat="44.60488376508384" lon="1.99993201267933"><ele>306.6</ele><time>2026-04-30T16:47:33Z</time></trkpt><trkpt lat="44.6049643017088" lon="1.99993035755071"><ele>306.0</ele><time>2026-04-30T16:47:35Z</time></trkpt><trkpt lat="44.6051105807514" lon="1.9998874994375762"><ele>306.0</ele><time>2026-04-30T16:47:37Z</time></trkpt><trkpt lat="44.60521688573956" lon="1.9998460472606348"><ele>306.0</ele><time>2026-04-30T16:47:38Z</time></trkpt><trkpt lat="44.60533894026104" lon="1.9998208384837888"><ele>306.0</ele><time>2026-04-30T16:47:39Z</time></trkpt><trkpt lat="44.60547084733909" lon="1.9998321139176174"><ele>306.0</ele><time>2026-04-30T16:47:40Z</time></trkpt><trkpt lat="44.60558369140069" lon="1.9998396418899473"><ele>306.2</ele><time>2026-04-30T16:47:41Z</time></trkpt><trkpt lat="44.605680222175664" lon="1.9998388875096398"><ele>306.40000000000003</ele><time>2026-04-30T16:47:42Z</time></trkpt><trkpt lat="44.6057580779281" lon="1.9998371022805912"><ele>306.6</ele><time>2026-04-30T16:47:43Z</time></trkpt><trkpt lat="44.60586715993634" lon="1.999850849591421"><ele>306.8</ele><time>2026-04-30T16:47:45Z</time></trkpt><trkpt lat="44.60593684287371" lon="1.9999013533938055"><ele>307.0</ele><time>2026-04-30T16:47:46Z</time></trkpt><trkpt lat="44.60605662683217" lon="1.9998613081144547"><ele>307.0</ele><time>2026-04-30T16:47:47.999Z</time></trkpt><trkpt lat="44.606125331749986" lon="1.999914342770563"><ele>307.0</ele><time>2026-04-30T16:47:49.999Z</time></trkpt><trkpt lat="44.606153192946174" lon="2.0000125704190332"><ele>307.0</ele><time>2026-04-30T16:47:50.999Z</time></trkpt><trkpt lat="44.605841498704905" lon="2.000164823779365"><ele>307.0</ele><time>2026-04-30T16:47:51.999Z</time></trkpt><trkpt lat="44.60584830708378" lon="2.000291985191659"><ele>307.0</ele><time>2026-04-30T16:47:53.999Z</time></trkpt><trkpt lat="44.605888605164665" lon="2.0003987712525175"><ele>307.0</ele><time>2026-04-30T16:47:54.999Z</time></trkpt><trkpt lat="44.60596392983223" lon="2.0004886861034654"><ele>307.0</ele><time>2026-04-30T16:47:55.999Z</time></trkpt><trkpt lat="44.606209820559535" lon="2.000348115197764"><ele>308.0</ele><time>2026-04-30T16:47:56.999Z</time></trkpt><trkpt lat="44.606357613452325" lon="2.000344414773602"><ele>309.0</ele><time>2026-04-30T16:47:58.999Z</time></trkpt><trkpt lat="44.60650454735202" lon="2.0003199930683886"><ele>310.0</ele><time>2026-04-30T16:47:59.999Z</time></trkpt><trkpt lat="44.606680896024976" lon="2.0002900734140465"><ele>310.0</ele><time>2026-04-30T16:48:00.999Z</time></trkpt><trkpt lat="44.606867437794534" lon="2.0002485126503435"><ele>310.0</ele><time>2026-04-30T16:48:01.999Z</time></trkpt><trkpt lat="44.607015646929916" lon="2.000217487455773"><ele>310.0</ele><time>2026-04-30T16:48:02.999Z</time></trkpt><trkpt lat="44.60713858168521" lon="2.000201073184943"><ele>310.4</ele><time>2026-04-30T16:48:03.999Z</time></trkpt><trkpt lat="44.60725279682933" lon="2.000193297525139"><ele>310.8</ele><time>2026-04-30T16:48:04.999Z</time></trkpt><trkpt lat="44.607363829213455" lon="2.000177166416566"><ele>311.2</ele><time>2026-04-30T16:48:05.999Z</time></trkpt><trkpt lat="44.607465975228465" lon="2.0001546067269627"><ele>311.6</ele><time>2026-04-30T16:48:06.999Z</time></trkpt><trkpt lat="44.607554484578586" lon="2.0001373804527005"><ele>312.0</ele><time>2026-04-30T16:48:07.999Z</time></trkpt><trkpt lat="44.60763811283629" lon="2.0001202278341346"><ele>312.0</ele><time>2026-04-30T16:48:08.999Z</time></trkpt><trkpt lat="44.607718201866575" lon="2.000102269119893"><ele>312.0</ele><time>2026-04-30T16:48:09.999Z</time></trkpt><trkpt lat="44.60779305313221" lon="2.0000925260090456"><ele>312.0</ele><time>2026-04-30T16:48:10.999Z</time></trkpt><trkpt lat="44.607860330316626" lon="2.000082548045526"><ele>312.0</ele><time>2026-04-30T16:48:11.999Z</time></trkpt><trkpt lat="44.607973311978114" lon="2.0000732826529664"><ele>312.0</ele><time>2026-04-30T16:48:13.999Z</time></trkpt><trkpt lat="44.608049801158266" lon="2.0000764192336264"><ele>312.0</ele><time>2026-04-30T16:48:15.999Z</time></trkpt><trkpt lat="44.60811565334308" lon="1.9999812851111363"><ele>312.0</ele><time>2026-04-30T16:48:17.999Z</time></trkpt><trkpt lat="44.608160866247964" lon="1.9998436079021538"><ele>312.0</ele><time>2026-04-30T16:48:19.999Z</time></trkpt><trkpt lat="44.60820186080194" lon="1.9997114178094026"><ele>312.0</ele><time>2026-04-30T16:48:21.999Z</time></trkpt><trkpt lat="44.608214769421906" lon="1.9996051132328796"><ele>312.0</ele><time>2026-04-30T16:48:23.999Z</time></trkpt><trkpt lat="44.60821724844221" lon="1.999514589602279"><ele>312.0</ele><time>2026-04-30T16:48:25.999Z</time></trkpt><trkpt lat="44.60839397809952" lon="1.999464369866029"><ele>312.0</ele><time>2026-04-30T16:48:31.999Z</time></trkpt><trkpt lat="44.6084944858737" lon="1.9994663730414706"><ele>312.0</ele><time>2026-04-30T16:48:32.999Z</time></trkpt><trkpt lat="44.60859364922483" lon="1.999457294748834"><ele>312.0</ele><time>2026-04-30T16:48:33.999Z</time></trkpt><trkpt lat="44.60867248202346" lon="1.9994623377942713"><ele>312.0</ele><time>2026-04-30T16:48:34.999Z</time></trkpt><trkpt lat="44.60873827384315" lon="1.999467556433025"><ele>312.0</ele><time>2026-04-30T16:48:35.999Z</time></trkpt><trkpt lat="44.60881401085859" lon="1.9994662879907834"><ele>312.0</ele><time>2026-04-30T16:48:36.999Z</time></trkpt><trkpt lat="44.6089004633321" lon="1.9994443514865476"><ele>312.1666666666667</ele><time>2026-04-30T16:48:37.999Z</time></trkpt><trkpt lat="44.60896813095112" lon="1.9994292606606698"><ele>312.3333333333333</ele><time>2026-04-30T16:48:38.999Z</time></trkpt><trkpt lat="44.60904719141314" lon="1.9994304339332443"><ele>312.5</ele><time>2026-04-30T16:48:40.999Z</time></trkpt><trkpt lat="44.609154821720935" lon="1.9995289396750577"><ele>312.66666666666663</ele><time>2026-04-30T16:48:42.999Z</time></trkpt><trkpt lat="44.609209140935214" lon="1.9995970078690397"><ele>312.8333333333333</ele><time>2026-04-30T16:48:43.999Z</time></trkpt><trkpt lat="44.60930646686939" lon="1.9996095991199683"><ele>313.0</ele><time>2026-04-30T16:48:45.999Z</time></trkpt><trkpt lat="44.60938173066272" lon="1.9995775104930216"><ele>313.0</ele><time>2026-04-30T16:48:46.999Z</time></trkpt><trkpt lat="44.60946354723549" lon="1.9995634550190642"><ele>313.0</ele><time>2026-04-30T16:48:47.999Z</time></trkpt><trkpt lat="44.60954424313086" lon="1.9995447315982244"><ele>313.0</ele><time>2026-04-30T16:48:48.999Z</time></trkpt><trkpt lat="44.60960492662995" lon="1.9995036571229827"><ele>313.0</ele><time>2026-04-30T16:48:49.999Z</time></trkpt><trkpt lat="44.60969959148596" lon="1.9994963271809028"><ele>313.0</ele><time>2026-04-30T16:48:51.999Z</time></trkpt><trkpt lat="44.609779145341754" lon="1.9994914791964262"><ele>313.0</ele><time>2026-04-30T16:48:53.999Z</time></trkpt><trkpt lat="44.60983562852112" lon="1.999443273805806"><ele>313.8</ele><time>2026-04-30T16:48:55.999Z</time></trkpt><trkpt lat="44.609803029594424" lon="1.9993078964916968"><ele>314.6</ele><time>2026-04-30T16:48:58.999Z</time></trkpt><trkpt lat="44.60981550982561" lon="1.99915373584931"><ele>315.4</ele><time>2026-04-30T16:49:01.999Z</time></trkpt><trkpt lat="44.60975201996069" lon="1.9990591483913154"><ele>316.2</ele><time>2026-04-30T16:49:05Z</time></trkpt><trkpt lat="44.609647434049684" lon="1.9990289279067046"><ele>317.0</ele><time>2026-04-30T16:49:07Z</time></trkpt><trkpt lat="44.609557571531354" lon="1.998992294773058"><ele>316.0</ele><time>2026-04-30T16:49:09Z</time></trkpt><trkpt lat="44.60945683254171" lon="1.9989632657024117"><ele>315.0</ele><time>2026-04-30T16:49:11Z</time></trkpt><trkpt lat="44.609368530766474" lon="1.998911968171444"><ele>314.0</ele><time>2026-04-30T16:49:13Z</time></trkpt><trkpt lat="44.609279002410545" lon="1.9988481793045871"><ele>313.0</ele><time>2026-04-30T16:49:15Z</time></trkpt><trkpt lat="44.609188573886335" lon="1.9988221758615239"><ele>312.0</ele><time>2026-04-30T16:49:17Z</time></trkpt><trkpt lat="44.609088789235514" lon="1.9988408981658286"><ele>312.0</ele><time>2026-04-30T16:49:19Z</time></trkpt><trkpt lat="44.608986912174764" lon="1.9988706561157668"><ele>312.0</ele><time>2026-04-30T16:49:21Z</time></trkpt><trkpt lat="44.60889879129141" lon="1.9988691161352776"><ele>312.0</ele><time>2026-04-30T16:49:24Z</time></trkpt><trkpt lat="44.60882668376122" lon="1.998859828606588"><ele>312.0</ele><time>2026-04-30T16:49:28Z</time></trkpt><trkpt lat="44.60878752414766" lon="1.9987739120963959"><ele>312.0</ele><time>2026-04-30T16:49:30Z</time></trkpt><trkpt lat="44.60868703795125" lon="1.9987081711795909"><ele>312.0</ele><time>2026-04-30T16:49:32Z</time></trkpt><trkpt lat="44.6086138908391" lon="1.9986064606710532"><ele>311.4</ele><time>2026-04-30T16:49:34Z</time></trkpt><trkpt lat="44.60857595386893" lon="1.9984798642614605"><ele>310.79999999999995</ele><time>2026-04-30T16:49:36Z</time></trkpt><trkpt lat="44.608550042171714" lon="1.9983434146269936"><ele>310.2</ele><time>2026-04-30T16:49:38Z</time></trkpt><trkpt lat="44.60853363514302" lon="1.9981882159845539"><ele>309.59999999999997</ele><time>2026-04-30T16:49:40Z</time></trkpt><trkpt lat="44.60851318103542" lon="1.9980416089774653"><ele>309.0</ele><time>2026-04-30T16:49:41.999Z</time></trkpt><trkpt lat="44.60846459565356" lon="1.9979424066484135"><ele>308.2</ele><time>2026-04-30T16:49:43.999Z</time></trkpt><trkpt lat="44.608461651366554" lon="1.9978098030755456"><ele>307.4</ele><time>2026-04-30T16:49:45.999Z</time></trkpt><trkpt lat="44.60844001917296" lon="1.9976792398515446"><ele>306.6</ele><time>2026-04-30T16:49:47.999Z</time></trkpt><trkpt lat="44.6083782803374" lon="1.9975478077168933"><ele>305.8</ele><time>2026-04-30T16:49:49.999Z</time></trkpt><trkpt lat="44.608339141141066" lon="1.9974628729385149"><ele>305.0</ele><time>2026-04-30T16:49:51.999Z</time></trkpt><trkpt lat="44.608252348485415" lon="1.997408414951384"><ele>304.1666666666667</ele><time>2026-04-30T16:49:53.999Z</time></trkpt><trkpt lat="44.60819457653892" lon="1.9973509525459379"><ele>303.33333333333337</ele><time>2026-04-30T16:49:54.999Z</time></trkpt><trkpt lat="44.60814440789364" lon="1.997268683556912"><ele>302.5</ele><time>2026-04-30T16:49:55.999Z</time></trkpt><trkpt lat="44.608091969626045" lon="1.997219710666316"><ele>301.6666666666667</ele><time>2026-04-30T16:49:56.999Z</time></trkpt><trkpt lat="44.60799289356129" lon="1.9971266908360397"><ele>300.8333333333333</ele><time>2026-04-30T16:49:58.999Z</time></trkpt><trkpt lat="44.60792508434743" lon="1.9970749473598892"><ele>300.0</ele><time>2026-04-30T16:49:59.999Z</time></trkpt><trkpt lat="44.60785990624454" lon="1.9970354438066866"><ele>299.4</ele><time>2026-04-30T16:50:00.999Z</time></trkpt><trkpt lat="44.607762430755415" lon="1.9969306792894341"><ele>298.8</ele><time>2026-04-30T16:50:02.999Z</time></trkpt><trkpt lat="44.607688386608" lon="1.9968510113094216"><ele>298.2</ele><time>2026-04-30T16:50:03.999Z</time></trkpt><trkpt lat="44.60760962842492" lon="1.9967984628624837"><ele>297.6</ele><time>2026-04-30T16:50:04.999Z</time></trkpt><trkpt lat="44.60752370738938" lon="1.9967289214031212"><ele>297.0</ele><time>2026-04-30T16:50:06.999Z</time></trkpt><trkpt lat="44.60747000284205" lon="1.9966348363001074"><ele>296.3333333333333</ele><time>2026-04-30T16:50:08.999Z</time></trkpt><trkpt lat="44.60746746378433" lon="1.996511881281982"><ele>295.6666666666667</ele><time>2026-04-30T16:50:11.999Z</time></trkpt><trkpt lat="44.607436408263666" lon="1.9964096046465931"><ele>295.0</ele><time>2026-04-30T16:50:13.999Z</time></trkpt><trkpt lat="44.60741101653513" lon="1.9963238521919777"><ele>294.33333333333337</ele><time>2026-04-30T16:50:14.999Z</time></trkpt><trkpt lat="44.60739723464296" lon="1.9961657758013243"><ele>293.6666666666667</ele><time>2026-04-30T16:50:16.999Z</time></trkpt><trkpt lat="44.6073843357674" lon="1.9960597938172753"><ele>293.0</ele><time>2026-04-30T16:50:18.999Z</time></trkpt><trkpt lat="44.60736865189873" lon="1.9959496345124421"><ele>293.0</ele><time>2026-04-30T16:50:21.999Z</time></trkpt><trkpt lat="44.607300671048165" lon="1.9959203430167776"><ele>293.0</ele><time>2026-04-30T16:50:25.999Z</time></trkpt><trkpt lat="44.60733310446236" lon="1.9960141913622622"><ele>293.0</ele><time>2026-04-30T16:50:28.999Z</time></trkpt><trkpt lat="44.60738983864152" lon="1.996070453758246"><ele>293.0</ele><time>2026-04-30T16:50:31.999Z</time></trkpt><trkpt lat="44.60740245433298" lon="1.9962494807410063"><ele>293.0</ele><time>2026-04-30T16:50:33.999Z</time></trkpt><trkpt lat="44.607425004191875" lon="1.996355795498248"><ele>293.0</ele><time>2026-04-30T16:50:35.999Z</time></trkpt><trkpt lat="44.60744848028503" lon="1.9964576789379478"><ele>293.0</ele><time>2026-04-30T16:50:38.999Z</time></trkpt><trkpt lat="44.60753870919121" lon="1.9964882216023143"><ele>293.0</ele><time>2026-04-30T16:50:41.999Z</time></trkpt><trkpt lat="44.60755010262392" lon="1.9963893026191466"><ele>293.0</ele><time>2026-04-30T16:50:43.999Z</time></trkpt><trkpt lat="44.60760159658557" lon="1.9962420264960072"><ele>293.0</ele><time>2026-04-30T16:50:45.999Z</time></trkpt><trkpt lat="44.60766463645925" lon="1.9961800616703047"><ele>293.0</ele><time>2026-04-30T16:50:47.999Z</time></trkpt><trkpt lat="44.60772709151779" lon="1.9961037106847168"><ele>293.0</ele><time>2026-04-30T16:50:49.999Z</time></trkpt><trkpt lat="44.60780402922733" lon="1.9960809671863744"><ele>293.0</ele><time>2026-04-30T16:50:53.999Z</time></trkpt><trkpt lat="44.60781388829771" lon="1.9959910281246418"><ele>293.0</ele><time>2026-04-30T16:50:55.999Z</time></trkpt><trkpt lat="44.60779540530284" lon="1.9958996497786468"><ele>293.0</ele><time>2026-04-30T16:50:56.999Z</time></trkpt><trkpt lat="44.607763793303974" lon="1.9957891845136426"><ele>293.0</ele><time>2026-04-30T16:50:58.999Z</time></trkpt><trkpt lat="44.607700844238266" lon="1.9956899839413016"><ele>293.0</ele><time>2026-04-30T16:51:00.999Z</time></trkpt><trkpt lat="44.60764851320455" lon="1.995576210945292"><ele>293.0</ele><time>2026-04-30T16:51:02.999Z</time></trkpt><trkpt lat="44.60759891211218" lon="1.9955199994182684"><ele>293.5</ele><time>2026-04-30T16:51:04.999Z</time></trkpt><trkpt lat="44.60755015903804" lon="1.9954540956351872"><ele>294.0</ele><time>2026-04-30T16:51:06.999Z</time></trkpt><trkpt lat="44.60751321548094" lon="1.995375910067661"><ele>294.5</ele><time>2026-04-30T16:51:08.999Z</time></trkpt><trkpt lat="44.607471285521385" lon="1.995295093544385"><ele>295.0</ele><time>2026-04-30T16:51:11.999Z</time></trkpt><trkpt lat="44.607411033804325" lon="1.9952150001129034"><ele>295.5</ele><time>2026-04-30T16:51:14.999Z</time></trkpt><trkpt lat="44.607322533174795" lon="1.9951483940833685"><ele>296.0</ele><time>2026-04-30T16:51:16.999Z</time></trkpt><trkpt lat="44.6072272537547" lon="1.9950477948863654"><ele>297.0</ele><time>2026-04-30T16:51:17.999Z</time></trkpt><trkpt lat="44.607180157661716" lon="1.994966125481705"><ele>298.0</ele><time>2026-04-30T16:51:18.999Z</time></trkpt><trkpt lat="44.60713757845889" lon="1.9948996407111623"><ele>299.0</ele><time>2026-04-30T16:51:19.999Z</time></trkpt><trkpt lat="44.60708117328342" lon="1.9947938877557858"><ele>300.0</ele><time>2026-04-30T16:51:21.999Z</time></trkpt><trkpt lat="44.60710040024046" lon="1.994663984262459"><ele>301.0</ele><time>2026-04-30T16:51:23.999Z</time></trkpt><trkpt lat="44.60711057501821" lon="1.9945060736908113"><ele>302.0</ele><time>2026-04-30T16:51:25.999Z</time></trkpt><trkpt lat="44.60710713297167" lon="1.994338479564244"><ele>302.0</ele><time>2026-04-30T16:51:27.999Z</time></trkpt><trkpt lat="44.60714658214444" lon="1.9941786849797216"><ele>302.0</ele><time>2026-04-30T16:51:29.999Z</time></trkpt><trkpt lat="44.60717755139069" lon="1.9940806127182016"><ele>302.0</ele><time>2026-04-30T16:51:30.999Z</time></trkpt><trkpt lat="44.6071973250363" lon="1.993992197983718"><ele>302.0</ele><time>2026-04-30T16:51:32.999Z</time></trkpt><trkpt lat="44.607258345013655" lon="1.9939519519628879"><ele>302.0</ele><time>2026-04-30T16:51:36.999Z</time></trkpt><trkpt lat="44.6073698666558" lon="1.9940151774450872"><ele>302.0</ele><time>2026-04-30T16:51:39.999Z</time></trkpt><trkpt lat="44.60744629247236" lon="1.9940649133994266"><ele>302.0</ele><time>2026-04-30T16:51:41.999Z</time></trkpt><trkpt lat="44.60752227673295" lon="1.994103109444"><ele>302.0</ele><time>2026-04-30T16:51:44.999Z</time></trkpt><trkpt lat="44.60760305137544" lon="1.9941381409338204"><ele>302.0</ele><time>2026-04-30T16:51:45.999Z</time></trkpt><trkpt lat="44.607673378474544" lon="1.994157899495422"><ele>302.0</ele><time>2026-04-30T16:51:46.999Z</time></trkpt><trkpt lat="44.60777099065364" lon="1.9942015967610502"><ele>302.0</ele><time>2026-04-30T16:51:48.999Z</time></trkpt><trkpt lat="44.60782975059925" lon="1.994257067646124"><ele>303.5</ele><time>2026-04-30T16:51:50.999Z</time></trkpt><trkpt lat="44.60790420425265" lon="1.994296919564294"><ele>305.0</ele><time>2026-04-30T16:51:52.999Z</time></trkpt><trkpt lat="44.607989738810296" lon="1.9943575140349703"><ele>306.5</ele><time>2026-04-30T16:51:54.999Z</time></trkpt><trkpt lat="44.60806175209403" lon="1.9944046354695784"><ele>308.0</ele><time>2026-04-30T16:51:56.999Z</time></trkpt><trkpt lat="44.608147352950176" lon="1.994461233064419"><ele>309.5</ele><time>2026-04-30T16:51:59.999Z</time></trkpt><trkpt lat="44.60820854709927" lon="1.994506547082763"><ele>311.0</ele><time>2026-04-30T16:52:00.999Z</time></trkpt><trkpt lat="44.60827047387627" lon="1.9945626491227906"><ele>311.0</ele><time>2026-04-30T16:52:01.999Z</time></trkpt><trkpt lat="44.60835133234557" lon="1.9946446353612073"><ele>311.0</ele><time>2026-04-30T16:52:02.999Z</time></trkpt><trkpt lat="44.60840880140927" lon="1.9946830216748859"><ele>311.0</ele><time>2026-04-30T16:52:03.999Z</time></trkpt><trkpt lat="44.60848177246877" lon="1.994742151422768"><ele>311.0</ele><time>2026-04-30T16:52:05.999Z</time></trkpt><trkpt lat="44.608518239528784" lon="1.9948346176107303"><ele>311.0</ele><time>2026-04-30T16:52:08.999Z</time></trkpt><trkpt lat="44.60856521779095" lon="1.9949152348482189"><ele>311.0</ele><time>2026-04-30T16:52:11.999Z</time></trkpt><trkpt lat="44.60864652018425" lon="1.9949755293279203"><ele>310.6666666666667</ele><time>2026-04-30T16:52:14.999Z</time></trkpt><trkpt lat="44.608706497965784" lon="1.9950140670672252"><ele>310.33333333333337</ele><time>2026-04-30T16:52:16.999Z</time></trkpt><trkpt lat="44.60875503961916" lon="1.9950709600340217"><ele>310.0</ele><time>2026-04-30T16:52:18.999Z</time></trkpt><trkpt lat="44.60884524795832" lon="1.9950720578766783"><ele>309.6666666666667</ele><time>2026-04-30T16:52:21.999Z</time></trkpt><trkpt lat="44.60891564945679" lon="1.9949858237894098"><ele>309.3333333333333</ele><time>2026-04-30T16:52:23.999Z</time></trkpt><trkpt lat="44.60896656925867" lon="1.994859758223654"><ele>309.0</ele><time>2026-04-30T16:52:25.999Z</time></trkpt><trkpt lat="44.60903712948549" lon="1.9948602112687783"><ele>309.0</ele><time>2026-04-30T16:52:27.999Z</time></trkpt><trkpt lat="44.60910647054021" lon="1.9949292981768012"><ele>309.0</ele><time>2026-04-30T16:52:29.999Z</time></trkpt><trkpt lat="44.60919787167791" lon="1.9949713469680772"><ele>309.0</ele><time>2026-04-30T16:52:31.999Z</time></trkpt><trkpt lat="44.609247340837925" lon="1.9950466378290268"><ele>309.0</ele><time>2026-04-30T16:52:34.999Z</time></trkpt><trkpt lat="44.6092739059739" lon="1.9951564744292196"><ele>309.0</ele><time>2026-04-30T16:52:37.999Z</time></trkpt><trkpt lat="44.609303221697495" lon="1.9952860678403215"><ele>309.0</ele><time>2026-04-30T16:52:40.999Z</time></trkpt><trkpt lat="44.609374303467725" lon="1.9953691187798608"><ele>309.0</ele><time>2026-04-30T16:52:49.999Z</time></trkpt><trkpt lat="44.6094615207131" lon="1.9953500641272013"><ele>309.0</ele><time>2026-04-30T16:52:51.999Z</time></trkpt><trkpt lat="44.609558203837295" lon="1.9953909804589236"><ele>309.0</ele><time>2026-04-30T16:52:54.999Z</time></trkpt><trkpt lat="44.60962408951604" lon="1.9954626606179477"><ele>309.0</ele><time>2026-04-30T16:52:57.999Z</time></trkpt><trkpt lat="44.609735131405664" lon="1.9955108197108737"><ele>309.0</ele><time>2026-04-30T16:53:00.999Z</time></trkpt><trkpt lat="44.609852893498626" lon="1.9955670178755602"><ele>309.59999999999997</ele><time>2026-04-30T16:53:02.999Z</time></trkpt><trkpt lat="44.60996113895552" lon="1.9956034618826324"><ele>310.2</ele><time>2026-04-30T16:53:04.999Z</time></trkpt><trkpt lat="44.61004194764055" lon="1.9956691588453628"><ele>310.79999999999995</ele><time>2026-04-30T16:53:07Z</time></trkpt><trkpt lat="44.610095712754884" lon="1.9957945945546225"><ele>311.4</ele><time>2026-04-30T16:53:09Z</time></trkpt><trkpt lat="44.610147989717134" lon="1.9958536541106395"><ele>312.0</ele><time>2026-04-30T16:53:11Z</time></trkpt><trkpt lat="44.61023475657873" lon="1.9958509039215506"><ele>312.0</ele><time>2026-04-30T16:53:13Z</time></trkpt><trkpt lat="44.61030111591957" lon="1.9958733783602989"><ele>312.0</ele><time>2026-04-30T16:53:15Z</time></trkpt><trkpt lat="44.61037796578798" lon="1.9959442982058082"><ele>312.0</ele><time>2026-04-30T16:53:17Z</time></trkpt><trkpt lat="44.61047939494352" lon="1.99598249964811"><ele>312.0</ele><time>2026-04-30T16:53:19Z</time></trkpt><trkpt lat="44.61060595193426" lon="1.9960193277595226"><ele>312.0</ele><time>2026-04-30T16:53:21Z</time></trkpt><trkpt lat="44.61065902772018" lon="1.9960680552378582"><ele>312.0</ele><time>2026-04-30T16:53:22Z</time></trkpt><trkpt lat="44.61073703342907" lon="1.9961101797365428"><ele>312.0</ele><time>2026-04-30T16:53:24Z</time></trkpt><trkpt lat="44.61080876949975" lon="1.9961067711314153"><ele>312.0</ele><time>2026-04-30T16:53:28Z</time></trkpt><trkpt lat="44.61087865325929" lon="1.9960562667557018"><ele>312.0</ele><time>2026-04-30T16:53:30Z</time></trkpt><trkpt lat="44.61099868990124" lon="1.996015997290756"><ele>312.0</ele><time>2026-04-30T16:53:32Z</time></trkpt><trkpt lat="44.611085748471915" lon="1.9959731500828657"><ele>312.0</ele><time>2026-04-30T16:53:35Z</time></trkpt><trkpt lat="44.61115128089259" lon="1.9959529010571528"><ele>312.0</ele><time>2026-04-30T16:53:37Z</time></trkpt><trkpt lat="44.61121165023063" lon="1.995906012502524"><ele>312.0</ele><time>2026-04-30T16:53:39Z</time></trkpt><trkpt lat="44.611274494602334" lon="1.995873440376244"><ele>312.0</ele><time>2026-04-30T16:53:41Z</time></trkpt><trkpt lat="44.61137295478128" lon="1.9958556315555507"><ele>312.0</ele><time>2026-04-30T16:53:44Z</time></trkpt><trkpt lat="44.611444901839775" lon="1.9958723181851812"><ele>312.0</ele><time>2026-04-30T16:53:46Z</time></trkpt><trkpt lat="44.611517453056116" lon="1.995884931787705"><ele>312.0</ele><time>2026-04-30T16:53:49Z</time></trkpt><trkpt lat="44.61159901495488" lon="1.995844725887501"><ele>309.4</ele><time>2026-04-30T16:53:56Z</time></trkpt><trkpt lat="44.61162852661336" lon="1.9957027306505282"><ele>306.79999999999995</ele><time>2026-04-30T16:53:58Z</time></trkpt><trkpt lat="44.61164453308588" lon="1.9956160220165005"><ele>304.2</ele><time>2026-04-30T16:53:59Z</time></trkpt><trkpt lat="44.61166613439959" lon="1.9955254104782434"><ele>301.59999999999997</ele><time>2026-04-30T16:54:00Z</time></trkpt><trkpt lat="44.61168986245903" lon="1.995363840742118"><ele>299.0</ele><time>2026-04-30T16:54:02Z</time></trkpt><trkpt lat="44.611717959055625" lon="1.9952170767547959"><ele>299.0</ele><time>2026-04-30T16:54:04Z</time></trkpt><trkpt lat="44.61174275584352" lon="1.9950668322851008"><ele>299.0</ele><time>2026-04-30T16:54:06Z</time></trkpt><trkpt lat="44.61177102108374" lon="1.9949341260326736"><ele>299.0</ele><time>2026-04-30T16:54:08Z</time></trkpt><trkpt lat="44.61181503222584" lon="1.994845500233649"><ele>299.0</ele><time>2026-04-30T16:54:10Z</time></trkpt><trkpt lat="44.61187311494861" lon="1.9947975830716478"><ele>299.0</ele><time>2026-04-30T16:54:14Z</time></trkpt><trkpt lat="44.61196894723353" lon="1.9948262655978806"><ele>296.2</ele><time>2026-04-30T16:54:17Z</time></trkpt><trkpt lat="44.61207723246675" lon="1.9948540005932127"><ele>293.4</ele><time>2026-04-30T16:54:19Z</time></trkpt><trkpt lat="44.61215921737722" lon="1.9948269458391117"><ele>290.6</ele><time>2026-04-30T16:54:21Z</time></trkpt><trkpt lat="44.61223281569338" lon="1.9948148461489046"><ele>287.8</ele><time>2026-04-30T16:54:23Z</time></trkpt><trkpt lat="44.612362926649105" lon="1.994816106869601"><ele>285.0</ele><time>2026-04-30T16:54:25Z</time></trkpt><trkpt lat="44.612450129957985" lon="1.9948350611947603"><ele>285.0</ele><time>2026-04-30T16:54:26Z</time></trkpt><trkpt lat="44.612570684864956" lon="1.9948410565224015"><ele>285.0</ele><time>2026-04-30T16:54:27Z</time></trkpt><trkpt lat="44.61266979535831" lon="1.994839796607955"><ele>285.0</ele><time>2026-04-30T16:54:28Z</time></trkpt><trkpt lat="44.6127534928534" lon="1.9948435728269367"><ele>285.0</ele><time>2026-04-30T16:54:29Z</time></trkpt><trkpt lat="44.61283357880547" lon="1.9948572144284729"><ele>285.0</ele><time>2026-04-30T16:54:30Z</time></trkpt><trkpt lat="44.61291263653884" lon="1.9948791766458274"><ele>285.0</ele><time>2026-04-30T16:54:31Z</time></trkpt><trkpt lat="44.61298510718721" lon="1.9948968260939457"><ele>285.0</ele><time>2026-04-30T16:54:32Z</time></trkpt><trkpt lat="44.61305369198503" lon="1.9949231370928968"><ele>285.0</ele><time>2026-04-30T16:54:33Z</time></trkpt><trkpt lat="44.61311530990987" lon="1.994951961106584"><ele>285.0</ele><time>2026-04-30T16:54:34Z</time></trkpt><trkpt lat="44.613178377120626" lon="1.9949889293695569"><ele>285.0</ele><time>2026-04-30T16:54:35Z</time></trkpt><trkpt lat="44.61324600782366" lon="1.9950343280895186"><ele>285.0</ele><time>2026-04-30T16:54:36Z</time></trkpt><trkpt lat="44.61331419509719" lon="1.9950735269639757"><ele>285.0</ele><time>2026-04-30T16:54:37Z</time></trkpt><trkpt lat="44.61337947772976" lon="1.995107632420402"><ele>285.0</ele><time>2026-04-30T16:54:38Z</time></trkpt><trkpt lat="44.61344669351466" lon="1.9951429562783625"><ele>285.0</ele><time>2026-04-30T16:54:39Z</time></trkpt><trkpt lat="44.61351377652666" lon="1.9951746827941896"><ele>285.0</ele><time>2026-04-30T16:54:40Z</time></trkpt><trkpt lat="44.61357964252148" lon="1.9951948924626959"><ele>285.0</ele><time>2026-04-30T16:54:41Z</time></trkpt><trkpt lat="44.613651509999514" lon="1.9952082553670747"><ele>285.0</ele><time>2026-04-30T16:54:42Z</time></trkpt><trkpt lat="44.613721821421436" lon="1.9952227735122072"><ele>285.0</ele><time>2026-04-30T16:54:43Z</time></trkpt><trkpt lat="44.61378457500599" lon="1.99524117431777"><ele>285.0</ele><time>2026-04-30T16:54:44Z</time></trkpt><trkpt lat="44.61384913455291" lon="1.995271501458328"><ele>284.0</ele><time>2026-04-30T16:54:45Z</time></trkpt><trkpt lat="44.61391053831567" lon="1.9953096330982947"><ele>283.0</ele><time>2026-04-30T16:54:46Z</time></trkpt><trkpt lat="44.614019798770876" lon="1.9953825886117633"><ele>282.0</ele><time>2026-04-30T16:54:48Z</time></trkpt><trkpt lat="44.614111920866776" lon="1.99545662839999"><ele>281.0</ele><time>2026-04-30T16:54:50Z</time></trkpt><trkpt lat="44.614153818636815" lon="1.995542826818575"><ele>280.0</ele><time>2026-04-30T16:54:51Z</time></trkpt><trkpt lat="44.614207327678066" lon="1.9956324642745829"><ele>280.0</ele><time>2026-04-30T16:54:52Z</time></trkpt><trkpt lat="44.614256413812925" lon="1.9957147581792514"><ele>280.0</ele><time>2026-04-30T16:54:53Z</time></trkpt><trkpt lat="44.61430059817729" lon="1.995789805894675"><ele>280.0</ele><time>2026-04-30T16:54:54Z</time></trkpt><trkpt lat="44.61434119742379" lon="1.9958612854089686"><ele>280.0</ele><time>2026-04-30T16:54:55Z</time></trkpt><trkpt lat="44.61441229838655" lon="1.9959930409796918"><ele>280.0</ele><time>2026-04-30T16:54:57Z</time></trkpt><trkpt lat="44.61442868997385" lon="1.9960900119532485"><ele>280.0</ele><time>2026-04-30T16:55:00Z</time></trkpt><trkpt lat="44.6144822414921" lon="1.9961846864431292"><ele>279.5</ele><time>2026-04-30T16:55:07Z</time></trkpt><trkpt lat="44.61454224673699" lon="1.9962526880326905"><ele>279.0</ele><time>2026-04-30T16:55:08Z</time></trkpt><trkpt lat="44.61462179832915" lon="1.9963388086772336"><ele>278.5</ele><time>2026-04-30T16:55:09Z</time></trkpt><trkpt lat="44.614701484536106" lon="1.9963872800079647"><ele>278.0</ele><time>2026-04-30T16:55:10Z</time></trkpt><trkpt lat="44.614766604899685" lon="1.9964028929822752"><ele>277.5</ele><time>2026-04-30T16:55:11Z</time></trkpt><trkpt lat="44.614856707995436" lon="1.9964731738891894"><ele>277.0</ele><time>2026-04-30T16:55:13Z</time></trkpt><trkpt lat="44.61496232726558" lon="1.9965276623840253"><ele>277.0</ele><time>2026-04-30T16:55:15Z</time></trkpt><trkpt lat="44.61501975155845" lon="1.9966548640106805"><ele>277.0</ele><time>2026-04-30T16:55:17Z</time></trkpt><trkpt lat="44.615053380586964" lon="1.9967481084249554"><ele>277.0</ele><time>2026-04-30T16:55:18Z</time></trkpt><trkpt lat="44.615051862753" lon="1.9968969543665003"><ele>277.0</ele><time>2026-04-30T16:55:20Z</time></trkpt><trkpt lat="44.61504110062426" lon="1.9970529811834736"><ele>277.0</ele><time>2026-04-30T16:55:22Z</time></trkpt><trkpt lat="44.61503825268292" lon="1.9972139537376092"><ele>277.4</ele><time>2026-04-30T16:55:24Z</time></trkpt><trkpt lat="44.615077333725004" lon="1.9973627326588648"><ele>277.79999999999995</ele><time>2026-04-30T16:55:26Z</time></trkpt><trkpt lat="44.61517940947588" lon="1.9974309870147198"><ele>278.2</ele><time>2026-04-30T16:55:28Z</time></trkpt><trkpt lat="44.61524476341501" lon="1.9974480833116375"><ele>278.59999999999997</ele><time>2026-04-30T16:55:29Z</time></trkpt><trkpt lat="44.61532875896373" lon="1.9974614463572082"><ele>279.0</ele><time>2026-04-30T16:55:30Z</time></trkpt><trkpt lat="44.61540689461438" lon="1.9974750918291369"><ele>279.5</ele><time>2026-04-30T16:55:31Z</time></trkpt><trkpt lat="44.615479457239736" lon="1.997488699829154"><ele>280.0</ele><time>2026-04-30T16:55:32Z</time></trkpt><trkpt lat="44.61554699633573" lon="1.9974999645370548"><ele>280.5</ele><time>2026-04-30T16:55:33Z</time></trkpt><trkpt lat="44.615613864419586" lon="1.997516604809213"><ele>281.0</ele><time>2026-04-30T16:55:34Z</time></trkpt><trkpt lat="44.61572253325388" lon="1.9975467060756396"><ele>281.5</ele><time>2026-04-30T16:55:36Z</time></trkpt><trkpt lat="44.615807714717256" lon="1.9975352123938293"><ele>282.0</ele><time>2026-04-30T16:55:38Z</time></trkpt><trkpt lat="44.61587107659548" lon="1.997501780593235"><ele>282.0</ele><time>2026-04-30T16:55:41Z</time></trkpt><trkpt lat="44.615844579853295" lon="1.9973587353435018"><ele>282.0</ele><time>2026-04-30T16:55:43Z</time></trkpt><trkpt lat="44.61577934634042" lon="1.997235245610954"><ele>282.0</ele><time>2026-04-30T16:55:44Z</time></trkpt><trkpt lat="44.61572627495069" lon="1.997071491764893"><ele>282.0</ele><time>2026-04-30T16:55:45Z</time></trkpt><trkpt lat="44.61570424306501" lon="1.9968860878466281"><ele>282.0</ele><time>2026-04-30T16:55:46Z</time></trkpt><trkpt lat="44.6157114769418" lon="1.9966735112894987"><ele>282.0</ele><time>2026-04-30T16:55:47Z</time></trkpt><trkpt lat="44.61575161570146" lon="1.996472059054063"><ele>282.0</ele><time>2026-04-30T16:55:48Z</time></trkpt><trkpt lat="44.61581659561637" lon="1.9962683946241964"><ele>282.3333333333333</ele><time>2026-04-30T16:55:49Z</time></trkpt><trkpt lat="44.61592038491253" lon="1.9960382200080842"><ele>282.66666666666663</ele><time>2026-04-30T16:55:50Z</time></trkpt><trkpt lat="44.61602988871885" lon="1.9958392207266267"><ele>283.0</ele><time>2026-04-30T16:55:51Z</time></trkpt><trkpt lat="44.61614036331614" lon="1.9956671493511944"><ele>283.0</ele><time>2026-04-30T16:55:52Z</time></trkpt><trkpt lat="44.616230559420046" lon="1.9954570323716077"><ele>283.0</ele><time>2026-04-30T16:55:53Z</time></trkpt><trkpt lat="44.616312838975674" lon="1.9952146469122345"><ele>283.0</ele><time>2026-04-30T16:55:54Z</time></trkpt><trkpt lat="44.616379105912" lon="1.9949405950397137"><ele>280.0</ele><time>2026-04-30T16:55:55Z</time></trkpt><trkpt lat="44.616420387477824" lon="1.9946822745835462"><ele>277.0</ele><time>2026-04-30T16:55:56Z</time></trkpt><trkpt lat="44.61645906410315" lon="1.9944458855501106"><ele>274.0</ele><time>2026-04-30T16:55:57Z</time></trkpt><trkpt lat="44.616500900773" lon="1.994232666510741"><ele>271.25</ele><time>2026-04-30T16:55:58Z</time></trkpt><trkpt lat="44.61653852407792" lon="1.9940485698774912"><ele>268.5</ele><time>2026-04-30T16:55:59Z</time></trkpt><trkpt lat="44.61657281463093" lon="1.993873685877218"><ele>265.75</ele><time>2026-04-30T16:56:00Z</time></trkpt><trkpt lat="44.616611930024746" lon="1.9937077099620981"><ele>263.0</ele><time>2026-04-30T16:56:01Z</time></trkpt><trkpt lat="44.61666698015251" lon="1.9935175701855787"><ele>260.33333333333337</ele><time>2026-04-30T16:56:02Z</time></trkpt><trkpt lat="44.61675896172693" lon="1.9932917754642712"><ele>257.6666666666667</ele><time>2026-04-30T16:56:03Z</time></trkpt><trkpt lat="44.61687068194561" lon="1.9930707355787498"><ele>255.0</ele><time>2026-04-30T16:56:04Z</time></trkpt><trkpt lat="44.61697539693389" lon="1.9928826858753557"><ele>254.66666666666669</ele><time>2026-04-30T16:56:05Z</time></trkpt><trkpt lat="44.61707304270548" lon="1.9927046880914139"><ele>254.33333333333334</ele><time>2026-04-30T16:56:06Z</time></trkpt><trkpt lat="44.6171775376302" lon="1.9925261636058487"><ele>254.0</ele><time>2026-04-30T16:56:07Z</time></trkpt><trkpt lat="44.61729088287473" lon="1.992365091237776"><ele>254.0</ele><time>2026-04-30T16:56:08Z</time></trkpt><trkpt lat="44.61740067711037" lon="1.9922314948446154"><ele>254.0</ele><time>2026-04-30T16:56:09Z</time></trkpt><trkpt lat="44.61750379516722" lon="1.992122204485093"><ele>254.0</ele><time>2026-04-30T16:56:10Z</time></trkpt><trkpt lat="44.61760561860093" lon="1.9920260494906972"><ele>254.0</ele><time>2026-04-30T16:56:11Z</time></trkpt><trkpt lat="44.61772471549306" lon="1.9919474515110287"><ele>255.0</ele><time>2026-04-30T16:56:12Z</time></trkpt><trkpt lat="44.61787754036662" lon="1.9919148925151815"><ele>256.0</ele><time>2026-04-30T16:56:13Z</time></trkpt><trkpt lat="44.61804498037611" lon="1.9918408859840067"><ele>257.0</ele><time>2026-04-30T16:56:14Z</time></trkpt><trkpt lat="44.61821781793409" lon="1.991790468300117"><ele>257.0</ele><time>2026-04-30T16:56:15Z</time></trkpt><trkpt lat="44.61836838214478" lon="1.99175056524276"><ele>257.0</ele><time>2026-04-30T16:56:16Z</time></trkpt><trkpt lat="44.61851215327822" lon="1.9917073776174605"><ele>257.0</ele><time>2026-04-30T16:56:17Z</time></trkpt><trkpt lat="44.61864134051105" lon="1.9916687332240575"><ele>257.0</ele><time>2026-04-30T16:56:18Z</time></trkpt><trkpt lat="44.61875779282345" lon="1.991679060832512"><ele>255.6</ele><time>2026-04-30T16:56:19Z</time></trkpt><trkpt lat="44.61886275787374" lon="1.9916989464725454"><ele>254.2</ele><time>2026-04-30T16:56:20Z</time></trkpt><trkpt lat="44.61895095637135" lon="1.9917638807638278"><ele>252.8</ele><time>2026-04-30T16:56:21Z</time></trkpt><trkpt lat="44.619034079522706" lon="1.9918567339775706"><ele>251.4</ele><time>2026-04-30T16:56:22Z</time></trkpt><trkpt lat="44.61911515678641" lon="1.9920036088726498"><ele>250.0</ele><time>2026-04-30T16:56:23Z</time></trkpt><trkpt lat="44.61917986225783" lon="1.9921814223800651"><ele>250.0</ele><time>2026-04-30T16:56:24Z</time></trkpt><trkpt lat="44.61925302653153" lon="1.9923471017992016"><ele>250.0</ele><time>2026-04-30T16:56:25Z</time></trkpt><trkpt lat="44.61933336217103" lon="1.9924773342621045"><ele>250.0</ele><time>2026-04-30T16:56:26Z</time></trkpt><trkpt lat="44.61943628440496" lon="1.9925593301230533"><ele>250.0</ele><time>2026-04-30T16:56:27Z</time></trkpt><trkpt lat="44.6195286188317" lon="1.992607767465189"><ele>250.75</ele><time>2026-04-30T16:56:28Z</time></trkpt><trkpt lat="44.61964485826705" lon="1.9926296632871838"><ele>251.5</ele><time>2026-04-30T16:56:29Z</time></trkpt><trkpt lat="44.619783901519554" lon="1.9926065510856004"><ele>252.25</ele><time>2026-04-30T16:56:30Z</time></trkpt><trkpt lat="44.61992231061553" lon="1.9925422482328208"><ele>253.0</ele><time>2026-04-30T16:56:31Z</time></trkpt><trkpt lat="44.6200536869133" lon="1.9924621671887373"><ele>249.8</ele><time>2026-04-30T16:56:32Z</time></trkpt><trkpt lat="44.62015254151045" lon="1.9923984330029594"><ele>246.60000000000002</ele><time>2026-04-30T16:56:33Z</time></trkpt><trkpt lat="44.620230781326875" lon="1.9923649036214721"><ele>243.39999999999998</ele><time>2026-04-30T16:56:34Z</time></trkpt><trkpt lat="44.62029841507346" lon="1.9923394571849118"><ele>240.2</ele><time>2026-04-30T16:56:35Z</time></trkpt><trkpt lat="44.62039753263521" lon="1.992292439290882"><ele>237.0</ele><time>2026-04-30T16:56:37Z</time></trkpt><trkpt lat="44.62038385809216" lon="1.9921306220311068"><ele>237.0</ele><time>2026-04-30T16:56:39Z</time></trkpt><trkpt lat="44.62034606418905" lon="1.9920504322267"><ele>237.0</ele><time>2026-04-30T16:56:40Z</time></trkpt><trkpt lat="44.62027307191831" lon="1.991979640745101"><ele>237.0</ele><time>2026-04-30T16:56:41Z</time></trkpt><trkpt lat="44.62017735093465" lon="1.9919224110415819"><ele>237.0</ele><time>2026-04-30T16:56:42Z</time></trkpt><trkpt lat="44.620072269302625" lon="1.9918771676302867"><ele>237.0</ele><time>2026-04-30T16:56:43Z</time></trkpt><trkpt lat="44.61997532294197" lon="1.991843393361637"><ele>236.5</ele><time>2026-04-30T16:56:44Z</time></trkpt><trkpt lat="44.61988432344258" lon="1.9918098617744715"><ele>236.0</ele><time>2026-04-30T16:56:45Z</time></trkpt><trkpt lat="44.619795232081316" lon="1.991719447258425"><ele>235.5</ele><time>2026-04-30T16:56:46Z</time></trkpt><trkpt lat="44.61968007987569" lon="1.9916302760180684"><ele>235.0</ele><time>2026-04-30T16:56:47Z</time></trkpt><trkpt lat="44.6195881017951" lon="1.9915214649944464"><ele>235.8</ele><time>2026-04-30T16:56:48Z</time></trkpt><trkpt lat="44.61950152739414" lon="1.9914327634962885"><ele>236.6</ele><time>2026-04-30T16:56:49Z</time></trkpt><trkpt lat="44.61941903445388" lon="1.9913599439566507"><ele>237.39999999999998</ele><time>2026-04-30T16:56:50Z</time></trkpt><trkpt lat="44.61933629884349" lon="1.9912868160919226"><ele>238.2</ele><time>2026-04-30T16:56:51Z</time></trkpt><trkpt lat="44.61925075917358" lon="1.9912175722225454"><ele>239.0</ele><time>2026-04-30T16:56:52Z</time></trkpt><trkpt lat="44.61916868608283" lon="1.9911616091922406"><ele>239.0</ele><time>2026-04-30T16:56:53Z</time></trkpt><trkpt lat="44.61907591965432" lon="1.9911049639117302"><ele>239.0</ele><time>2026-04-30T16:56:54Z</time></trkpt><trkpt lat="44.61896348117986" lon="1.9910458184744309"><ele>239.0</ele><time>2026-04-30T16:56:55Z</time></trkpt><trkpt lat="44.618844704036455" lon="1.9909980743543725"><ele>239.0</ele><time>2026-04-30T16:56:56Z</time></trkpt><trkpt lat="44.61873059553657" lon="1.9909736153446886"><ele>240.2</ele><time>2026-04-30T16:56:57Z</time></trkpt><trkpt lat="44.618614331734484" lon="1.990964851175412"><ele>241.39999999999998</ele><time>2026-04-30T16:56:58Z</time></trkpt><trkpt lat="44.618503467792124" lon="1.9909622654539365"><ele>242.6</ele><time>2026-04-30T16:56:59Z</time></trkpt><trkpt lat="44.618397698506" lon="1.9909297544636102"><ele>243.8</ele><time>2026-04-30T16:57:00Z</time></trkpt><trkpt lat="44.61829206709127" lon="1.9909203533281339"><ele>245.0</ele><time>2026-04-30T16:57:01Z</time></trkpt><trkpt lat="44.61818918612022" lon="1.9909133031645079"><ele>245.0</ele><time>2026-04-30T16:57:02Z</time></trkpt><trkpt lat="44.618093740235395" lon="1.9909044354893204"><ele>245.0</ele><time>2026-04-30T16:57:03Z</time></trkpt><trkpt lat="44.617985908150764" lon="1.9908735967712126"><ele>245.0</ele><time>2026-04-30T16:57:04Z</time></trkpt><trkpt lat="44.617871498048096" lon="1.9908170778929568"><ele>245.0</ele><time>2026-04-30T16:57:05Z</time></trkpt><trkpt lat="44.61776577988715" lon="1.9907531451363003"><ele>245.0</ele><time>2026-04-30T16:57:06Z</time></trkpt><trkpt lat="44.61766084382041" lon="1.9907087228359737"><ele>241.8</ele><time>2026-04-30T16:57:07Z</time></trkpt><trkpt lat="44.61756018013744" lon="1.990652476670978"><ele>238.6</ele><time>2026-04-30T16:57:08Z</time></trkpt><trkpt lat="44.61745742014151" lon="1.9906157502908708"><ele>235.39999999999998</ele><time>2026-04-30T16:57:09Z</time></trkpt><trkpt lat="44.61735701379835" lon="1.990578573558741"><ele>232.2</ele><time>2026-04-30T16:57:10Z</time></trkpt><trkpt lat="44.617256930398305" lon="1.990560057319517"><ele>229.0</ele><time>2026-04-30T16:57:11Z</time></trkpt><trkpt lat="44.61715517760116" lon="1.9905378599048065"><ele>229.0</ele><time>2026-04-30T16:57:12Z</time></trkpt><trkpt lat="44.617057064010694" lon="1.9904918914695977"><ele>229.0</ele><time>2026-04-30T16:57:13Z</time></trkpt><trkpt lat="44.616935592217295" lon="1.990451533422734"><ele>229.0</ele><time>2026-04-30T16:57:14Z</time></trkpt><trkpt lat="44.61684058412932" lon="1.990355592222535"><ele>229.0</ele><time>2026-04-30T16:57:15Z</time></trkpt><trkpt lat="44.61674914657076" lon="1.9902745197120826"><ele>228.25</ele><time>2026-04-30T16:57:16Z</time></trkpt><trkpt lat="44.61663860820641" lon="1.9902281257127725"><ele>227.5</ele><time>2026-04-30T16:57:17Z</time></trkpt><trkpt lat="44.61650734719136" lon="1.9902085329240093"><ele>226.75</ele><time>2026-04-30T16:57:18Z</time></trkpt><trkpt lat="44.61638920260411" lon="1.9902060015444"><ele>226.0</ele><time>2026-04-30T16:57:19Z</time></trkpt><trkpt lat="44.616278581740204" lon="1.9902039015525554"><ele>226.0</ele><time>2026-04-30T16:57:20Z</time></trkpt><trkpt lat="44.61617473491423" lon="1.9902075995324533"><ele>226.00000000000003</ele><time>2026-04-30T16:57:21Z</time></trkpt><trkpt lat="44.616074200965244" lon="1.990194893377043"><ele>226.00000000000003</ele><time>2026-04-30T16:57:22Z</time></trkpt><trkpt lat="44.61598020203094" lon="1.990220139243847"><ele>226.0</ele><time>2026-04-30T16:57:23Z</time></trkpt><trkpt lat="44.61589091715953" lon="1.990257451153659"><ele>226.0</ele><time>2026-04-30T16:57:24Z</time></trkpt><trkpt lat="44.615818976529596" lon="1.9902858314137113"><ele>224.60000000000002</ele><time>2026-04-30T16:57:25Z</time></trkpt><trkpt lat="44.61574259904376" lon="1.990315961966178"><ele>223.20000000000002</ele><time>2026-04-30T16:57:27Z</time></trkpt><trkpt lat="44.61568005959117" lon="1.9903450765480952"><ele>221.79999999999998</ele><time>2026-04-30T16:57:30Z</time></trkpt><trkpt lat="44.615566375082565" lon="1.990398411201861"><ele>220.39999999999998</ele><time>2026-04-30T16:57:44Z</time></trkpt><trkpt lat="44.61547062001692" lon="1.990415922209222"><ele>219.0</ele><time>2026-04-30T16:57:45Z</time></trkpt><trkpt lat="44.61534907425192" lon="1.9904440974250717"><ele>218.2</ele><time>2026-04-30T16:57:46Z</time></trkpt><trkpt lat="44.615221168988434" lon="1.9904702406349728"><ele>217.39999999999998</ele><time>2026-04-30T16:57:47Z</time></trkpt><trkpt lat="44.61511038220343" lon="1.99048883066302"><ele>216.6</ele><time>2026-04-30T16:57:48Z</time></trkpt><trkpt lat="44.61501214514152" lon="1.9905002502674156"><ele>215.8</ele><time>2026-04-30T16:57:49Z</time></trkpt><trkpt lat="44.61492597623066" lon="1.9904990583791184"><ele>215.0</ele><time>2026-04-30T16:57:50Z</time></trkpt><trkpt lat="44.614852031559195" lon="1.9904979815700035"><ele>215.0</ele><time>2026-04-30T16:57:51Z</time></trkpt><trkpt lat="44.614793716628945" lon="1.9904179921537588"><ele>215.0</ele><time>2026-04-30T16:57:52Z</time></trkpt><trkpt lat="44.614754743723424" lon="1.9903026817568117"><ele>215.0</ele><time>2026-04-30T16:57:53Z</time></trkpt><trkpt lat="44.61474401731562" lon="1.9901372746936206"><ele>215.0</ele><time>2026-04-30T16:57:54Z</time></trkpt><trkpt lat="44.61473569850208" lon="1.989914053721147"><ele>213.66666666666669</ele><time>2026-04-30T16:57:55Z</time></trkpt><trkpt lat="44.61472027388358" lon="1.9896495231744373"><ele>212.33333333333331</ele><time>2026-04-30T16:57:56Z</time></trkpt><trkpt lat="44.6147053574772" lon="1.989394257262245"><ele>211.0</ele><time>2026-04-30T16:57:57Z</time></trkpt><trkpt lat="44.614714204384406" lon="1.9891479208828977"><ele>210.33333333333331</ele><time>2026-04-30T16:57:58Z</time></trkpt><trkpt lat="44.614737208418944" lon="1.9889031884707264"><ele>209.66666666666669</ele><time>2026-04-30T16:57:59Z</time></trkpt><trkpt lat="44.61475973739696" lon="1.9886305181973518"><ele>209.0</ele><time>2026-04-30T16:58:00Z</time></trkpt><trkpt lat="44.614771872097236" lon="1.988384091352978"><ele>207.66666666666669</ele><time>2026-04-30T16:58:01Z</time></trkpt><trkpt lat="44.614775528597434" lon="1.9881586840595797"><ele>206.33333333333331</ele><time>2026-04-30T16:58:02Z</time></trkpt><trkpt lat="44.61477358904367" lon="1.9879417546294427"><ele>205.0</ele><time>2026-04-30T16:58:03Z</time></trkpt><trkpt lat="44.61476378818227" lon="1.987733032180436"><ele>205.0</ele><time>2026-04-30T16:58:04Z</time></trkpt><trkpt lat="44.61475059328568" lon="1.9875241799080552"><ele>205.0</ele><time>2026-04-30T16:58:05Z</time></trkpt><trkpt lat="44.61474045477827" lon="1.9873221676453725"><ele>205.0</ele><time>2026-04-30T16:58:06Z</time></trkpt><trkpt lat="44.614734115854475" lon="1.987126293709901"><ele>205.0</ele><time>2026-04-30T16:58:07Z</time></trkpt><trkpt lat="44.61473392469545" lon="1.9869356317522051"><ele>203.8</ele><time>2026-04-30T16:58:08Z</time></trkpt><trkpt lat="44.614738136635765" lon="1.9867649853540832"><ele>202.6</ele><time>2026-04-30T16:58:09Z</time></trkpt><trkpt lat="44.6147411930813" lon="1.9866166770849836"><ele>201.39999999999998</ele><time>2026-04-30T16:58:10Z</time></trkpt><trkpt lat="44.61474534937652" lon="1.9864816939900738"><ele>200.2</ele><time>2026-04-30T16:58:11Z</time></trkpt><trkpt lat="44.614744417441145" lon="1.986370621737507"><ele>199.0</ele><time>2026-04-30T16:58:12Z</time></trkpt><trkpt lat="44.614742816400486" lon="1.9862742752486402"><ele>198.79999999999998</ele><time>2026-04-30T16:58:13Z</time></trkpt><trkpt lat="44.614726633766445" lon="1.9861259783576604"><ele>198.6</ele><time>2026-04-30T16:58:15Z</time></trkpt><trkpt lat="44.6147745207059" lon="1.986037659887756"><ele>198.4</ele><time>2026-04-30T16:58:18Z</time></trkpt><trkpt lat="44.61487883353705" lon="1.9860538954235267"><ele>198.2</ele><time>2026-04-30T16:58:20Z</time></trkpt><trkpt lat="44.61494911916795" lon="1.9861112335055735"><ele>198.0</ele><time>2026-04-30T16:58:22Z</time></trkpt><trkpt lat="44.61503684854585" lon="1.986154869634903"><ele>198.0</ele><time>2026-04-30T16:58:25Z</time></trkpt><trkpt lat="44.61512945892541" lon="1.9862091872828935"><ele>198.0</ele><time>2026-04-30T16:58:27Z</time></trkpt><trkpt lat="44.615215931531786" lon="1.986259292984006"><ele>198.0</ele><time>2026-04-30T16:58:29Z</time></trkpt><trkpt lat="44.615291919799596" lon="1.9863075670542234"><ele>198.0</ele><time>2026-04-30T16:58:31Z</time></trkpt><trkpt lat="44.61538720779236" lon="1.986351771782494"><ele>198.0</ele><time>2026-04-30T16:58:33Z</time></trkpt><trkpt lat="44.61545876564836" lon="1.986369905519731"><ele>198.2</ele><time>2026-04-30T16:58:34Z</time></trkpt><trkpt lat="44.61553209771853" lon="1.9863933002415664"><ele>198.4</ele><time>2026-04-30T16:58:35Z</time></trkpt><trkpt lat="44.615599547111906" lon="1.986410213024435"><ele>198.6</ele><time>2026-04-30T16:58:36Z</time></trkpt><trkpt lat="44.61570921405732" lon="1.9864370153200235"><ele>198.79999999999998</ele><time>2026-04-30T16:58:38Z</time></trkpt><trkpt lat="44.615821136152114" lon="1.9864172770455504"><ele>199.0</ele><time>2026-04-30T16:58:40Z</time></trkpt><trkpt lat="44.6159263297306" lon="1.986409413062245"><ele>199.0</ele><time>2026-04-30T16:58:42Z</time></trkpt><trkpt lat="44.616051401401776" lon="1.986457077435576"><ele>199.0</ele><time>2026-04-30T16:58:44Z</time></trkpt><trkpt lat="44.616121652671886" lon="1.986491783117599"><ele>199.0</ele><time>2026-04-30T16:58:45Z</time></trkpt><trkpt lat="44.61619217562415" lon="1.9865197578383096"><ele>199.0</ele><time>2026-04-30T16:58:46Z</time></trkpt><trkpt lat="44.6162959603939" lon="1.986563602031291"><ele>199.0</ele><time>2026-04-30T16:58:48Z</time></trkpt><trkpt lat="44.616380594559665" lon="1.9865990666051283"><ele>198.99999999999997</ele><time>2026-04-30T16:58:50Z</time></trkpt><trkpt lat="44.61644197564602" lon="1.986635315383223"><ele>199.0</ele><time>2026-04-30T16:58:51Z</time></trkpt><trkpt lat="44.616505903605756" lon="1.9866792613349258"><ele>199.0</ele><time>2026-04-30T16:58:52Z</time></trkpt><trkpt lat="44.61657239506179" lon="1.9867379151510227"><ele>199.0</ele><time>2026-04-30T16:58:53Z</time></trkpt><trkpt lat="44.61664110208496" lon="1.9868013367859356"><ele>199.0</ele><time>2026-04-30T16:58:54Z</time></trkpt><trkpt lat="44.61671048345904" lon="1.9868529164664217"><ele>198.99999999999997</ele><time>2026-04-30T16:58:55Z</time></trkpt><trkpt lat="44.616774979804866" lon="1.9868932120165146"><ele>199.0</ele><time>2026-04-30T16:58:56Z</time></trkpt><trkpt lat="44.6168520222323" lon="1.9869306783308647"><ele>198.99999999999997</ele><time>2026-04-30T16:58:57Z</time></trkpt><trkpt lat="44.616923420305895" lon="1.986982562487773"><ele>199.0</ele><time>2026-04-30T16:58:58Z</time></trkpt><trkpt lat="44.61699747587063" lon="1.987024492309992"><ele>199.0</ele><time>2026-04-30T16:58:59Z</time></trkpt><trkpt lat="44.61706547245523" lon="1.9870712734393228"><ele>199.0</ele><time>2026-04-30T16:59:00Z</time></trkpt><trkpt lat="44.617123272250886" lon="1.9871089060422806"><ele>199.0</ele><time>2026-04-30T16:59:01Z</time></trkpt><trkpt lat="44.61719049579717" lon="1.987140780056532"><ele>198.99999999999997</ele><time>2026-04-30T16:59:02Z</time></trkpt><trkpt lat="44.61726648419282" lon="1.9871687654045553"><ele>199.0</ele><time>2026-04-30T16:59:03Z</time></trkpt><trkpt lat="44.61734766476605" lon="1.9871786149582613"><ele>198.99999999999997</ele><time>2026-04-30T16:59:04Z</time></trkpt><trkpt lat="44.617431400832" lon="1.98717151644649"><ele>199.0</ele><time>2026-04-30T16:59:05Z</time></trkpt><trkpt lat="44.61750292467937" lon="1.9871662112318977"><ele>199.0</ele><time>2026-04-30T16:59:06Z</time></trkpt><trkpt lat="44.61757020336077" lon="1.9871675363214873"><ele>199.0</ele><time>2026-04-30T16:59:07Z</time></trkpt><trkpt lat="44.61764766021431" lon="1.9871752944398415"><ele>199.0</ele><time>2026-04-30T16:59:08Z</time></trkpt><trkpt lat="44.61771889159472" lon="1.987195372739696"><ele>198.99999999999997</ele><time>2026-04-30T16:59:09Z</time></trkpt><trkpt lat="44.61778919176152" lon="1.9872207179204562"><ele>199.0</ele><time>2026-04-30T16:59:10Z</time></trkpt><trkpt lat="44.61786907876393" lon="1.9872403064159028"><ele>198.49999999999997</ele><time>2026-04-30T16:59:11Z</time></trkpt><trkpt lat="44.6179584867659" lon="1.9872529885323227"><ele>198.0</ele><time>2026-04-30T16:59:12Z</time></trkpt><trkpt lat="44.618042829919716" lon="1.9872497183154612"><ele>197.5</ele><time>2026-04-30T16:59:13Z</time></trkpt><trkpt lat="44.618119426155125" lon="1.9872242789818022"><ele>197.0</ele><time>2026-04-30T16:59:14Z</time></trkpt><trkpt lat="44.61819695831732" lon="1.9871929969728184"><ele>196.49999999999997</ele><time>2026-04-30T16:59:15Z</time></trkpt><trkpt lat="44.61828367015488" lon="1.9871581304140733"><ele>196.0</ele><time>2026-04-30T16:59:16Z</time></trkpt><trkpt lat="44.618357873289185" lon="1.9871485226607306"><ele>195.99999999999997</ele><time>2026-04-30T16:59:17Z</time></trkpt><trkpt lat="44.61843382669778" lon="1.9871520552867432"><ele>196.0</ele><time>2026-04-30T16:59:18Z</time></trkpt><trkpt lat="44.618513505477026" lon="1.9871647183104615"><ele>196.0</ele><time>2026-04-30T16:59:19Z</time></trkpt><trkpt lat="44.61860555399739" lon="1.9871823708674414"><ele>196.0</ele><time>2026-04-30T16:59:20Z</time></trkpt><trkpt lat="44.61868601943426" lon="1.987199845435231"><ele>195.99999999999997</ele><time>2026-04-30T16:59:21Z</time></trkpt><trkpt lat="44.6187536353375" lon="1.9872179107355865"><ele>196.0</ele><time>2026-04-30T16:59:22Z</time></trkpt><trkpt lat="44.618832934946504" lon="1.9872442725249215"><ele>196.16666666666666</ele><time>2026-04-30T16:59:23Z</time></trkpt><trkpt lat="44.61891375503482" lon="1.9872627060295458"><ele>196.33333333333331</ele><time>2026-04-30T16:59:24Z</time></trkpt><trkpt lat="44.618985799749495" lon="1.9872951702582293"><ele>196.5</ele><time>2026-04-30T16:59:25Z</time></trkpt><trkpt lat="44.61906923291083" lon="1.987337434064504"><ele>196.66666666666669</ele><time>2026-04-30T16:59:26Z</time></trkpt><trkpt lat="44.61915067959609" lon="1.9873921982456344"><ele>196.83333333333334</ele><time>2026-04-30T16:59:27Z</time></trkpt><trkpt lat="44.61923485809118" lon="1.9874567161875087"><ele>197.0</ele><time>2026-04-30T16:59:28Z</time></trkpt><trkpt lat="44.61932828999273" lon="1.987517137452109"><ele>197.83333333333334</ele><time>2026-04-30T16:59:29Z</time></trkpt><trkpt lat="44.619405438834605" lon="1.9875628605623004"><ele>198.66666666666669</ele><time>2026-04-30T16:59:30Z</time></trkpt><trkpt lat="44.61947594747801" lon="1.987595709025437"><ele>199.5</ele><time>2026-04-30T16:59:31Z</time></trkpt><trkpt lat="44.619554045610826" lon="1.9876186543778958"><ele>200.33333333333331</ele><time>2026-04-30T16:59:32Z</time></trkpt><trkpt lat="44.61964076552949" lon="1.987638967237618"><ele>201.16666666666666</ele><time>2026-04-30T16:59:33Z</time></trkpt><trkpt lat="44.6197299573464" lon="1.9876392459068242"><ele>202.0</ele><time>2026-04-30T16:59:34Z</time></trkpt><trkpt lat="44.6198125693927" lon="1.987640921199262"><ele>201.99999999999997</ele><time>2026-04-30T16:59:35Z</time></trkpt><trkpt lat="44.61989777451994" lon="1.9876559813210657"><ele>202.0</ele><time>2026-04-30T16:59:36Z</time></trkpt><trkpt lat="44.619982851558646" lon="1.9876769283960347"><ele>202.0</ele><time>2026-04-30T16:59:37Z</time></trkpt><trkpt lat="44.62006729414851" lon="1.9876898035010542"><ele>202.0</ele><time>2026-04-30T16:59:38Z</time></trkpt><trkpt lat="44.620145493079015" lon="1.987696371687597"><ele>201.99999999999997</ele><time>2026-04-30T16:59:39Z</time></trkpt><trkpt lat="44.62023362953116" lon="1.9877086528254022"><ele>202.0</ele><time>2026-04-30T16:59:40Z</time></trkpt><trkpt lat="44.62032031558478" lon="1.987711270960686"><ele>201.66666666666666</ele><time>2026-04-30T16:59:41Z</time></trkpt><trkpt lat="44.62040154573878" lon="1.9877204085703706"><ele>201.33333333333331</ele><time>2026-04-30T16:59:42Z</time></trkpt><trkpt lat="44.6204756871161" lon="1.9877227204687296"><ele>201.0</ele><time>2026-04-30T16:59:43Z</time></trkpt><trkpt lat="44.62055165492491" lon="1.987732352204011"><ele>200.66666666666669</ele><time>2026-04-30T16:59:44Z</time></trkpt><trkpt lat="44.62062809986259" lon="1.98774133593061"><ele>200.33333333333334</ele><time>2026-04-30T16:59:45Z</time></trkpt><trkpt lat="44.62069577826037" lon="1.9877482300503408"><ele>200.0</ele><time>2026-04-30T16:59:46Z</time></trkpt><trkpt lat="44.62077395436552" lon="1.9877515863094466"><ele>200.00000000000003</ele><time>2026-04-30T16:59:47Z</time></trkpt><trkpt lat="44.62085085386473" lon="1.9877425085628766"><ele>200.0</ele><time>2026-04-30T16:59:48Z</time></trkpt><trkpt lat="44.62092758683888" lon="1.9877319602037697"><ele>200.0</ele><time>2026-04-30T16:59:49Z</time></trkpt><trkpt lat="44.62101146683088" lon="1.987736669872832"><ele>200.0</ele><time>2026-04-30T16:59:50Z</time></trkpt><trkpt lat="44.62109193435066" lon="1.987748681244243"><ele>200.00000000000003</ele><time>2026-04-30T16:59:51Z</time></trkpt><trkpt lat="44.62116590851754" lon="1.987754316799613"><ele>200.0</ele><time>2026-04-30T16:59:52Z</time></trkpt><trkpt lat="44.62124131714963" lon="1.9877208498020003"><ele>199.8</ele><time>2026-04-30T16:59:53Z</time></trkpt><trkpt lat="44.621323948734464" lon="1.9876958564231808"><ele>199.6</ele><time>2026-04-30T16:59:54Z</time></trkpt><trkpt lat="44.62143020918872" lon="1.9877007159595899"><ele>199.39999999999998</ele><time>2026-04-30T16:59:55Z</time></trkpt><trkpt lat="44.62154439541199" lon="1.9877347707009732"><ele>199.2</ele><time>2026-04-30T16:59:56Z</time></trkpt><trkpt lat="44.62167343496258" lon="1.9877503462542292"><ele>199.0</ele><time>2026-04-30T16:59:57Z</time></trkpt><trkpt lat="44.62182124480276" lon="1.9877489723051283"><ele>199.0</ele><time>2026-04-30T16:59:58Z</time></trkpt><trkpt lat="44.62195647604961" lon="1.9877642359250969"><ele>199.0</ele><time>2026-04-30T16:59:59Z</time></trkpt><trkpt lat="44.62207608433245" lon="1.9877730143533954"><ele>199.0</ele><time>2026-04-30T17:00:00Z</time></trkpt><trkpt lat="44.622185583493845" lon="1.9877802825443887"><ele>199.0</ele><time>2026-04-30T17:00:01Z</time></trkpt><trkpt lat="44.62231190625631" lon="1.9878033276076073"><ele>198.5</ele><time>2026-04-30T17:00:02Z</time></trkpt><trkpt lat="44.622427338658966" lon="1.987830827590783"><ele>198.0</ele><time>2026-04-30T17:00:03Z</time></trkpt><trkpt lat="44.62253446629714" lon="1.9878695910105906"><ele>197.5</ele><time>2026-04-30T17:00:04Z</time></trkpt><trkpt lat="44.62265262571183" lon="1.9879345309942613"><ele>197.0</ele><time>2026-04-30T17:00:05Z</time></trkpt><trkpt lat="44.62277440950295" lon="1.9880001345688558"><ele>196.75</ele><time>2026-04-30T17:00:06Z</time></trkpt><trkpt lat="44.622904424649676" lon="1.9880626066523548"><ele>196.5</ele><time>2026-04-30T17:00:07Z</time></trkpt><trkpt lat="44.62304950547272" lon="1.9881181145029656"><ele>196.25</ele><time>2026-04-30T17:00:08Z</time></trkpt><trkpt lat="44.623179283039875" lon="1.9881588485129837"><ele>196.0</ele><time>2026-04-30T17:00:09Z</time></trkpt><trkpt lat="44.62328667463791" lon="1.9881999931618997"><ele>196.0</ele><time>2026-04-30T17:00:10Z</time></trkpt><trkpt lat="44.62337944692459" lon="1.9882360370180168"><ele>196.0</ele><time>2026-04-30T17:00:11Z</time></trkpt><trkpt lat="44.62345153095611" lon="1.9883024030500722"><ele>196.0</ele><time>2026-04-30T17:00:12Z</time></trkpt><trkpt lat="44.62351974257464" lon="1.9884158796334264"><ele>196.0</ele><time>2026-04-30T17:00:13Z</time></trkpt><trkpt lat="44.62357932364673" lon="1.988526764742517"><ele>196.0</ele><time>2026-04-30T17:00:14Z</time></trkpt><trkpt lat="44.623640152167596" lon="1.9886147167255055"><ele>196.20000000000002</ele><time>2026-04-30T17:00:15Z</time></trkpt><trkpt lat="44.62370985543276" lon="1.9887050695836372"><ele>196.4</ele><time>2026-04-30T17:00:16Z</time></trkpt><trkpt lat="44.623800254013574" lon="1.9887858890996382"><ele>196.6</ele><time>2026-04-30T17:00:17Z</time></trkpt><trkpt lat="44.62389556005969" lon="1.9888581579820734"><ele>196.8</ele><time>2026-04-30T17:00:18Z</time></trkpt><trkpt lat="44.62398227315867" lon="1.9889059712123012"><ele>197.0</ele><time>2026-04-30T17:00:19Z</time></trkpt><trkpt lat="44.62407724825463" lon="1.9889679945375265"><ele>197.0</ele><time>2026-04-30T17:00:20Z</time></trkpt><trkpt lat="44.62417676181771" lon="1.989046306515044"><ele>197.0</ele><time>2026-04-30T17:00:21Z</time></trkpt><trkpt lat="44.6242800197666" lon="1.9891473015256003"><ele>197.0</ele><time>2026-04-30T17:00:22Z</time></trkpt><trkpt lat="44.624366733318375" lon="1.9892347333270242"><ele>197.0</ele><time>2026-04-30T17:00:23Z</time></trkpt><trkpt lat="44.62445983047618" lon="1.9893032059264937"><ele>197.75</ele><time>2026-04-30T17:00:24Z</time></trkpt><trkpt lat="44.624575914138745" lon="1.9893745761230708"><ele>198.5</ele><time>2026-04-30T17:00:25Z</time></trkpt><trkpt lat="44.62469367635498" lon="1.9894584318824549"><ele>199.25</ele><time>2026-04-30T17:00:26Z</time></trkpt><trkpt lat="44.62479163593964" lon="1.9895352934349315"><ele>200.0</ele><time>2026-04-30T17:00:27Z</time></trkpt><trkpt lat="44.624875048744585" lon="1.9896014061611016"><ele>200.0</ele><time>2026-04-30T17:00:28Z</time></trkpt><trkpt lat="44.6249613756471" lon="1.989661174219351"><ele>200.0</ele><time>2026-04-30T17:00:29Z</time></trkpt><trkpt lat="44.625068640660864" lon="1.9897147972088183"><ele>200.0</ele><time>2026-04-30T17:00:30Z</time></trkpt><trkpt lat="44.625188117327724" lon="1.98975369907357"><ele>200.0</ele><time>2026-04-30T17:00:31Z</time></trkpt><trkpt lat="44.62528585930105" lon="1.9897769857270624"><ele>200.0</ele><time>2026-04-30T17:00:32Z</time></trkpt><trkpt lat="44.62535820863038" lon="1.9897915132557997"><ele>200.00000000000003</ele><time>2026-04-30T17:00:33Z</time></trkpt><trkpt lat="44.62543460019874" lon="1.9898075360572476"><ele>200.0</ele><time>2026-04-30T17:00:34Z</time></trkpt><trkpt lat="44.625516419849234" lon="1.9898226375564696"><ele>200.0</ele><time>2026-04-30T17:00:35Z</time></trkpt><trkpt lat="44.625597390994315" lon="1.9898493798907486"><ele>200.0</ele><time>2026-04-30T17:00:36Z</time></trkpt><trkpt lat="44.62566823692815" lon="1.9898636438527575"><ele>200.00000000000003</ele><time>2026-04-30T17:00:37Z</time></trkpt><trkpt lat="44.625733334309515" lon="1.9898578580010744"><ele>200.0</ele><time>2026-04-30T17:00:38Z</time></trkpt><trkpt lat="44.62583713066635" lon="1.9898395709831607"><ele>200.0</ele><time>2026-04-30T17:00:40Z</time></trkpt><trkpt lat="44.625885888918944" lon="1.9899529827028015"><ele>200.0</ele><time>2026-04-30T17:00:42Z</time></trkpt><trkpt lat="44.62595205450279" lon="1.9899675725533656"><ele>200.0</ele><time>2026-04-30T17:00:50Z</time></trkpt><trkpt lat="44.6260395196442" lon="1.9900128163276494"><ele>200.0</ele><time>2026-04-30T17:00:51Z</time></trkpt><trkpt lat="44.62614750543215" lon="1.9900513834170679"><ele>200.0</ele><time>2026-04-30T17:00:52Z</time></trkpt><trkpt lat="44.62625884378836" lon="1.9900894349330025"><ele>201.0</ele><time>2026-04-30T17:00:53Z</time></trkpt><trkpt lat="44.6263517978366" lon="1.9901265723513226"><ele>202.0</ele><time>2026-04-30T17:00:54Z</time></trkpt><trkpt lat="44.62643683965333" lon="1.9901644804956506"><ele>203.0</ele><time>2026-04-30T17:00:55Z</time></trkpt><trkpt lat="44.626524720681616" lon="1.9902040530915648"><ele>204.0</ele><time>2026-04-30T17:00:56Z</time></trkpt><trkpt lat="44.626625881561466" lon="1.990285047394432"><ele>205.0</ele><time>2026-04-30T17:00:57Z</time></trkpt><trkpt lat="44.6267033747054" lon="1.9903966018675971"><ele>205.0</ele><time>2026-04-30T17:00:58Z</time></trkpt><trkpt lat="44.62685053208672" lon="1.9903529595609772"><ele>205.0</ele><time>2026-04-30T17:00:59Z</time></trkpt><trkpt lat="44.62694724948698" lon="1.990412114759462"><ele>205.0</ele><time>2026-04-30T17:01:00Z</time></trkpt><trkpt lat="44.62704900431097" lon="1.9904684516564752"><ele>205.0</ele><time>2026-04-30T17:01:01Z</time></trkpt><trkpt lat="44.627132007351655" lon="1.9905004085929676"><ele>205.2</ele><time>2026-04-30T17:01:02Z</time></trkpt><trkpt lat="44.6272193778131" lon="1.9905529087297158"><ele>205.4</ele><time>2026-04-30T17:01:03Z</time></trkpt><trkpt lat="44.62731280690767" lon="1.9906290673632032"><ele>205.60000000000002</ele><time>2026-04-30T17:01:04Z</time></trkpt><trkpt lat="44.62741170462233" lon="1.9907220941420154"><ele>205.8</ele><time>2026-04-30T17:01:05Z</time></trkpt><trkpt lat="44.62751525950513" lon="1.9907931925564168"><ele>206.0</ele><time>2026-04-30T17:01:06Z</time></trkpt><trkpt lat="44.62761185619088" lon="1.9908527365890412"><ele>206.4</ele><time>2026-04-30T17:01:07Z</time></trkpt><trkpt lat="44.62769618175019" lon="1.9909089205902377"><ele>206.8</ele><time>2026-04-30T17:01:08Z</time></trkpt><trkpt lat="44.62777631320707" lon="1.9909665967291257"><ele>207.20000000000002</ele><time>2026-04-30T17:01:09Z</time></trkpt><trkpt lat="44.62785494006221" lon="1.9910377075770245"><ele>207.60000000000002</ele><time>2026-04-30T17:01:10Z</time></trkpt><trkpt lat="44.62793846319106" lon="1.991141819981551"><ele>208.0</ele><time>2026-04-30T17:01:11Z</time></trkpt><trkpt lat="44.62802835943172" lon="1.9912539303146168"><ele>208.0</ele><time>2026-04-30T17:01:12Z</time></trkpt><trkpt lat="44.62811030852317" lon="1.991345453536935"><ele>208.0</ele><time>2026-04-30T17:01:13Z</time></trkpt><trkpt lat="44.628174646397824" lon="1.9914261343799946"><ele>208.0</ele><time>2026-04-30T17:01:14Z</time></trkpt><trkpt lat="44.62824830009946" lon="1.991498328142602"><ele>208.0</ele><time>2026-04-30T17:01:15Z</time></trkpt><trkpt lat="44.62833505836058" lon="1.9915531775773854"><ele>208.0</ele><time>2026-04-30T17:01:16Z</time></trkpt><trkpt lat="44.6284455061401" lon="1.9916077916919022"><ele>207.0</ele><time>2026-04-30T17:01:17Z</time></trkpt><trkpt lat="44.62855253550426" lon="1.9916768214322973"><ele>206.0</ele><time>2026-04-30T17:01:18Z</time></trkpt><trkpt lat="44.62863552812767" lon="1.991736862377048"><ele>205.0</ele><time>2026-04-30T17:01:19Z</time></trkpt><trkpt lat="44.628711656577856" lon="1.9917849000267582"><ele>204.0</ele><time>2026-04-30T17:01:20Z</time></trkpt><trkpt lat="44.62877633016327" lon="1.9918382755484352"><ele>203.0</ele><time>2026-04-30T17:01:21Z</time></trkpt><trkpt lat="44.628841604855545" lon="1.9919309381113406"><ele>203.0</ele><time>2026-04-30T17:01:22Z</time></trkpt><trkpt lat="44.62888467935809" lon="1.9920480740333122"><ele>203.0</ele><time>2026-04-30T17:01:23Z</time></trkpt><trkpt lat="44.62893128311856" lon="1.9921473048537024"><ele>203.0</ele><time>2026-04-30T17:01:24Z</time></trkpt><trkpt lat="44.629003318335336" lon="1.9922283949975192"><ele>203.0</ele><time>2026-04-30T17:01:25Z</time></trkpt><trkpt lat="44.62909184492388" lon="1.9923068518590736"><ele>203.0</ele><time>2026-04-30T17:01:26Z</time></trkpt><trkpt lat="44.629180930024766" lon="1.992369863047862"><ele>203.00000000000003</ele><time>2026-04-30T17:01:27Z</time></trkpt><trkpt lat="44.629259884928665" lon="1.992433692189149"><ele>203.0</ele><time>2026-04-30T17:01:28Z</time></trkpt><trkpt lat="44.62933007409589" lon="1.9924948010909154"><ele>203.0</ele><time>2026-04-30T17:01:29Z</time></trkpt><trkpt lat="44.62939247746727" lon="1.9925557042450897"><ele>203.0</ele><time>2026-04-30T17:01:30Z</time></trkpt><trkpt lat="44.62944905038417" lon="1.9926154174676995"><ele>203.00000000000003</ele><time>2026-04-30T17:01:31Z</time></trkpt><trkpt lat="44.62950695448711" lon="1.99268558123929"><ele>203.0</ele><time>2026-04-30T17:01:32Z</time></trkpt><trkpt lat="44.629560873285044" lon="1.992766616825688"><ele>202.8</ele><time>2026-04-30T17:01:33Z</time></trkpt><trkpt lat="44.6296196055695" lon="1.992884136222908"><ele>202.60000000000002</ele><time>2026-04-30T17:01:34Z</time></trkpt><trkpt lat="44.62967124323675" lon="1.992994000886144"><ele>202.39999999999998</ele><time>2026-04-30T17:01:35Z</time></trkpt><trkpt lat="44.629715385078164" lon="1.9931074922118968"><ele>202.2</ele><time>2026-04-30T17:01:36Z</time></trkpt><trkpt lat="44.62975781442188" lon="1.9932180954107737"><ele>202.0</ele><time>2026-04-30T17:01:37Z</time></trkpt><trkpt lat="44.629802292670696" lon="1.993303628015131"><ele>201.99999999999997</ele><time>2026-04-30T17:01:38Z</time></trkpt><trkpt lat="44.62984182825182" lon="1.993375172110261"><ele>202.0</ele><time>2026-04-30T17:01:39Z</time></trkpt><trkpt lat="44.62994575238197" lon="1.9934125753087684"><ele>202.0</ele><time>2026-04-30T17:01:41.001Z</time></trkpt><trkpt lat="44.630009458370395" lon="1.993391188567167"><ele>202.0</ele><time>2026-04-30T17:01:42.001Z</time></trkpt><trkpt lat="44.6300681965874" lon="1.993341057057919"><ele>201.99999999999997</ele><time>2026-04-30T17:01:43.001Z</time></trkpt><trkpt lat="44.630167684624006" lon="1.993312319146164"><ele>202.0</ele><time>2026-04-30T17:01:45.001Z</time></trkpt><trkpt lat="44.63023229849264" lon="1.9933661253538149"><ele>201.75</ele><time>2026-04-30T17:01:46.001Z</time></trkpt><trkpt lat="44.63031306875865" lon="1.9934621774921193"><ele>201.5</ele><time>2026-04-30T17:01:47.001Z</time></trkpt><trkpt lat="44.63041125044538" lon="1.9935663994770303"><ele>201.25</ele><time>2026-04-30T17:01:48.001Z</time></trkpt><trkpt lat="44.63052864738385" lon="1.9936751768286378"><ele>201.0</ele><time>2026-04-30T17:01:49.001Z</time></trkpt><trkpt lat="44.630631430659335" lon="1.9937523987705548"><ele>201.0</ele><time>2026-04-30T17:01:50.001Z</time></trkpt><trkpt lat="44.63073240578001" lon="1.9938237796494869"><ele>201.0</ele><time>2026-04-30T17:01:51Z</time></trkpt><trkpt lat="44.630825842615316" lon="1.993894809870899"><ele>201.0</ele><time>2026-04-30T17:01:52Z</time></trkpt><trkpt lat="44.63090405194021" lon="1.9939543024447182"><ele>201.0</ele><time>2026-04-30T17:01:53.001Z</time></trkpt><trkpt lat="44.63098683708818" lon="1.9940072139720906"><ele>201.0</ele><time>2026-04-30T17:01:54Z</time></trkpt><trkpt lat="44.63107707342592" lon="1.994049420892624"><ele>201.0</ele><time>2026-04-30T17:01:55Z</time></trkpt><trkpt lat="44.63116197666921" lon="1.9941112969855996"><ele>201.0</ele><time>2026-04-30T17:01:56Z</time></trkpt><trkpt lat="44.63124952487716" lon="1.99420042669685"><ele>201.0</ele><time>2026-04-30T17:01:57Z</time></trkpt><trkpt lat="44.6313202401256" lon="1.9942965754990085"><ele>201.0</ele><time>2026-04-30T17:01:58Z</time></trkpt><trkpt lat="44.63138117411535" lon="1.9943708975500447"><ele>201.0</ele><time>2026-04-30T17:01:59Z</time></trkpt><trkpt lat="44.63144692815431" lon="1.994438611962667"><ele>200.8</ele><time>2026-04-30T17:02:00Z</time></trkpt><trkpt lat="44.631529243754535" lon="1.9945045294206754"><ele>200.60000000000002</ele><time>2026-04-30T17:02:01Z</time></trkpt><trkpt lat="44.63162267357247" lon="1.994557382964072"><ele>200.4</ele><time>2026-04-30T17:02:02Z</time></trkpt><trkpt lat="44.63169553421682" lon="1.994584560253595"><ele>200.2</ele><time>2026-04-30T17:02:03Z</time></trkpt><trkpt lat="44.631784113010454" lon="1.994631263806076"><ele>200.0</ele><time>2026-04-30T17:02:04Z</time></trkpt><trkpt lat="44.63187977061518" lon="1.9946725149063615"><ele>200.0</ele><time>2026-04-30T17:02:05Z</time></trkpt><trkpt lat="44.63198625666622" lon="1.9947072109948953"><ele>200.0</ele><time>2026-04-30T17:02:06Z</time></trkpt><trkpt lat="44.63208074129563" lon="1.9947341524475626"><ele>200.0</ele><time>2026-04-30T17:02:07Z</time></trkpt><trkpt lat="44.63216606393347" lon="1.994751214724069"><ele>200.0</ele><time>2026-04-30T17:02:08Z</time></trkpt><trkpt lat="44.632241497777215" lon="1.9947824861239543"><ele>200.0</ele><time>2026-04-30T17:02:09Z</time></trkpt><trkpt lat="44.632323989430006" lon="1.9948288652137525"><ele>200.0</ele><time>2026-04-30T17:02:10Z</time></trkpt><trkpt lat="44.632413659284445" lon="1.9948916795385438"><ele>200.0</ele><time>2026-04-30T17:02:11Z</time></trkpt><trkpt lat="44.63248623221121" lon="1.9949263499462173"><ele>200.0</ele><time>2026-04-30T17:02:12Z</time></trkpt><trkpt lat="44.63256009642192" lon="1.9949725852217053"><ele>200.0</ele><time>2026-04-30T17:02:13Z</time></trkpt><trkpt lat="44.63262329368748" lon="1.9950049866354755"><ele>200.0</ele><time>2026-04-30T17:02:14Z</time></trkpt><trkpt lat="44.632727105689234" lon="1.9951041235297597"><ele>200.4</ele><time>2026-04-30T17:02:16Z</time></trkpt><trkpt lat="44.63275118361126" lon="1.9952002429910853"><ele>200.8</ele><time>2026-04-30T17:02:17Z</time></trkpt><trkpt lat="44.63277225063264" lon="1.995344759309549"><ele>201.2</ele><time>2026-04-30T17:02:18Z</time></trkpt><trkpt lat="44.6328029711072" lon="1.9954711868403112"><ele>201.6</ele><time>2026-04-30T17:02:19Z</time></trkpt><trkpt lat="44.63286945233402" lon="1.9955932078055263"><ele>202.0</ele><time>2026-04-30T17:02:20Z</time></trkpt><trkpt lat="44.63294779990763" lon="1.995692949476125"><ele>202.0</ele><time>2026-04-30T17:02:21Z</time></trkpt><trkpt lat="44.633038231377526" lon="1.9958028370291598"><ele>202.0</ele><time>2026-04-30T17:02:22Z</time></trkpt><trkpt lat="44.63310828551956" lon="1.9959116254876026"><ele>202.0</ele><time>2026-04-30T17:02:23Z</time></trkpt><trkpt lat="44.633169494303374" lon="1.9960076185943665"><ele>202.0</ele><time>2026-04-30T17:02:24Z</time></trkpt><trkpt lat="44.63322190709921" lon="1.9961160531419704"><ele>202.0</ele><time>2026-04-30T17:02:25Z</time></trkpt><trkpt lat="44.6332664878326" lon="1.9962279415819013"><ele>203.0</ele><time>2026-04-30T17:02:26Z</time></trkpt><trkpt lat="44.63331269059794" lon="1.9963354246526628"><ele>204.0</ele><time>2026-04-30T17:02:27Z</time></trkpt><trkpt lat="44.633353333754314" lon="1.9964488320720724"><ele>205.0</ele><time>2026-04-30T17:02:28Z</time></trkpt><trkpt lat="44.63339543060785" lon="1.996548613911401"><ele>206.0</ele><time>2026-04-30T17:02:29Z</time></trkpt><trkpt lat="44.63343859311513" lon="1.996645799340269"><ele>207.0</ele><time>2026-04-30T17:02:30Z</time></trkpt><trkpt lat="44.63350002582162" lon="1.9967674743275456"><ele>209.6</ele><time>2026-04-30T17:02:31Z</time></trkpt><trkpt lat="44.6335762093168" lon="1.9968612531981884"><ele>212.2</ele><time>2026-04-30T17:02:32Z</time></trkpt><trkpt lat="44.63365103825392" lon="1.9969328448540908"><ele>214.8</ele><time>2026-04-30T17:02:33Z</time></trkpt><trkpt lat="44.63373308224489" lon="1.9970605398862424"><ele>217.4</ele><time>2026-04-30T17:02:35Z</time></trkpt><trkpt lat="44.63380119138243" lon="1.9971517721190164"><ele>220.0</ele><time>2026-04-30T17:02:37Z</time></trkpt><trkpt lat="44.633907638017064" lon="1.9971617229212606"><ele>220.83333333333331</ele><time>2026-04-30T17:02:39Z</time></trkpt><trkpt lat="44.63397934741493" lon="1.9971383429889817"><ele>221.66666666666666</ele><time>2026-04-30T17:02:40Z</time></trkpt><trkpt lat="44.63404770848384" lon="1.997138413486797"><ele>222.5</ele><time>2026-04-30T17:02:41Z</time></trkpt><trkpt lat="44.634149688842754" lon="1.997080365686133"><ele>223.33333333333331</ele><time>2026-04-30T17:02:43Z</time></trkpt><trkpt lat="44.63423779585975" lon="1.997015628247837"><ele>224.16666666666666</ele><time>2026-04-30T17:02:45Z</time></trkpt><trkpt lat="44.63431168867508" lon="1.9969433703803374"><ele>225.0</ele><time>2026-04-30T17:02:47Z</time></trkpt><trkpt lat="44.63438321702691" lon="1.9968491494124807"><ele>225.0</ele><time>2026-04-30T17:02:49Z</time></trkpt><trkpt lat="44.63443959050122" lon="1.9967865501586477"><ele>225.0</ele><time>2026-04-30T17:02:50Z</time></trkpt><trkpt lat="44.6346393974063" lon="1.9969835713677833"><ele>225.0</ele><time>2026-04-30T17:02:51Z</time></trkpt><trkpt lat="44.63473538188881" lon="1.9970058428132975"><ele>225.0</ele><time>2026-04-30T17:02:52Z</time></trkpt><trkpt lat="44.63480614511775" lon="1.9970026810623942"><ele>226.42857142857144</ele><time>2026-04-30T17:02:53Z</time></trkpt><trkpt lat="44.634872162308646" lon="1.9969856298637705"><ele>227.85714285714286</ele><time>2026-04-30T17:02:55Z</time></trkpt><trkpt lat="44.63494714337516" lon="1.997006443299392"><ele>229.28571428571428</ele><time>2026-04-30T17:02:57Z</time></trkpt><trkpt lat="44.635020944079805" lon="1.9970323404733672"><ele>230.71428571428572</ele><time>2026-04-30T17:02:59Z</time></trkpt><trkpt lat="44.635081424335596" lon="1.9970715108433887"><ele>232.1428571428571</ele><time>2026-04-30T17:03:01Z</time></trkpt><trkpt lat="44.63514231419756" lon="1.9971022289954918"><ele>233.57142857142856</ele><time>2026-04-30T17:03:03Z</time></trkpt><trkpt lat="44.635114503902116" lon="1.9972002945174059"><ele>235.0</ele><time>2026-04-30T17:03:07Z</time></trkpt><trkpt lat="44.63504231159108" lon="1.997272263067305"><ele>235.0</ele><time>2026-04-30T17:03:09Z</time></trkpt><trkpt lat="44.63496266596343" lon="1.997384702679614"><ele>235.0</ele><time>2026-04-30T17:03:11Z</time></trkpt><trkpt lat="44.63487312653288" lon="1.997467095418948"><ele>235.0</ele><time>2026-04-30T17:03:13Z</time></trkpt><trkpt lat="44.63481589748054" lon="1.9975315774025264"><ele>235.0</ele><time>2026-04-30T17:03:15Z</time></trkpt><trkpt lat="44.634749740325525" lon="1.9975946576988683"><ele>235.0</ele><time>2026-04-30T17:03:16Z</time></trkpt><trkpt lat="44.634657807090356" lon="1.9976634509561007"><ele>236.99999999999997</ele><time>2026-04-30T17:03:17Z</time></trkpt><trkpt lat="44.634589403734324" lon="1.997703496201845"><ele>239.0</ele><time>2026-04-30T17:03:18Z</time></trkpt><trkpt lat="44.63451512215466" lon="1.9977719786474688"><ele>241.0</ele><time>2026-04-30T17:03:20Z</time></trkpt><trkpt lat="44.63440175109885" lon="1.9978368116703815"><ele>243.0</ele><time>2026-04-30T17:03:22Z</time></trkpt><trkpt lat="44.634321836797156" lon="1.9978910828030927"><ele>244.99999999999997</ele><time>2026-04-30T17:03:23Z</time></trkpt><trkpt lat="44.63426379992936" lon="1.997926310706102"><ele>247.0</ele><time>2026-04-30T17:03:24Z</time></trkpt><trkpt lat="44.63417037122137" lon="1.9980028809786543"><ele>247.0</ele><time>2026-04-30T17:03:26Z</time></trkpt><trkpt lat="44.63409623938804" lon="1.9981047376541654"><ele>247.0</ele><time>2026-04-30T17:03:28Z</time></trkpt><trkpt lat="44.634045836902914" lon="1.9982741754903484"><ele>247.0</ele><time>2026-04-30T17:03:31Z</time></trkpt><trkpt lat="44.633998792671704" lon="1.998397517197148"><ele>247.0</ele><time>2026-04-30T17:03:33Z</time></trkpt><trkpt lat="44.63391194332599" lon="1.9985683410294655"><ele>248.99999999999997</ele><time>2026-04-30T17:03:35Z</time></trkpt><trkpt lat="44.633871410907936" lon="1.9986447098201439"><ele>251.0</ele><time>2026-04-30T17:03:36Z</time></trkpt><trkpt lat="44.633828215823925" lon="1.9987834369897741"><ele>253.0</ele><time>2026-04-30T17:03:38Z</time></trkpt><trkpt lat="44.63380156951856" lon="1.9989273641211527"><ele>255.0</ele><time>2026-04-30T17:03:40Z</time></trkpt><trkpt lat="44.63378845644821" lon="1.999037693940891"><ele>257.0</ele><time>2026-04-30T17:03:42Z</time></trkpt><trkpt lat="44.633811662159715" lon="1.9991461266740673"><ele>259.0</ele><time>2026-04-30T17:03:45Z</time></trkpt><trkpt lat="44.63389086793934" lon="1.9992062999429974"><ele>260.8</ele><time>2026-04-30T17:03:48.001Z</time></trkpt><trkpt lat="44.63394163840362" lon="1.9992653631027035"><ele>262.59999999999997</ele><time>2026-04-30T17:03:50.001Z</time></trkpt><trkpt lat="44.63399343366579" lon="1.9994028710557006"><ele>264.4</ele><time>2026-04-30T17:03:53.001Z</time></trkpt><trkpt lat="44.634053799066805" lon="1.999592005037827"><ele>266.2</ele><time>2026-04-30T17:03:56.001Z</time></trkpt><trkpt lat="44.634099402490854" lon="1.9996940282527285"><ele>268.0</ele><time>2026-04-30T17:03:57.001Z</time></trkpt><trkpt lat="44.63414137390449" lon="1.999788570207809"><ele>268.0</ele><time>2026-04-30T17:03:58.001Z</time></trkpt><trkpt lat="44.63418656172497" lon="1.9999201743597552"><ele>268.0</ele><time>2026-04-30T17:04:00Z</time></trkpt><trkpt lat="44.63422659752567" lon="1.9999904146701235"><ele>268.0</ele><time>2026-04-30T17:04:01Z</time></trkpt><trkpt lat="44.63425468893153" lon="2.0000708841750403"><ele>268.0</ele><time>2026-04-30T17:04:02Z</time></trkpt><trkpt lat="44.63431035063621" lon="2.0001707282891696"><ele>268.0</ele><time>2026-04-30T17:04:04Z</time></trkpt><trkpt lat="44.63438948336136" lon="2.000300228339516"><ele>268.0</ele><time>2026-04-30T17:04:06Z</time></trkpt><trkpt lat="44.63445909043928" lon="2.000382462140842"><ele>269.2</ele><time>2026-04-30T17:04:07Z</time></trkpt><trkpt lat="44.63452233798584" lon="2.0004589505653616"><ele>270.4</ele><time>2026-04-30T17:04:08Z</time></trkpt><trkpt lat="44.63461135743499" lon="2.0005370563191063"><ele>271.59999999999997</ele><time>2026-04-30T17:04:10Z</time></trkpt><trkpt lat="44.63470366901866" lon="2.0006907656798942"><ele>272.8</ele><time>2026-04-30T17:04:12Z</time></trkpt><trkpt lat="44.634739103790544" lon="2.0007765425308794"><ele>274.0</ele><time>2026-04-30T17:04:13Z</time></trkpt><trkpt lat="44.63476585233166" lon="2.0008641067926276"><ele>275.16666666666663</ele><time>2026-04-30T17:04:14Z</time></trkpt><trkpt lat="44.63478103894502" lon="2.0009536299509696"><ele>276.3333333333333</ele><time>2026-04-30T17:04:15Z</time></trkpt><trkpt lat="44.63479404792344" lon="2.001047876070989"><ele>277.5</ele><time>2026-04-30T17:04:16Z</time></trkpt><trkpt lat="44.63480792713476" lon="2.0011940828943233"><ele>278.6666666666667</ele><time>2026-04-30T17:04:18Z</time></trkpt><trkpt lat="44.63484014971586" lon="2.0013274934592653"><ele>279.83333333333337</ele><time>2026-04-30T17:04:20Z</time></trkpt><trkpt lat="44.63487581360214" lon="2.0014621740751366"><ele>281.0</ele><time>2026-04-30T17:04:22Z</time></trkpt><trkpt lat="44.634951933399" lon="2.0015408635252063"><ele>281.0</ele><time>2026-04-30T17:04:24Z</time></trkpt><trkpt lat="44.63502159439399" lon="2.001602300199986"><ele>281.0</ele><time>2026-04-30T17:04:26Z</time></trkpt><trkpt lat="44.635087228329475" lon="2.0016346901889643"><ele>281.0</ele><time>2026-04-30T17:04:28Z</time></trkpt><trkpt lat="44.635142499122296" lon="2.0017026110062295"><ele>281.0</ele><time>2026-04-30T17:04:30Z</time></trkpt><trkpt lat="44.635196666488554" lon="2.0018181035518325"><ele>281.0</ele><time>2026-04-30T17:04:32Z</time></trkpt><trkpt lat="44.63521715032983" lon="2.00193725745925"><ele>281.0</ele><time>2026-04-30T17:04:34Z</time></trkpt><trkpt lat="44.63521393113764" lon="2.0020702329072972"><ele>281.5</ele><time>2026-04-30T17:04:36Z</time></trkpt><trkpt lat="44.63519814963557" lon="2.002166461977907"><ele>282.0</ele><time>2026-04-30T17:04:38Z</time></trkpt><trkpt lat="44.63519616449797" lon="2.0022679484908052"><ele>282.5</ele><time>2026-04-30T17:04:40Z</time></trkpt><trkpt lat="44.63523505540492" lon="2.0023618988063228"><ele>283.0</ele><time>2026-04-30T17:04:42Z</time></trkpt><trkpt lat="44.6353184483957" lon="2.0024913120856103"><ele>283.5</ele><time>2026-04-30T17:04:44Z</time></trkpt><trkpt lat="44.6353793007222" lon="2.0025684151890846"><ele>284.0</ele><time>2026-04-30T17:04:45Z</time></trkpt><trkpt lat="44.635442784094266" lon="2.0026444594347192"><ele>285.2857142857143</ele><time>2026-04-30T17:04:46Z</time></trkpt><trkpt lat="44.63550148013019" lon="2.0027074240811316"><ele>286.57142857142856</ele><time>2026-04-30T17:04:47Z</time></trkpt><trkpt lat="44.63555436998198" lon="2.002756775345714"><ele>287.85714285714283</ele><time>2026-04-30T17:04:48Z</time></trkpt><trkpt lat="44.63561275098922" lon="2.002790069967405"><ele>289.1428571428571</ele><time>2026-04-30T17:04:50Z</time></trkpt><trkpt lat="44.63565825512925" lon="2.0026693230254042"><ele>290.42857142857144</ele><time>2026-04-30T17:04:59Z</time></trkpt><trkpt lat="44.63566231973097" lon="2.0025797128958502"><ele>291.71428571428567</ele><time>2026-04-30T17:05:00Z</time></trkpt><trkpt lat="44.635684887960835" lon="2.002496556084592"><ele>293.0</ele><time>2026-04-30T17:05:01Z</time></trkpt><trkpt lat="44.635744100933735" lon="2.002361837585281"><ele>293.0</ele><time>2026-04-30T17:05:03Z</time></trkpt><trkpt lat="44.635825907036505" lon="2.002227619874147"><ele>293.0</ele><time>2026-04-30T17:05:05Z</time></trkpt><trkpt lat="44.63588527163788" lon="2.002158905040578"><ele>293.0</ele><time>2026-04-30T17:05:06Z</time></trkpt><trkpt lat="44.635935819300066" lon="2.0020981286383543"><ele>293.0</ele><time>2026-04-30T17:05:07Z</time></trkpt><trkpt lat="44.636005028939266" lon="2.00203781733483"><ele>293.0</ele><time>2026-04-30T17:05:08Z</time></trkpt><trkpt lat="44.636076579599106" lon="2.001989456156069"><ele>293.0</ele><time>2026-04-30T17:05:09Z</time></trkpt><trkpt lat="44.63613231130975" lon="2.001935779580773"><ele>293.2</ele><time>2026-04-30T17:05:10Z</time></trkpt><trkpt lat="44.636209876757874" lon="2.0018356388604066"><ele>293.4</ele><time>2026-04-30T17:05:12Z</time></trkpt><trkpt lat="44.636280106095114" lon="2.0017532130270927"><ele>293.59999999999997</ele><time>2026-04-30T17:05:14Z</time></trkpt><trkpt lat="44.63638928989432" lon="2.0016845589271344"><ele>293.8</ele><time>2026-04-30T17:05:16Z</time></trkpt><trkpt lat="44.6364486632751" lon="2.0016535626939653"><ele>294.0</ele><time>2026-04-30T17:05:17Z</time></trkpt><trkpt lat="44.636534284045936" lon="2.0015951501750138"><ele>294.0</ele><time>2026-04-30T17:05:19Z</time></trkpt><trkpt lat="44.63662207552237" lon="2.0014799513150816"><ele>294.0</ele><time>2026-04-30T17:05:21Z</time></trkpt><trkpt lat="44.636683277840845" lon="2.001379262269027"><ele>294.0</ele><time>2026-04-30T17:05:23Z</time></trkpt><trkpt lat="44.63672815901799" lon="2.0012990935832917"><ele>294.0</ele><time>2026-04-30T17:05:25Z</time></trkpt><trkpt lat="44.636771699280715" lon="2.0012027002587565"><ele>294.0</ele><time>2026-04-30T17:05:27Z</time></trkpt><trkpt lat="44.636816039882845" lon="2.001094369458764"><ele>294.0</ele><time>2026-04-30T17:05:29Z</time></trkpt><trkpt lat="44.63685177096604" lon="2.001008889066142"><ele>294.0</ele><time>2026-04-30T17:05:31Z</time></trkpt><trkpt lat="44.63690127333421" lon="2.0009178025717707"><ele>294.0</ele><time>2026-04-30T17:05:33Z</time></trkpt><trkpt lat="44.6369692933344" lon="2.0008286005939158"><ele>294.0</ele><time>2026-04-30T17:05:35Z</time></trkpt><trkpt lat="44.63705796305849" lon="2.0007358189951154"><ele>294.0</ele><time>2026-04-30T17:05:37Z</time></trkpt><trkpt lat="44.63711864249356" lon="2.0006618499205504"><ele>294.0</ele><time>2026-04-30T17:05:39Z</time></trkpt><trkpt lat="44.63716243905943" lon="2.000581861154865"><ele>294.0</ele><time>2026-04-30T17:05:41Z</time></trkpt><trkpt lat="44.637225712120504" lon="2.000522689061785"><ele>294.0</ele><time>2026-04-30T17:05:43Z</time></trkpt><trkpt lat="44.63728523867698" lon="2.000460674056783"><ele>294.0</ele><time>2026-04-30T17:05:45Z</time></trkpt><trkpt lat="44.637342663181165" lon="2.000398744276428"><ele>294.0</ele><time>2026-04-30T17:05:47Z</time></trkpt><trkpt lat="44.63741161955227" lon="2.0003461717300297"><ele>294.0</ele><time>2026-04-30T17:05:49Z</time></trkpt><trkpt lat="44.63749034725353" lon="2.0002965565040998"><ele>294.0</ele><time>2026-04-30T17:05:51Z</time></trkpt><trkpt lat="44.63755873855004" lon="2.0002381171828385"><ele>294.0</ele><time>2026-04-30T17:05:53.001Z</time></trkpt><trkpt lat="44.63763523402936" lon="2.0001783333401675"><ele>294.0</ele><time>2026-04-30T17:05:55.001Z</time></trkpt><trkpt lat="44.637743488463826" lon="2.0000663710943076"><ele>294.0</ele><time>2026-04-30T17:05:57Z</time></trkpt><trkpt lat="44.63779358617864" lon="2.0000115952751214"><ele>294.0</ele><time>2026-04-30T17:05:58Z</time></trkpt><trkpt lat="44.637869619726686" lon="1.9999438256033666"><ele>294.0</ele><time>2026-04-30T17:06:00Z</time></trkpt><trkpt lat="44.637946317675386" lon="1.999870215513338"><ele>293.5</ele><time>2026-04-30T17:06:02Z</time></trkpt><trkpt lat="44.638006741644034" lon="1.9997897107899087"><ele>293.0</ele><time>2026-04-30T17:06:04Z</time></trkpt><trkpt lat="44.63807387651176" lon="1.999710053485393"><ele>292.5</ele><time>2026-04-30T17:06:06Z</time></trkpt><trkpt lat="44.63816367341069" lon="1.9996553437500708"><ele>292.0</ele><time>2026-04-30T17:06:08Z</time></trkpt><trkpt lat="44.63825375491005" lon="1.9996036638503167"><ele>291.5</ele><time>2026-04-30T17:06:10Z</time></trkpt><trkpt lat="44.63832007897414" lon="1.9995633758571025"><ele>291.0</ele><time>2026-04-30T17:06:12Z</time></trkpt><trkpt lat="44.63840496195047" lon="1.999532823814039"><ele>291.0</ele><time>2026-04-30T17:06:14Z</time></trkpt><trkpt lat="44.63850092867996" lon="1.9995321265040857"><ele>291.0</ele><time>2026-04-30T17:06:16Z</time></trkpt><trkpt lat="44.638574377079934" lon="1.9995312333898791"><ele>291.0</ele><time>2026-04-30T17:06:18Z</time></trkpt><trkpt lat="44.638654370200626" lon="1.9995320065406588"><ele>291.0</ele><time>2026-04-30T17:06:20Z</time></trkpt><trkpt lat="44.63873601992431" lon="1.9995534630561873"><ele>291.0</ele><time>2026-04-30T17:06:22Z</time></trkpt><trkpt lat="44.63886571203061" lon="1.9995636910240728"><ele>290.1666666666667</ele><time>2026-04-30T17:06:25Z</time></trkpt><trkpt lat="44.63897284636456" lon="1.9996075944282319"><ele>289.3333333333333</ele><time>2026-04-30T17:06:27Z</time></trkpt><trkpt lat="44.6390538436729" lon="1.9996146367698577"><ele>288.5</ele><time>2026-04-30T17:06:29Z</time></trkpt><trkpt lat="44.639070220707346" lon="1.9997001408076187"><ele>287.66666666666663</ele><time>2026-04-30T17:06:33Z</time></trkpt><trkpt lat="44.639059666089516" lon="1.9998081833678272"><ele>286.8333333333333</ele><time>2026-04-30T17:06:36Z</time></trkpt><trkpt lat="44.63904763395825" lon="1.9999123761121977"><ele>286.0</ele><time>2026-04-30T17:06:38Z</time></trkpt><trkpt lat="44.63899123463355" lon="2.00005065238176"><ele>286.0</ele><time>2026-04-30T17:06:40Z</time></trkpt><trkpt lat="44.63894975964874" lon="2.000159648449059"><ele>286.0</ele><time>2026-04-30T17:06:41Z</time></trkpt><trkpt lat="44.638895250494144" lon="2.000282005594113"><ele>286.0</ele><time>2026-04-30T17:06:43Z</time></trkpt><trkpt lat="44.63884487247807" lon="2.0003610884078213"><ele>286.0</ele><time>2026-04-30T17:06:45Z</time></trkpt><trkpt lat="44.638813220965275" lon="2.0004426333865526"><ele>286.0</ele><time>2026-04-30T17:06:46Z</time></trkpt><trkpt lat="44.638720714715426" lon="2.000734320654513"><ele>287.3333333333333</ele><time>2026-04-30T17:06:49Z</time></trkpt><trkpt lat="44.63865459835199" lon="2.0008838739914916"><ele>288.66666666666663</ele><time>2026-04-30T17:06:51Z</time></trkpt><trkpt lat="44.63861574944642" lon="2.0009679477829136"><ele>290.0</ele><time>2026-04-30T17:06:52Z</time></trkpt><trkpt lat="44.638560833777035" lon="2.0010501111300116"><ele>291.3333333333333</ele><time>2026-04-30T17:06:53Z</time></trkpt><trkpt lat="44.63852074803337" lon="2.0011282841739826"><ele>292.6666666666667</ele><time>2026-04-30T17:06:54Z</time></trkpt><trkpt lat="44.63848104667907" lon="2.001218385431762"><ele>294.0</ele><time>2026-04-30T17:06:55Z</time></trkpt><trkpt lat="44.63843704700976" lon="2.001315778909633"><ele>294.8333333333333</ele><time>2026-04-30T17:06:56Z</time></trkpt><trkpt lat="44.63839639031231" lon="2.001404375719376"><ele>295.6666666666667</ele><time>2026-04-30T17:06:57Z</time></trkpt><trkpt lat="44.6383587153079" lon="2.0014766540406352"><ele>296.5</ele><time>2026-04-30T17:06:58Z</time></trkpt><trkpt lat="44.63831534712065" lon="2.001601537938065"><ele>297.33333333333337</ele><time>2026-04-30T17:07:00Z</time></trkpt><trkpt lat="44.63825720638094" lon="2.001678897020472"><ele>298.1666666666667</ele><time>2026-04-30T17:07:03Z</time></trkpt><trkpt lat="44.63817116464163" lon="2.0017563941686003"><ele>299.0</ele><time>2026-04-30T17:07:05Z</time></trkpt><trkpt lat="44.63811078365127" lon="2.001830426147693"><ele>300.59999999999997</ele><time>2026-04-30T17:07:06Z</time></trkpt><trkpt lat="44.63806620352188" lon="2.001951012656819"><ele>302.2</ele><time>2026-04-30T17:07:07Z</time></trkpt><trkpt lat="44.63802483190025" lon="2.0020510237272697"><ele>303.79999999999995</ele><time>2026-04-30T17:07:08Z</time></trkpt><trkpt lat="44.637966322152074" lon="2.0022046747709408"><ele>305.4</ele><time>2026-04-30T17:07:10Z</time></trkpt><trkpt lat="44.63787224770997" lon="2.002276623515444"><ele>307.0</ele><time>2026-04-30T17:07:12Z</time></trkpt><trkpt lat="44.637807288501676" lon="2.002311564078239"><ele>306.5</ele><time>2026-04-30T17:07:13Z</time></trkpt><trkpt lat="44.63773625111968" lon="2.0023551784462237"><ele>306.0</ele><time>2026-04-30T17:07:14Z</time></trkpt><trkpt lat="44.63767796291863" lon="2.0023983637624174"><ele>305.5</ele><time>2026-04-30T17:07:15Z</time></trkpt><trkpt lat="44.63759020676745" lon="2.002524985367861"><ele>305.0</ele><time>2026-04-30T17:07:17Z</time></trkpt><trkpt lat="44.63753768789442" lon="2.002590913288057"><ele>304.5</ele><time>2026-04-30T17:07:18Z</time></trkpt><trkpt lat="44.63749141550814" lon="2.0026544799718047"><ele>304.0</ele><time>2026-04-30T17:07:19Z</time></trkpt><trkpt lat="44.63741914873702" lon="2.002768775711846"><ele>306.0</ele><time>2026-04-30T17:07:21Z</time></trkpt><trkpt lat="44.63733543919785" lon="2.002885384898857"><ele>308.0</ele><time>2026-04-30T17:07:23Z</time></trkpt><trkpt lat="44.6372422494004" lon="2.002973436208463"><ele>310.0</ele><time>2026-04-30T17:07:25Z</time></trkpt><trkpt lat="44.63717620045805" lon="2.0030064551745457"><ele>312.0</ele><time>2026-04-30T17:07:26Z</time></trkpt><trkpt lat="44.63709780127562" lon="2.0030347680955645"><ele>314.0</ele><time>2026-04-30T17:07:27Z</time></trkpt><trkpt lat="44.63700299966414" lon="2.0030396567235513"><ele>314.0</ele><time>2026-04-30T17:07:29Z</time></trkpt><trkpt lat="44.6369335180651" lon="2.0030399245024015"><ele>314.0</ele><time>2026-04-30T17:07:31Z</time></trkpt><trkpt lat="44.637035429411625" lon="2.0031524295389067"><ele>314.0</ele><time>2026-04-30T17:07:39Z</time></trkpt><trkpt lat="44.63710216192512" lon="2.003202908195973"><ele>314.0</ele><time>2026-04-30T17:07:41Z</time></trkpt><trkpt lat="44.63717144186415" lon="2.0032471130364176"><ele>314.0</ele><time>2026-04-30T17:07:42Z</time></trkpt><trkpt lat="44.637233492384865" lon="2.0033554823317625"><ele>317.75</ele><time>2026-04-30T17:07:44Z</time></trkpt><trkpt lat="44.63718784499504" lon="2.0035507987124723"><ele>321.5</ele><time>2026-04-30T17:07:46Z</time></trkpt><trkpt lat="44.637149207084896" lon="2.003668621696739"><ele>325.25</ele><time>2026-04-30T17:07:47Z</time></trkpt><trkpt lat="44.637103891836496" lon="2.003798548933862"><ele>329.0</ele><time>2026-04-30T17:07:48Z</time></trkpt><trkpt lat="44.63705470180491" lon="2.0039358077076432"><ele>329.0</ele><time>2026-04-30T17:07:49Z</time></trkpt><trkpt lat="44.637009753829545" lon="2.0040767712043603"><ele>329.0</ele><time>2026-04-30T17:07:50Z</time></trkpt><trkpt lat="44.63696117721004" lon="2.004235073977825"><ele>329.0</ele><time>2026-04-30T17:07:51Z</time></trkpt><trkpt lat="44.636918326623984" lon="2.0043865686696174"><ele>329.0</ele><time>2026-04-30T17:07:52Z</time></trkpt><trkpt lat="44.636878380048316" lon="2.0045195651010315"><ele>329.1666666666667</ele><time>2026-04-30T17:07:53Z</time></trkpt><trkpt lat="44.6368441538159" lon="2.0046344959545688"><ele>329.33333333333337</ele><time>2026-04-30T17:07:54Z</time></trkpt><trkpt lat="44.636816477258364" lon="2.0047353704690365"><ele>329.5</ele><time>2026-04-30T17:07:55Z</time></trkpt><trkpt lat="44.636791454332126" lon="2.0048265472542943"><ele>329.6666666666667</ele><time>2026-04-30T17:07:56Z</time></trkpt><trkpt lat="44.63676451533044" lon="2.0049345999823114"><ele>329.8333333333333</ele><time>2026-04-30T17:07:57Z</time></trkpt><trkpt lat="44.636737484073514" lon="2.005046388388695"><ele>330.0</ele><time>2026-04-30T17:07:58Z</time></trkpt><trkpt lat="44.636710066164554" lon="2.005162244664886"><ele>330.0</ele><time>2026-04-30T17:07:59Z</time></trkpt><trkpt lat="44.63667347631679" lon="2.00529814999068"><ele>330.0</ele><time>2026-04-30T17:08:00Z</time></trkpt><trkpt lat="44.63664199663545" lon="2.005458172590169"><ele>330.0</ele><time>2026-04-30T17:08:01Z</time></trkpt><trkpt lat="44.63661541181152" lon="2.0056091916951453"><ele>330.0</ele><time>2026-04-30T17:08:02Z</time></trkpt><trkpt lat="44.63659449144117" lon="2.0057399114127383"><ele>330.0</ele><time>2026-04-30T17:08:03Z</time></trkpt><trkpt lat="44.63657713629104" lon="2.0058508813365026"><ele>331.1666666666667</ele><time>2026-04-30T17:08:04Z</time></trkpt><trkpt lat="44.63655752188923" lon="2.0059501972632763"><ele>332.3333333333333</ele><time>2026-04-30T17:08:05Z</time></trkpt><trkpt lat="44.636534369281975" lon="2.006057935091473"><ele>333.5</ele><time>2026-04-30T17:08:06Z</time></trkpt><trkpt lat="44.63650973793663" lon="2.0061744473497023"><ele>334.66666666666663</ele><time>2026-04-30T17:08:07Z</time></trkpt><trkpt lat="44.636479655696455" lon="2.006297646867561"><ele>335.8333333333333</ele><time>2026-04-30T17:08:08Z</time></trkpt><trkpt lat="44.63644107198119" lon="2.006412098785973"><ele>337.0</ele><time>2026-04-30T17:08:09Z</time></trkpt><trkpt lat="44.63638261876382" lon="2.006518137614333"><ele>337.0</ele><time>2026-04-30T17:08:10Z</time></trkpt><trkpt lat="44.63627990880868" lon="2.0065625587794673"><ele>337.0</ele><time>2026-04-30T17:08:11Z</time></trkpt><trkpt lat="44.63622448395652" lon="2.0066438703783502"><ele>337.0</ele><time>2026-04-30T17:08:12Z</time></trkpt><trkpt lat="44.6361724821552" lon="2.0067353530343564"><ele>337.0</ele><time>2026-04-30T17:08:13Z</time></trkpt><trkpt lat="44.636134461808055" lon="2.006850218124424"><ele>337.0</ele><time>2026-04-30T17:08:14Z</time></trkpt><trkpt lat="44.63610035984871" lon="2.0069855417005185"><ele>337.3333333333333</ele><time>2026-04-30T17:08:15Z</time></trkpt><trkpt lat="44.636075898562446" lon="2.0071121520123776"><ele>337.66666666666663</ele><time>2026-04-30T17:08:16Z</time></trkpt><trkpt lat="44.63605980337686" lon="2.0072144790409845"><ele>338.0</ele><time>2026-04-30T17:08:17Z</time></trkpt><trkpt lat="44.6360464585494" lon="2.007302222732714"><ele>338.3333333333333</ele><time>2026-04-30T17:08:18Z</time></trkpt><trkpt lat="44.636030924594145" lon="2.007404360221358"><ele>338.6666666666667</ele><time>2026-04-30T17:08:19Z</time></trkpt><trkpt lat="44.63601221549654" lon="2.0075273747913687"><ele>339.0</ele><time>2026-04-30T17:08:20Z</time></trkpt><trkpt lat="44.635995420896705" lon="2.0076529957375455"><ele>339.0</ele><time>2026-04-30T17:08:21Z</time></trkpt><trkpt lat="44.63598326241692" lon="2.0077779305868444"><ele>339.0</ele><time>2026-04-30T17:08:22Z</time></trkpt><trkpt lat="44.63597586448972" lon="2.0079065267972855"><ele>339.0</ele><time>2026-04-30T17:08:23Z</time></trkpt><trkpt lat="44.63597042334117" lon="2.0080437158641704"><ele>339.0</ele><time>2026-04-30T17:08:24Z</time></trkpt><trkpt lat="44.635966668462224" lon="2.0082065417066763"><ele>339.0</ele><time>2026-04-30T17:08:25Z</time></trkpt><trkpt lat="44.63596619853114" lon="2.0083499400706977"><ele>339.57142857142856</ele><time>2026-04-30T17:08:26Z</time></trkpt><trkpt lat="44.63596893811627" lon="2.008468559230172"><ele>340.14285714285717</ele><time>2026-04-30T17:08:27Z</time></trkpt><trkpt lat="44.63597145526699" lon="2.0085775473295158"><ele>340.7142857142857</ele><time>2026-04-30T17:08:28Z</time></trkpt><trkpt lat="44.63597238853747" lon="2.008673462969492"><ele>341.2857142857143</ele><time>2026-04-30T17:08:29Z</time></trkpt><trkpt lat="44.635971593632746" lon="2.008768325891648"><ele>341.8571428571429</ele><time>2026-04-30T17:08:30Z</time></trkpt><trkpt lat="44.63596722399012" lon="2.008873027499117"><ele>342.42857142857144</ele><time>2026-04-30T17:08:31Z</time></trkpt><trkpt lat="44.63596267826711" lon="2.0089800544993106"><ele>343.0</ele><time>2026-04-30T17:08:32Z</time></trkpt><trkpt lat="44.63595341550451" lon="2.0090868384903766"><ele>342.8333333333333</ele><time>2026-04-30T17:08:33Z</time></trkpt><trkpt lat="44.63594599109372" lon="2.0091954529577407"><ele>342.66666666666663</ele><time>2026-04-30T17:08:34Z</time></trkpt><trkpt lat="44.63593853571857" lon="2.0093045203253843"><ele>342.5</ele><time>2026-04-30T17:08:35Z</time></trkpt><trkpt lat="44.63592947460639" lon="2.009415117486231"><ele>342.3333333333333</ele><time>2026-04-30T17:08:36Z</time></trkpt><trkpt lat="44.635921634304616" lon="2.009507942833187"><ele>342.1666666666667</ele><time>2026-04-30T17:08:37Z</time></trkpt><trkpt lat="44.63591815294377" lon="2.009656785486125"><ele>342.0</ele><time>2026-04-30T17:08:39Z</time></trkpt><trkpt lat="44.635936340519365" lon="2.00978642450841"><ele>342.0</ele><time>2026-04-30T17:08:41Z</time></trkpt><trkpt lat="44.63597086113449" lon="2.0099311464943"><ele>342.0</ele><time>2026-04-30T17:08:43Z</time></trkpt><trkpt lat="44.63598001202843" lon="2.0100930349867645"><ele>342.0</ele><time>2026-04-30T17:08:45Z</time></trkpt><trkpt lat="44.63600389535639" lon="2.0101945014304934"><ele>342.0</ele><time>2026-04-30T17:08:46Z</time></trkpt><trkpt lat="44.63602991123524" lon="2.0103183410177383"><ele>342.0</ele><time>2026-04-30T17:08:47Z</time></trkpt><trkpt lat="44.63605364436431" lon="2.0104587343424187"><ele>342.40000000000003</ele><time>2026-04-30T17:08:48Z</time></trkpt><trkpt lat="44.63606901563326" lon="2.0106011730108913"><ele>342.8</ele><time>2026-04-30T17:08:49Z</time></trkpt><trkpt lat="44.636058971848904" lon="2.0107326297597696"><ele>343.2</ele><time>2026-04-30T17:08:50Z</time></trkpt><trkpt lat="44.63604380138468" lon="2.0108787518870432"><ele>343.6</ele><time>2026-04-30T17:08:51Z</time></trkpt><trkpt lat="44.63601789646242" lon="2.0110658073930043"><ele>344.0</ele><time>2026-04-30T17:08:52Z</time></trkpt><trkpt lat="44.635986985465934" lon="2.011284851905507"><ele>344.33333333333337</ele><time>2026-04-30T17:08:53Z</time></trkpt><trkpt lat="44.63596535768369" lon="2.011501377178188"><ele>344.6666666666667</ele><time>2026-04-30T17:08:54Z</time></trkpt><trkpt lat="44.635952128392155" lon="2.0117207076262855"><ele>345.0</ele><time>2026-04-30T17:08:55Z</time></trkpt><trkpt lat="44.63594492459637" lon="2.011917611267059"><ele>345.2</ele><time>2026-04-30T17:08:56Z</time></trkpt><trkpt lat="44.63593707526119" lon="2.012100755799339"><ele>345.4</ele><time>2026-04-30T17:08:57Z</time></trkpt><trkpt lat="44.63592501881531" lon="2.012274343149511"><ele>345.6</ele><time>2026-04-30T17:08:58Z</time></trkpt><trkpt lat="44.63590817135893" lon="2.012425417973879"><ele>345.8</ele><time>2026-04-30T17:08:59Z</time></trkpt><trkpt lat="44.6358931909382" lon="2.01253717890268"><ele>346.0</ele><time>2026-04-30T17:09:00Z</time></trkpt><trkpt lat="44.63587499115141" lon="2.0126602042212265"><ele>346.6</ele><time>2026-04-30T17:09:02Z</time></trkpt><trkpt lat="44.63585513235737" lon="2.012760370682765"><ele>347.20000000000005</ele><time>2026-04-30T17:09:05Z</time></trkpt><trkpt lat="44.63570987511633" lon="2.0127343055905023"><ele>347.79999999999995</ele><time>2026-04-30T17:09:10Z</time></trkpt><trkpt lat="44.63564241302187" lon="2.012695043663861"><ele>348.4</ele><time>2026-04-30T17:09:11Z</time></trkpt><trkpt lat="44.63557754306327" lon="2.012685169544859"><ele>349.0</ele><time>2026-04-30T17:09:12Z</time></trkpt><trkpt lat="44.63547184234828" lon="2.0126845900263253"><ele>349.0</ele><time>2026-04-30T17:09:14Z</time></trkpt><trkpt lat="44.635365183061296" lon="2.0126801786777886"><ele>349.0</ele><time>2026-04-30T17:09:16Z</time></trkpt><trkpt lat="44.635298555200144" lon="2.0126840427673955"><ele>349.0</ele><time>2026-04-30T17:09:17Z</time></trkpt><trkpt lat="44.63517509658727" lon="2.0126883699708986"><ele>349.0</ele><time>2026-04-30T17:09:19Z</time></trkpt><trkpt lat="44.635097122196086" lon="2.0126889148498837"><ele>349.0</ele><time>2026-04-30T17:09:20Z</time></trkpt><trkpt lat="44.635033178730424" lon="2.0126891593352227"><ele>349.0</ele><time>2026-04-30T17:09:21Z</time></trkpt><trkpt lat="44.63490919986922" lon="2.0126877127412226"><ele>349.2</ele><time>2026-04-30T17:09:23Z</time></trkpt><trkpt lat="44.63480773378193" lon="2.012680162721029"><ele>349.4</ele><time>2026-04-30T17:09:25Z</time></trkpt><trkpt lat="44.63491894753806" lon="2.012687906674833"><ele>349.6</ele><time>2026-04-30T17:09:45Z</time></trkpt><trkpt lat="44.634999597424176" lon="2.012693169946625"><ele>349.8</ele><time>2026-04-30T17:09:46Z</time></trkpt><trkpt lat="44.635089538055745" lon="2.0126950253589224"><ele>350.0</ele><time>2026-04-30T17:09:47Z</time></trkpt><trkpt lat="44.635160272598526" lon="2.012693227608289"><ele>350.0</ele><time>2026-04-30T17:09:48Z</time></trkpt><trkpt lat="44.63527398476924" lon="2.0126895883891494"><ele>350.0</ele><time>2026-04-30T17:09:50Z</time></trkpt><trkpt lat="44.63538166716617" lon="2.0126830882674773"><ele>350.0</ele><time>2026-04-30T17:09:52Z</time></trkpt><trkpt lat="44.635513607889635" lon="2.012683571732034"><ele>350.0</ele><time>2026-04-30T17:09:54Z</time></trkpt><trkpt lat="44.63558325686937" lon="2.0127034579923957"><ele>350.0</ele><time>2026-04-30T17:09:55Z</time></trkpt><trkpt lat="44.63565094303268" lon="2.012728562936261"><ele>349.8</ele><time>2026-04-30T17:09:56Z</time></trkpt><trkpt lat="44.63575245498421" lon="2.0127570582202052"><ele>349.6</ele><time>2026-04-30T17:09:58Z</time></trkpt><trkpt lat="44.63582327888074" lon="2.0127775154010137"><ele>349.4</ele><time>2026-04-30T17:10:00Z</time></trkpt><trkpt lat="44.635869148068686" lon="2.0128869467430346"><ele>349.2</ele><time>2026-04-30T17:10:04Z</time></trkpt><trkpt lat="44.63583239203405" lon="2.0130420242937084"><ele>349.0</ele><time>2026-04-30T17:10:06Z</time></trkpt><trkpt lat="44.63580780419889" lon="2.013188778467098"><ele>349.0</ele><time>2026-04-30T17:10:08Z</time></trkpt><trkpt lat="44.635788801135305" lon="2.013310534316703"><ele>349.0</ele><time>2026-04-30T17:10:10Z</time></trkpt><trkpt lat="44.635780423088384" lon="2.013421440805169"><ele>349.0</ele><time>2026-04-30T17:10:12Z</time></trkpt><trkpt lat="44.63578519529003" lon="2.0135507959413377"><ele>349.0</ele><time>2026-04-30T17:10:14Z</time></trkpt><trkpt lat="44.63581063854197" lon="2.0136423910438865"><ele>349.0</ele><time>2026-04-30T17:10:16Z</time></trkpt><trkpt lat="44.63584767683615" lon="2.013816005598938"><ele>349.79999999999995</ele><time>2026-04-30T17:10:18Z</time></trkpt><trkpt lat="44.635868027412904" lon="2.013920515583188"><ele>350.59999999999997</ele><time>2026-04-30T17:10:19Z</time></trkpt><trkpt lat="44.63589405984212" lon="2.014082826045828"><ele>351.4</ele><time>2026-04-30T17:10:21Z</time></trkpt><trkpt lat="44.635928016888165" lon="2.0142407771592166"><ele>352.2</ele><time>2026-04-30T17:10:23Z</time></trkpt><trkpt lat="44.6359581144352" lon="2.014411115701328"><ele>353.0</ele><time>2026-04-30T17:10:25Z</time></trkpt><trkpt lat="44.63592932200603" lon="2.0145144404372126"><ele>353.6666666666667</ele><time>2026-04-30T17:10:26Z</time></trkpt><trkpt lat="44.635932748703254" lon="2.0146402465920645"><ele>354.33333333333337</ele><time>2026-04-30T17:10:27Z</time></trkpt><trkpt lat="44.635920218353725" lon="2.0147557475984175"><ele>355.0</ele><time>2026-04-30T17:10:28Z</time></trkpt><trkpt lat="44.63590844805967" lon="2.014859868817642"><ele>355.6666666666667</ele><time>2026-04-30T17:10:29Z</time></trkpt><trkpt lat="44.635895465399805" lon="2.0150253233636892"><ele>356.3333333333333</ele><time>2026-04-30T17:10:31Z</time></trkpt><trkpt lat="44.6359112120875" lon="2.0151318770418367"><ele>357.0</ele><time>2026-04-30T17:10:32Z</time></trkpt><trkpt lat="44.635974894000114" lon="2.0152285041686557"><ele>357.6666666666667</ele><time>2026-04-30T17:10:33Z</time></trkpt><trkpt lat="44.6360308288349" lon="2.015284775570476"><ele>358.3333333333333</ele><time>2026-04-30T17:10:34Z</time></trkpt><trkpt lat="44.63609972246786" lon="2.015354364052338"><ele>359.0</ele><time>2026-04-30T17:10:36Z</time></trkpt><trkpt lat="44.6360888991098" lon="2.0155055372497825"><ele>359.66666666666663</ele><time>2026-04-30T17:10:38Z</time></trkpt><trkpt lat="44.63601740834571" lon="2.0155433621357957"><ele>360.3333333333333</ele><time>2026-04-30T17:10:39Z</time></trkpt><trkpt lat="44.63598471044871" lon="2.015636894876881"><ele>361.0</ele><time>2026-04-30T17:10:40Z</time></trkpt><trkpt lat="44.635968099433455" lon="2.0157280245810743"><ele>361.5</ele><time>2026-04-30T17:10:41Z</time></trkpt><trkpt lat="44.63597445299371" lon="2.0158280228765455"><ele>362.0</ele><time>2026-04-30T17:10:42Z</time></trkpt><trkpt lat="44.636000647969965" lon="2.015966907181412"><ele>362.5</ele><time>2026-04-30T17:10:44Z</time></trkpt><trkpt lat="44.6360211132161" lon="2.016055051898874"><ele>363.0</ele><time>2026-04-30T17:10:48Z</time></trkpt><trkpt lat="44.63597187585691" lon="2.016132789241377"><ele>363.5</ele><time>2026-04-30T17:10:50Z</time></trkpt><trkpt lat="44.63586261313743" lon="2.0161181377161568"><ele>364.0</ele><time>2026-04-30T17:10:51Z</time></trkpt><trkpt lat="44.635787557012804" lon="2.0161968446343037"><ele>364.0</ele><time>2026-04-30T17:10:52Z</time></trkpt><trkpt lat="44.6357254870245" lon="2.0163011777038533"><ele>364.0</ele><time>2026-04-30T17:10:53Z</time></trkpt><trkpt lat="44.635684255216155" lon="2.016425745313398"><ele>364.0</ele><time>2026-04-30T17:10:54Z</time></trkpt><trkpt lat="44.635651891212945" lon="2.0165375840148534"><ele>364.0</ele><time>2026-04-30T17:10:55Z</time></trkpt><trkpt lat="44.635620416665304" lon="2.016670484228132"><ele>364.0</ele><time>2026-04-30T17:10:56Z</time></trkpt><trkpt lat="44.63557257093047" lon="2.016849815884213"><ele>362.79999999999995</ele><time>2026-04-30T17:10:57Z</time></trkpt><trkpt lat="44.63552278235717" lon="2.0170139810572763"><ele>361.59999999999997</ele><time>2026-04-30T17:10:58Z</time></trkpt><trkpt lat="44.63547307713584" lon="2.017160875330481"><ele>360.4</ele><time>2026-04-30T17:10:59Z</time></trkpt><trkpt lat="44.63542647009725" lon="2.017278443374795"><ele>359.2</ele><time>2026-04-30T17:11:00Z</time></trkpt><trkpt lat="44.63537556148313" lon="2.017371649324657"><ele>358.0</ele><time>2026-04-30T17:11:01Z</time></trkpt><trkpt lat="44.63530100836771" lon="2.0174909264992067"><ele>355.0</ele><time>2026-04-30T17:11:02Z</time></trkpt><trkpt lat="44.635213691520164" lon="2.0176127728624342"><ele>352.0</ele><time>2026-04-30T17:11:03Z</time></trkpt><trkpt lat="44.6351329063995" lon="2.017719963082905"><ele>349.0</ele><time>2026-04-30T17:11:04Z</time></trkpt><trkpt lat="44.63505073042274" lon="2.0178242765330867"><ele>346.0</ele><time>2026-04-30T17:11:05Z</time></trkpt><trkpt lat="44.634970282771555" lon="2.0179249435225937"><ele>346.0</ele><time>2026-04-30T17:11:06Z</time></trkpt><trkpt lat="44.63489367995003" lon="2.0180168362978903"><ele>346.0</ele><time>2026-04-30T17:11:07Z</time></trkpt><trkpt lat="44.634822893158194" lon="2.018090519448164"><ele>346.0</ele><time>2026-04-30T17:11:08Z</time></trkpt><trkpt lat="44.634754026251436" lon="2.018158454411938"><ele>346.0</ele><time>2026-04-30T17:11:09Z</time></trkpt><trkpt lat="44.63469605422939" lon="2.0182263712999533"><ele>346.0</ele><time>2026-04-30T17:11:10Z</time></trkpt><trkpt lat="44.634598254013454" lon="2.018297675362721"><ele>345.4</ele><time>2026-04-30T17:11:12Z</time></trkpt><trkpt lat="44.63452573109506" lon="2.0183368775191006"><ele>344.8</ele><time>2026-04-30T17:11:15Z</time></trkpt><trkpt lat="44.63455077140296" lon="2.018518204540783"><ele>344.2</ele><time>2026-04-30T17:11:16Z</time></trkpt><trkpt lat="44.63452932586761" lon="2.018637068735465"><ele>343.59999999999997</ele><time>2026-04-30T17:11:18Z</time></trkpt><trkpt lat="44.634523187482955" lon="2.0188382742786772"><ele>343.0</ele><time>2026-04-30T17:11:20Z</time></trkpt><trkpt lat="44.634523438569886" lon="2.018956185537297"><ele>343.0</ele><time>2026-04-30T17:11:21Z</time></trkpt><trkpt lat="44.634524665388525" lon="2.0190570334770666"><ele>343.0</ele><time>2026-04-30T17:11:22Z</time></trkpt><trkpt lat="44.63451880697452" lon="2.019223343277938"><ele>343.0</ele><time>2026-04-30T17:11:24Z</time></trkpt><trkpt lat="44.63448682592633" lon="2.0193422039359135"><ele>343.0</ele><time>2026-04-30T17:11:26Z</time></trkpt><trkpt lat="44.634430072719084" lon="2.0193970648147057"><ele>343.0</ele><time>2026-04-30T17:11:29Z</time></trkpt><trkpt lat="44.63436737799188" lon="2.0194251191164994"><ele>343.0</ele><time>2026-04-30T17:11:32Z</time></trkpt><trkpt lat="44.63428483061981" lon="2.0193981654757116"><ele>342.66666666666663</ele><time>2026-04-30T17:11:34Z</time></trkpt><trkpt lat="44.63421865385816" lon="2.0193742477990266"><ele>342.3333333333333</ele><time>2026-04-30T17:11:36Z</time></trkpt><trkpt lat="44.63415244464681" lon="2.0193545683833722"><ele>342.0</ele><time>2026-04-30T17:11:38Z</time></trkpt><trkpt lat="44.634193425482316" lon="2.019441063043116"><ele>341.6666666666667</ele><time>2026-04-30T17:11:44Z</time></trkpt><trkpt lat="44.634308240009815" lon="2.0194416676457014"><ele>341.33333333333337</ele><time>2026-04-30T17:11:47Z</time></trkpt><trkpt lat="44.63439502746582" lon="2.0194711028456687"><ele>341.0</ele><time>2026-04-30T17:11:49Z</time></trkpt><trkpt lat="44.634478630191715" lon="2.019441912065123"><ele>341.0</ele><time>2026-04-30T17:11:51Z</time></trkpt><trkpt lat="44.63455523551927" lon="2.0192981522872104"><ele>341.0</ele><time>2026-04-30T17:11:53Z</time></trkpt><trkpt lat="44.63457483805253" lon="2.019185545898406"><ele>341.0</ele><time>2026-04-30T17:11:54Z</time></trkpt><trkpt lat="44.634569931004776" lon="2.0190494166891666"><ele>341.0</ele><time>2026-04-30T17:11:55Z</time></trkpt><trkpt lat="44.63456802110202" lon="2.018898956539199"><ele>341.0</ele><time>2026-04-30T17:11:56Z</time></trkpt><trkpt lat="44.63456739368697" lon="2.0187689386706493"><ele>341.33333333333337</ele><time>2026-04-30T17:11:57Z</time></trkpt><trkpt lat="44.634570491844585" lon="2.0186546091584336"><ele>341.6666666666667</ele><time>2026-04-30T17:11:58Z</time></trkpt><trkpt lat="44.63457567356936" lon="2.0185600224519265"><ele>342.0</ele><time>2026-04-30T17:11:59Z</time></trkpt><trkpt lat="44.6345804848321" lon="2.018462668659365"><ele>342.3333333333333</ele><time>2026-04-30T17:12:01Z</time></trkpt><trkpt lat="44.63457384116329" lon="2.0183593132813686"><ele>342.66666666666663</ele><time>2026-04-30T17:12:06Z</time></trkpt><trkpt lat="44.63445619192454" lon="2.018345100276689"><ele>343.0</ele><time>2026-04-30T17:12:09Z</time></trkpt><trkpt lat="44.63436152904946" lon="2.0183753167752987"><ele>344.0</ele><time>2026-04-30T17:12:10Z</time></trkpt><trkpt lat="44.63424775741953" lon="2.0184018692710404"><ele>345.0</ele><time>2026-04-30T17:12:11Z</time></trkpt><trkpt lat="44.63412666272379" lon="2.018442168023541"><ele>346.0</ele><time>2026-04-30T17:12:12Z</time></trkpt><trkpt lat="44.63401954772708" lon="2.0184983624528696"><ele>347.0</ele><time>2026-04-30T17:12:13Z</time></trkpt><trkpt lat="44.63390575225691" lon="2.0185358428687983"><ele>347.0</ele><time>2026-04-30T17:12:14Z</time></trkpt><trkpt lat="44.63377989822035" lon="2.018583100712689"><ele>347.0</ele><time>2026-04-30T17:12:15Z</time></trkpt><trkpt lat="44.63363415533744" lon="2.0186310433463723"><ele>347.0</ele><time>2026-04-30T17:12:16Z</time></trkpt><trkpt lat="44.63348727625199" lon="2.018677404150483"><ele>347.0</ele><time>2026-04-30T17:12:17Z</time></trkpt><trkpt lat="44.633359422435404" lon="2.018716496875112"><ele>345.20000000000005</ele><time>2026-04-30T17:12:18Z</time></trkpt><trkpt lat="44.63324072995332" lon="2.0187494026907866"><ele>343.4</ele><time>2026-04-30T17:12:19Z</time></trkpt><trkpt lat="44.63312738066894" lon="2.018774739152786"><ele>341.6</ele><time>2026-04-30T17:12:20Z</time></trkpt><trkpt lat="44.63302295050199" lon="2.0188182785434496"><ele>339.79999999999995</ele><time>2026-04-30T17:12:21Z</time></trkpt><trkpt lat="44.63292094222385" lon="2.0188379066833924"><ele>338.0</ele><time>2026-04-30T17:12:22Z</time></trkpt><trkpt lat="44.63282578108601" lon="2.0188646865624773"><ele>337.4</ele><time>2026-04-30T17:12:23Z</time></trkpt><trkpt lat="44.63273753273888" lon="2.0188889765945013"><ele>336.79999999999995</ele><time>2026-04-30T17:12:24Z</time></trkpt><trkpt lat="44.63266961579394" lon="2.0189088541646147"><ele>336.2</ele><time>2026-04-30T17:12:25Z</time></trkpt><trkpt lat="44.63258884818801" lon="2.0189116257243427"><ele>335.6</ele><time>2026-04-30T17:12:27Z</time></trkpt><trkpt lat="44.63264901162291" lon="2.0189628241501985"><ele>335.0</ele><time>2026-04-30T17:12:34Z</time></trkpt><trkpt lat="44.632613702292815" lon="2.019498452252195"><ele>335.0</ele><time>2026-04-30T17:12:35Z</time></trkpt><trkpt lat="44.63266222729169" lon="2.0190675341875446"><ele>335.0</ele><time>2026-04-30T17:12:37Z</time></trkpt><trkpt lat="44.63266251195808" lon="2.019165970819154"><ele>335.0</ele><time>2026-04-30T17:12:38Z</time></trkpt><trkpt lat="44.63266284465869" lon="2.0192810158827315"><ele>334.5</ele><time>2026-04-30T17:12:39Z</time></trkpt><trkpt lat="44.63266310560881" lon="2.019371247449458"><ele>334.0</ele><time>2026-04-30T17:12:40Z</time></trkpt><trkpt lat="44.632663460583785" lon="2.019493991590439"><ele>333.5</ele><time>2026-04-30T17:12:42Z</time></trkpt><trkpt lat="44.63266134958499" lon="2.0196064511950795"><ele>333.0</ele><time>2026-04-30T17:12:44Z</time></trkpt><trkpt lat="44.63265647525244" lon="2.0197459880499506"><ele>332.5</ele><time>2026-04-30T17:12:46Z</time></trkpt><trkpt lat="44.63264990490808" lon="2.0198758941468875"><ele>332.0</ele><time>2026-04-30T17:12:48Z</time></trkpt><trkpt lat="44.63264653645796" lon="2.0199968009505924"><ele>332.0</ele><time>2026-04-30T17:12:50Z</time></trkpt><trkpt lat="44.632672993277566" lon="2.0200786981147054"><ele>332.0</ele><time>2026-04-30T17:12:55Z</time></trkpt><trkpt lat="44.63266388826542" lon="2.0199516206680017"><ele>332.0</ele><time>2026-04-30T17:13:05Z</time></trkpt><trkpt lat="44.63267405281897" lon="2.0198600775530706"><ele>332.0</ele><time>2026-04-30T17:13:06Z</time></trkpt><trkpt lat="44.63268646635217" lon="2.0197390406882327"><ele>332.0</ele><time>2026-04-30T17:13:07Z</time></trkpt><trkpt lat="44.63269752247744" lon="2.0196074687289256"><ele>332.0</ele><time>2026-04-30T17:13:08Z</time></trkpt><trkpt lat="44.632703420420086" lon="2.0194987427945343"><ele>332.6</ele><time>2026-04-30T17:13:09Z</time></trkpt><trkpt lat="44.632693797150345" lon="2.0193453276861377"><ele>333.20000000000005</ele><time>2026-04-30T17:13:11Z</time></trkpt><trkpt lat="44.632695202773974" lon="2.019189508491799"><ele>333.8</ele><time>2026-04-30T17:13:13Z</time></trkpt><trkpt lat="44.632697352099996" lon="2.019069291730636"><ele>334.4</ele><time>2026-04-30T17:13:15Z</time></trkpt><trkpt lat="44.63270544562744" lon="2.0189616226344036"><ele>335.0</ele><time>2026-04-30T17:13:18Z</time></trkpt><trkpt lat="44.632605797612236" lon="2.018913650230249"><ele>335.0</ele><time>2026-04-30T17:13:22Z</time></trkpt><trkpt lat="44.63252031121963" lon="2.018943723950604"><ele>335.0</ele><time>2026-04-30T17:13:23Z</time></trkpt><trkpt lat="44.63242832526512" lon="2.0189725467658493"><ele>335.0</ele><time>2026-04-30T17:13:24Z</time></trkpt><trkpt lat="44.63235474797515" lon="2.018992127498754"><ele>335.0</ele><time>2026-04-30T17:13:25Z</time></trkpt><trkpt lat="44.63228532269407" lon="2.0190069584876364"><ele>335.0</ele><time>2026-04-30T17:13:26Z</time></trkpt><trkpt lat="44.632213233309756" lon="2.019026562027013"><ele>335.0</ele><time>2026-04-30T17:13:27Z</time></trkpt><trkpt lat="44.632140025905535" lon="2.019048490719494"><ele>335.0</ele><time>2026-04-30T17:13:28Z</time></trkpt><trkpt lat="44.63207382297086" lon="2.019077793251578"><ele>335.0</ele><time>2026-04-30T17:13:29Z</time></trkpt><trkpt lat="44.63201051031654" lon="2.019077055253729"><ele>335.0</ele><time>2026-04-30T17:13:30Z</time></trkpt><trkpt lat="44.63194838637879" lon="2.0191166603674127"><ele>335.0</ele><time>2026-04-30T17:13:31Z</time></trkpt><trkpt lat="44.631862018300346" lon="2.0191412257865284"><ele>335.0</ele><time>2026-04-30T17:13:32Z</time></trkpt><trkpt lat="44.63175117201759" lon="2.0191751525779926"><ele>335.0</ele><time>2026-04-30T17:13:33Z</time></trkpt><trkpt lat="44.63165301679433" lon="2.0192087818649904"><ele>335.33333333333337</ele><time>2026-04-30T17:13:34Z</time></trkpt><trkpt lat="44.63156857537084" lon="2.0192408246269746"><ele>335.6666666666667</ele><time>2026-04-30T17:13:35Z</time></trkpt><trkpt lat="44.631491987099764" lon="2.0192722281813085"><ele>336.0</ele><time>2026-04-30T17:13:36Z</time></trkpt><trkpt lat="44.631420775221365" lon="2.01929655099813"><ele>336.3333333333333</ele><time>2026-04-30T17:13:37Z</time></trkpt><trkpt lat="44.63135110207132" lon="2.0193183351725548"><ele>336.66666666666663</ele><time>2026-04-30T17:13:38Z</time></trkpt><trkpt lat="44.631276770020165" lon="2.019341795766117"><ele>337.0</ele><time>2026-04-30T17:13:39Z</time></trkpt><trkpt lat="44.63120059680958" lon="2.019372962752937"><ele>336.66666666666663</ele><time>2026-04-30T17:13:40Z</time></trkpt><trkpt lat="44.63112383767695" lon="2.0194057842745474"><ele>336.3333333333333</ele><time>2026-04-30T17:13:41Z</time></trkpt><trkpt lat="44.631049393631756" lon="2.0194408256638674"><ele>336.0</ele><time>2026-04-30T17:13:42Z</time></trkpt><trkpt lat="44.630985255936146" lon="2.019461349989873"><ele>335.6666666666667</ele><time>2026-04-30T17:13:43Z</time></trkpt><trkpt lat="44.63086063619308" lon="2.019484102654666"><ele>335.33333333333337</ele><time>2026-04-30T17:13:45Z</time></trkpt><trkpt lat="44.63078861555801" lon="2.0194996738834887"><ele>335.0</ele><time>2026-04-30T17:13:46Z</time></trkpt><trkpt lat="44.630703545155" lon="2.019529162100153"><ele>335.0</ele><time>2026-04-30T17:13:47Z</time></trkpt><trkpt lat="44.63062243359278" lon="2.0195725087301897"><ele>335.0</ele><time>2026-04-30T17:13:48Z</time></trkpt><trkpt lat="44.63055449672444" lon="2.019623208630476"><ele>335.0</ele><time>2026-04-30T17:13:49Z</time></trkpt><trkpt lat="44.6304897999309" lon="2.019664165997764"><ele>335.0</ele><time>2026-04-30T17:13:50Z</time></trkpt><trkpt lat="44.6304013845028" lon="2.019710849443255"><ele>335.0</ele><time>2026-04-30T17:13:51Z</time></trkpt><trkpt lat="44.630283777666314" lon="2.0197669979116033"><ele>333.5</ele><time>2026-04-30T17:13:52Z</time></trkpt><trkpt lat="44.63015409137774" lon="2.0198118045640117"><ele>332.0</ele><time>2026-04-30T17:13:53Z</time></trkpt><trkpt lat="44.63001172221656" lon="2.019851683068844"><ele>330.5</ele><time>2026-04-30T17:13:54Z</time></trkpt><trkpt lat="44.629865170129605" lon="2.0198682468354145"><ele>329.0</ele><time>2026-04-30T17:13:55Z</time></trkpt><trkpt lat="44.629744375008535" lon="2.0198782487014477"><ele>329.0</ele><time>2026-04-30T17:13:56Z</time></trkpt><trkpt lat="44.62963304722082" lon="2.0198905630800117"><ele>329.0</ele><time>2026-04-30T17:13:57Z</time></trkpt><trkpt lat="44.62953400315715" lon="2.019916141907926"><ele>329.0</ele><time>2026-04-30T17:13:58Z</time></trkpt><trkpt lat="44.62944826538623" lon="2.0199441427751257"><ele>329.0</ele><time>2026-04-30T17:13:59Z</time></trkpt><trkpt lat="44.62936722504787" lon="2.0199749427835587"><ele>329.0</ele><time>2026-04-30T17:14:00Z</time></trkpt><trkpt lat="44.62927332171408" lon="2.020014711707577"><ele>330.79999999999995</ele><time>2026-04-30T17:14:01Z</time></trkpt><trkpt lat="44.629177101325816" lon="2.020065040233936"><ele>332.59999999999997</ele><time>2026-04-30T17:14:02Z</time></trkpt><trkpt lat="44.629087622036664" lon="2.020116738746798"><ele>334.4</ele><time>2026-04-30T17:14:03Z</time></trkpt><trkpt lat="44.628991538077656" lon="2.0201378935989016"><ele>336.2</ele><time>2026-04-30T17:14:04Z</time></trkpt><trkpt lat="44.62890296332071" lon="2.0201779811672402"><ele>338.0</ele><time>2026-04-30T17:14:05Z</time></trkpt><trkpt lat="44.628814451623526" lon="2.0202395641353226"><ele>338.0</ele><time>2026-04-30T17:14:06Z</time></trkpt><trkpt lat="44.6287053636008" lon="2.020264504781722"><ele>338.0</ele><time>2026-04-30T17:14:07Z</time></trkpt><trkpt lat="44.62859374595126" lon="2.020331958220812"><ele>338.0</ele><time>2026-04-30T17:14:08Z</time></trkpt><trkpt lat="44.628495691289174" lon="2.0203703107096613"><ele>338.0</ele><time>2026-04-30T17:14:08.999Z</time></trkpt><trkpt lat="44.628405986571984" lon="2.0204080688809363"><ele>338.0</ele><time>2026-04-30T17:14:09.999Z</time></trkpt><trkpt lat="44.628320407545424" lon="2.020441166308392"><ele>337.4</ele><time>2026-04-30T17:14:10.999Z</time></trkpt><trkpt lat="44.62823825225514" lon="2.02047565992795"><ele>336.79999999999995</ele><time>2026-04-30T17:14:11.999Z</time></trkpt><trkpt lat="44.62814897675202" lon="2.020489253893873"><ele>336.2</ele><time>2026-04-30T17:14:12.999Z</time></trkpt><trkpt lat="44.62805335114352" lon="2.0205270348831017"><ele>335.6</ele><time>2026-04-30T17:14:13.999Z</time></trkpt><trkpt lat="44.62794688907336" lon="2.0205692532729276"><ele>335.0</ele><time>2026-04-30T17:14:14.999Z</time></trkpt><trkpt lat="44.62781916393494" lon="2.0206199038992825"><ele>335.25</ele><time>2026-04-30T17:14:16Z</time></trkpt><trkpt lat="44.62768713940361" lon="2.0206892149643694"><ele>335.5</ele><time>2026-04-30T17:14:17Z</time></trkpt><trkpt lat="44.62755558918365" lon="2.020728432100846"><ele>335.75</ele><time>2026-04-30T17:14:18Z</time></trkpt><trkpt lat="44.62743467616922" lon="2.0207783136438056"><ele>336.0</ele><time>2026-04-30T17:14:19Z</time></trkpt><trkpt lat="44.62731785386587" lon="2.020829057149237"><ele>336.0</ele><time>2026-04-30T17:14:20Z</time></trkpt><trkpt lat="44.62719684859648" lon="2.0208738298388806"><ele>336.0</ele><time>2026-04-30T17:14:21Z</time></trkpt><trkpt lat="44.62707487790024" lon="2.0209176788346093"><ele>336.0</ele><time>2026-04-30T17:14:22Z</time></trkpt><trkpt lat="44.62695443881275" lon="2.0209395350348327"><ele>336.0</ele><time>2026-04-30T17:14:23Z</time></trkpt><trkpt lat="44.62684388908619" lon="2.0209871322955992"><ele>334.20000000000005</ele><time>2026-04-30T17:14:24Z</time></trkpt><trkpt lat="44.626736821952704" lon="2.021032115915031"><ele>332.40000000000003</ele><time>2026-04-30T17:14:25Z</time></trkpt><trkpt lat="44.62663126922016" lon="2.021076721131828"><ele>330.6</ele><time>2026-04-30T17:14:26Z</time></trkpt><trkpt lat="44.626527709954495" lon="2.0211204821494064"><ele>328.8</ele><time>2026-04-30T17:14:27Z</time></trkpt><trkpt lat="44.626429709124935" lon="2.021185913161614"><ele>327.0</ele><time>2026-04-30T17:14:28Z</time></trkpt><trkpt lat="44.626323226373415" lon="2.021209822199885"><ele>327.0</ele><time>2026-04-30T17:14:29Z</time></trkpt><trkpt lat="44.626226332225144" lon="2.021254025335728"><ele>327.0</ele><time>2026-04-30T17:14:30Z</time></trkpt><trkpt lat="44.6261268257837" lon="2.021300179808553"><ele>327.0</ele><time>2026-04-30T17:14:31Z</time></trkpt><trkpt lat="44.626026404450975" lon="2.021346758631202"><ele>327.0</ele><time>2026-04-30T17:14:32Z</time></trkpt><trkpt lat="44.62592683188133" lon="2.0213929437805573"><ele>327.0</ele><time>2026-04-30T17:14:33Z</time></trkpt><trkpt lat="44.625831673114355" lon="2.021459197040753"><ele>326.6</ele><time>2026-04-30T17:14:34Z</time></trkpt><trkpt lat="44.62573323870091" lon="2.021503921256771"><ele>326.20000000000005</ele><time>2026-04-30T17:14:35Z</time></trkpt><trkpt lat="44.62563506564622" lon="2.0215522771916112"><ele>325.8</ele><time>2026-04-30T17:14:36Z</time></trkpt><trkpt lat="44.625531521018736" lon="2.021600405625071"><ele>325.4</ele><time>2026-04-30T17:14:37Z</time></trkpt><trkpt lat="44.6254284202178" lon="2.021650543059401"><ele>325.0</ele><time>2026-04-30T17:14:38Z</time></trkpt><trkpt lat="44.625321331937336" lon="2.0216773922241598"><ele>324.0</ele><time>2026-04-30T17:14:39Z</time></trkpt><trkpt lat="44.62520583301713" lon="2.021732665772105"><ele>323.0</ele><time>2026-04-30T17:14:40Z</time></trkpt><trkpt lat="44.625092290351034" lon="2.0218083417658934"><ele>322.0</ele><time>2026-04-30T17:14:41Z</time></trkpt><trkpt lat="44.62498120779018" lon="2.021857875672513"><ele>321.0</ele><time>2026-04-30T17:14:42Z</time></trkpt><trkpt lat="44.62487425472734" lon="2.0219026662033674"><ele>321.0</ele><time>2026-04-30T17:14:43Z</time></trkpt><trkpt lat="44.624773472073485" lon="2.021943110433207"><ele>321.0</ele><time>2026-04-30T17:14:44Z</time></trkpt><trkpt lat="44.62467364096232" lon="2.021978935103962"><ele>321.0</ele><time>2026-04-30T17:14:45Z</time></trkpt><trkpt lat="44.62457736507828" lon="2.02201837243596"><ele>321.0</ele><time>2026-04-30T17:14:46Z</time></trkpt><trkpt lat="44.62448425087592" lon="2.022051607126287"><ele>321.0</ele><time>2026-04-30T17:14:47Z</time></trkpt><trkpt lat="44.62441069197556" lon="2.0220800596359676"><ele>320.2</ele><time>2026-04-30T17:14:48Z</time></trkpt><trkpt lat="44.62434881841889" lon="2.0221038740190385"><ele>319.40000000000003</ele><time>2026-04-30T17:14:49Z</time></trkpt><trkpt lat="44.62427720826192" lon="2.022126581181806"><ele>318.6</ele><time>2026-04-30T17:14:50Z</time></trkpt><trkpt lat="44.62417870278228" lon="2.0221546272293236"><ele>317.8</ele><time>2026-04-30T17:14:51Z</time></trkpt><trkpt lat="44.62405756429208" lon="2.0221958587159863"><ele>317.0</ele><time>2026-04-30T17:14:52Z</time></trkpt><trkpt lat="44.62393317326954" lon="2.022235363306919"><ele>317.0</ele><time>2026-04-30T17:14:53Z</time></trkpt><trkpt lat="44.62382053306055" lon="2.022273810256696"><ele>317.0</ele><time>2026-04-30T17:14:54Z</time></trkpt><trkpt lat="44.623715120855145" lon="2.0223097312917333"><ele>317.0</ele><time>2026-04-30T17:14:55Z</time></trkpt><trkpt lat="44.62361213448446" lon="2.022345030436757"><ele>317.0</ele><time>2026-04-30T17:14:56Z</time></trkpt><trkpt lat="44.623513058515975" lon="2.022382044538019"><ele>317.0</ele><time>2026-04-30T17:14:57Z</time></trkpt><trkpt lat="44.62341198531244" lon="2.0224135093821585"><ele>316.6</ele><time>2026-04-30T17:14:58Z</time></trkpt><trkpt lat="44.623308641146544" lon="2.0224473492455375"><ele>316.2</ele><time>2026-04-30T17:14:59Z</time></trkpt><trkpt lat="44.62320096965705" lon="2.022481701668231"><ele>315.8</ele><time>2026-04-30T17:15:00Z</time></trkpt><trkpt lat="44.623089135999514" lon="2.022509101864919"><ele>315.4</ele><time>2026-04-30T17:15:01Z</time></trkpt><trkpt lat="44.622975215479194" lon="2.022537251090661"><ele>315.0</ele><time>2026-04-30T17:15:02Z</time></trkpt><trkpt lat="44.62284230214107" lon="2.022576429107159"><ele>313.5</ele><time>2026-04-30T17:15:03Z</time></trkpt><trkpt lat="44.62270716371476" lon="2.0226280235560554"><ele>312.0</ele><time>2026-04-30T17:15:04Z</time></trkpt><trkpt lat="44.62258260070003" lon="2.022682731200864"><ele>310.5</ele><time>2026-04-30T17:15:05Z</time></trkpt><trkpt lat="44.622466407109854" lon="2.0227384603150735"><ele>309.0</ele><time>2026-04-30T17:15:06Z</time></trkpt><trkpt lat="44.62235580478098" lon="2.0227979897157575"><ele>309.0</ele><time>2026-04-30T17:15:07Z</time></trkpt><trkpt lat="44.62225247370582" lon="2.022854503645496"><ele>309.0</ele><time>2026-04-30T17:15:08Z</time></trkpt><trkpt lat="44.62215409432645" lon="2.022905609509054"><ele>309.0</ele><time>2026-04-30T17:15:09Z</time></trkpt><trkpt lat="44.62206268725297" lon="2.0229574474149548"><ele>309.0</ele><time>2026-04-30T17:15:10Z</time></trkpt><trkpt lat="44.62197479644093" lon="2.0230139997558663"><ele>309.0</ele><time>2026-04-30T17:15:11Z</time></trkpt><trkpt lat="44.62188143381681" lon="2.0230679523440154"><ele>308.8</ele><time>2026-04-30T17:15:12Z</time></trkpt><trkpt lat="44.621785604322504" lon="2.023122686847676"><ele>308.59999999999997</ele><time>2026-04-30T17:15:13Z</time></trkpt><trkpt lat="44.62169475500534" lon="2.0231740155308735"><ele>308.4</ele><time>2026-04-30T17:15:14Z</time></trkpt><trkpt lat="44.6216062310962" lon="2.0232254818884052"><ele>308.2</ele><time>2026-04-30T17:15:15Z</time></trkpt><trkpt lat="44.62151459499224" lon="2.023274989349684"><ele>308.0</ele><time>2026-04-30T17:15:16Z</time></trkpt><trkpt lat="44.62140528129548" lon="2.023340059206552"><ele>308.0</ele><time>2026-04-30T17:15:17Z</time></trkpt><trkpt lat="44.62128687311186" lon="2.0234166993931852"><ele>308.0</ele><time>2026-04-30T17:15:18Z</time></trkpt><trkpt lat="44.6211639738912" lon="2.0234959691356234"><ele>308.0</ele><time>2026-04-30T17:15:19Z</time></trkpt><trkpt lat="44.62103511332571" lon="2.023585037238998"><ele>308.0</ele><time>2026-04-30T17:15:20Z</time></trkpt><trkpt lat="44.62091018062941" lon="2.0236439187074065"><ele>307.4</ele><time>2026-04-30T17:15:21Z</time></trkpt><trkpt lat="44.62080400934935" lon="2.0237139251610015"><ele>306.8</ele><time>2026-04-30T17:15:22Z</time></trkpt><trkpt lat="44.620704788905144" lon="2.0237807817059683"><ele>306.2</ele><time>2026-04-30T17:15:23Z</time></trkpt><trkpt lat="44.62061345379787" lon="2.023868967189582"><ele>305.6</ele><time>2026-04-30T17:15:24Z</time></trkpt><trkpt lat="44.620515842218374" lon="2.023927625209396"><ele>305.0</ele><time>2026-04-30T17:15:25Z</time></trkpt><trkpt lat="44.62041700525597" lon="2.0239918626755213"><ele>305.0</ele><time>2026-04-30T17:15:26Z</time></trkpt><trkpt lat="44.62032744840511" lon="2.024057760484244"><ele>305.0</ele><time>2026-04-30T17:15:27Z</time></trkpt><trkpt lat="44.620254117254476" lon="2.024115577510795"><ele>305.0</ele><time>2026-04-30T17:15:28Z</time></trkpt><trkpt lat="44.62019304068546" lon="2.0241586692852"><ele>305.0</ele><time>2026-04-30T17:15:29Z</time></trkpt><trkpt lat="44.62011048166587" lon="2.0242087304137133"><ele>305.0</ele><time>2026-04-30T17:15:31Z</time></trkpt><trkpt lat="44.62008732865958" lon="2.024330532476511"><ele>305.0</ele><time>2026-04-30T17:15:34Z</time></trkpt><trkpt lat="44.62007541118746" lon="2.024431717716988"><ele>305.33333333333337</ele><time>2026-04-30T17:15:36Z</time></trkpt><trkpt lat="44.62004366122802" lon="2.0245118913276148"><ele>305.6666666666667</ele><time>2026-04-30T17:15:37Z</time></trkpt><trkpt lat="44.62001583161498" lon="2.0246155922101265"><ele>306.0</ele><time>2026-04-30T17:15:38Z</time></trkpt><trkpt lat="44.61998840885656" lon="2.0247024991850364"><ele>306.3333333333333</ele><time>2026-04-30T17:15:39Z</time></trkpt><trkpt lat="44.61993841428194" lon="2.024851206173368"><ele>306.66666666666663</ele><time>2026-04-30T17:15:41Z</time></trkpt><trkpt lat="44.61990534157281" lon="2.0249450339549915"><ele>307.0</ele><time>2026-04-30T17:15:42Z</time></trkpt><trkpt lat="44.61987169263392" lon="2.0250370769943133"><ele>307.5</ele><time>2026-04-30T17:15:43Z</time></trkpt><trkpt lat="44.61981485838809" lon="2.025190435457197"><ele>308.0</ele><time>2026-04-30T17:15:45Z</time></trkpt><trkpt lat="44.61977051814336" lon="2.0253443447200743"><ele>308.5</ele><time>2026-04-30T17:15:47Z</time></trkpt><trkpt lat="44.619705191669254" lon="2.025471396192844"><ele>309.0</ele><time>2026-04-30T17:15:49Z</time></trkpt><trkpt lat="44.61965138109612" lon="2.025601103726823"><ele>309.0</ele><time>2026-04-30T17:15:51Z</time></trkpt><trkpt lat="44.619587401713375" lon="2.025713267179975"><ele>309.0</ele><time>2026-04-30T17:15:53Z</time></trkpt><trkpt lat="44.619531600462544" lon="2.025851428800596"><ele>309.0</ele><time>2026-04-30T17:15:55Z</time></trkpt><trkpt lat="44.61947343630436" lon="2.0259738945080445"><ele>309.0</ele><time>2026-04-30T17:15:57Z</time></trkpt><trkpt lat="44.619415858379945" lon="2.02610346226038"><ele>309.0</ele><time>2026-04-30T17:15:59Z</time></trkpt><trkpt lat="44.619366456227645" lon="2.026225130959803"><ele>306.8</ele><time>2026-04-30T17:16:00.999Z</time></trkpt><trkpt lat="44.61929501146473" lon="2.0263272066064175"><ele>304.59999999999997</ele><time>2026-04-30T17:16:02.999Z</time></trkpt><trkpt lat="44.619210037350264" lon="2.02637322129436"><ele>302.4</ele><time>2026-04-30T17:16:04.999Z</time></trkpt><trkpt lat="44.61912070926707" lon="2.026429601533497"><ele>300.2</ele><time>2026-04-30T17:16:06.999Z</time></trkpt><trkpt lat="44.6190294154361" lon="2.0264872223499277"><ele>298.0</ele><time>2026-04-30T17:16:08.999Z</time></trkpt><trkpt lat="44.61892732145969" lon="2.026548573054394"><ele>298.0</ele><time>2026-04-30T17:16:10.999Z</time></trkpt><trkpt lat="44.61883612864257" lon="2.026598172531417"><ele>298.0</ele><time>2026-04-30T17:16:12.999Z</time></trkpt><trkpt lat="44.61878738852259" lon="2.026668855155242"><ele>298.0</ele><time>2026-04-30T17:16:14.999Z</time></trkpt><trkpt lat="44.618713515195296" lon="2.0266647783703324"><ele>298.0</ele><time>2026-04-30T17:16:16.999Z</time></trkpt><trkpt lat="44.61860673920117" lon="2.0266034559554775"><ele>298.0</ele><time>2026-04-30T17:16:18.999Z</time></trkpt><trkpt lat="44.618557083217276" lon="2.0265448078654824"><ele>298.0</ele><time>2026-04-30T17:16:19.999Z</time></trkpt><trkpt lat="44.61847044112327" lon="2.0264490186950286"><ele>296.2</ele><time>2026-04-30T17:16:22Z</time></trkpt><trkpt lat="44.618382181288126" lon="2.02638122929547"><ele>294.4</ele><time>2026-04-30T17:16:24Z</time></trkpt><trkpt lat="44.61828817941978" lon="2.0263179909037903"><ele>292.59999999999997</ele><time>2026-04-30T17:16:26Z</time></trkpt><trkpt lat="44.61818040721814" lon="2.0262855663025423"><ele>290.8</ele><time>2026-04-30T17:16:28Z</time></trkpt><trkpt lat="44.61806703790017" lon="2.026289515396428"><ele>289.0</ele><time>2026-04-30T17:16:30Z</time></trkpt><trkpt lat="44.617962864785206" lon="2.0262880370192264"><ele>289.0</ele><time>2026-04-30T17:16:32Z</time></trkpt><trkpt lat="44.61787081431163" lon="2.0262591188456236"><ele>289.0</ele><time>2026-04-30T17:16:34Z</time></trkpt><trkpt lat="44.6177935067263" lon="2.0261480616504532"><ele>289.0</ele><time>2026-04-30T17:16:36Z</time></trkpt><trkpt lat="44.617770881256476" lon="2.026065080185912"><ele>289.0</ele><time>2026-04-30T17:16:37Z</time></trkpt><trkpt lat="44.61775440719989" lon="2.0259405317355244"><ele>289.0</ele><time>2026-04-30T17:16:38Z</time></trkpt><trkpt lat="44.61773707200567" lon="2.0257918917860667"><ele>287.16666666666663</ele><time>2026-04-30T17:16:39Z</time></trkpt><trkpt lat="44.617723767890915" lon="2.0256607430777036"><ele>285.3333333333333</ele><time>2026-04-30T17:16:40Z</time></trkpt><trkpt lat="44.617714618515535" lon="2.025546671324563"><ele>283.5</ele><time>2026-04-30T17:16:41Z</time></trkpt><trkpt lat="44.61771147363542" lon="2.025451004319208"><ele>281.6666666666667</ele><time>2026-04-30T17:16:42Z</time></trkpt><trkpt lat="44.61771367213122" lon="2.0253232295734818"><ele>279.83333333333337</ele><time>2026-04-30T17:16:44Z</time></trkpt><trkpt lat="44.617703721667965" lon="2.025233401467298"><ele>278.0</ele><time>2026-04-30T17:16:47Z</time></trkpt><trkpt lat="44.61769563890741" lon="2.025098348731819"><ele>278.0</ele><time>2026-04-30T17:16:54Z</time></trkpt><trkpt lat="44.61772085364393" lon="2.025009918168432"><ele>278.0</ele><time>2026-04-30T17:16:55Z</time></trkpt><trkpt lat="44.61777004718103" lon="2.0249132379961954"><ele>278.0</ele><time>2026-04-30T17:16:56Z</time></trkpt><trkpt lat="44.617826159225054" lon="2.0248149732804688"><ele>278.0</ele><time>2026-04-30T17:16:57Z</time></trkpt><trkpt lat="44.61786891993193" lon="2.024748378430489"><ele>278.0</ele><time>2026-04-30T17:16:58Z</time></trkpt><trkpt lat="44.61792648812648" lon="2.024644792623715"><ele>278.0</ele><time>2026-04-30T17:17:00Z</time></trkpt><trkpt lat="44.61796340374439" lon="2.024523040471421"><ele>279.1666666666667</ele><time>2026-04-30T17:17:02Z</time></trkpt><trkpt lat="44.6179804430214" lon="2.0244085516089823"><ele>280.33333333333337</ele><time>2026-04-30T17:17:04Z</time></trkpt><trkpt lat="44.617983160635454" lon="2.024315239723221"><ele>281.5</ele><time>2026-04-30T17:17:06Z</time></trkpt><trkpt lat="44.61797526652159" lon="2.024217273112549"><ele>282.6666666666667</ele><time>2026-04-30T17:17:08Z</time></trkpt><trkpt lat="44.61805063452773" lon="2.024166935834032"><ele>283.8333333333333</ele><time>2026-04-30T17:17:09Z</time></trkpt><trkpt lat="44.61810597889318" lon="2.0240866043024077"><ele>285.0</ele><time>2026-04-30T17:17:11Z</time></trkpt><trkpt lat="44.618161392520555" lon="2.024026075427205"><ele>285.0</ele><time>2026-04-30T17:17:13Z</time></trkpt><trkpt lat="44.61819693212049" lon="2.023951447033096"><ele>285.0</ele><time>2026-04-30T17:17:15Z</time></trkpt><trkpt lat="44.61824538988358" lon="2.023873131706922"><ele>285.0</ele><time>2026-04-30T17:17:17Z</time></trkpt><trkpt lat="44.61830887129167" lon="2.023775941821852"><ele>285.0</ele><time>2026-04-30T17:17:20Z</time></trkpt><trkpt lat="44.61837829863268" lon="2.023701415158862"><ele>285.0</ele><time>2026-04-30T17:17:22Z</time></trkpt><trkpt lat="44.61843506308924" lon="2.0236049722403755"><ele>285.0</ele><time>2026-04-30T17:17:24Z</time></trkpt><trkpt lat="44.61850983787295" lon="2.0235300532125056"><ele>285.0</ele><time>2026-04-30T17:17:26Z</time></trkpt><trkpt lat="44.618580176365676" lon="2.02346065075643"><ele>285.0</ele><time>2026-04-30T17:17:28Z</time></trkpt><trkpt lat="44.61865482533593" lon="2.023381909910721"><ele>285.0</ele><time>2026-04-30T17:17:30Z</time></trkpt><trkpt lat="44.61872870280296" lon="2.023296510497856"><ele>285.0</ele><time>2026-04-30T17:17:32Z</time></trkpt><trkpt lat="44.61881898626147" lon="2.0232229871281326"><ele>285.0</ele><time>2026-04-30T17:17:34Z</time></trkpt><trkpt lat="44.61889460453378" lon="2.023149004265127"><ele>284.0</ele><time>2026-04-30T17:17:36Z</time></trkpt><trkpt lat="44.61897213163841" lon="2.0230813648832897"><ele>283.0</ele><time>2026-04-30T17:17:38Z</time></trkpt><trkpt lat="44.6190456638353" lon="2.0230391595596777"><ele>282.0</ele><time>2026-04-30T17:17:40Z</time></trkpt><trkpt lat="44.619144846714434" lon="2.0230272574619446"><ele>281.0</ele><time>2026-04-30T17:17:42Z</time></trkpt><trkpt lat="44.619240429231944" lon="2.022998312189957"><ele>280.0</ele><time>2026-04-30T17:17:44Z</time></trkpt><trkpt lat="44.61934586614802" lon="2.0229301416541583"><ele>280.0</ele><time>2026-04-30T17:17:46Z</time></trkpt><trkpt lat="44.61940862743659" lon="2.022877134906709"><ele>280.0</ele><time>2026-04-30T17:17:47Z</time></trkpt><trkpt lat="44.61948544041493" lon="2.0227911002803287"><ele>280.0</ele><time>2026-04-30T17:17:49Z</time></trkpt><trkpt lat="44.6195558729499" lon="2.0226932192585942"><ele>280.0</ele><time>2026-04-30T17:17:51Z</time></trkpt><trkpt lat="44.61960010407015" lon="2.0226295440998867"><ele>280.0</ele><time>2026-04-30T17:17:52Z</time></trkpt><trkpt lat="44.619670901079104" lon="2.0225122414312287"><ele>280.0</ele><time>2026-04-30T17:17:53.999Z</time></trkpt><trkpt lat="44.61973325055332" lon="2.0224074718138714"><ele>279.3333333333333</ele><time>2026-04-30T17:17:55.999Z</time></trkpt><trkpt lat="44.61981095816015" lon="2.022338317848624"><ele>278.66666666666663</ele><time>2026-04-30T17:17:57.999Z</time></trkpt><trkpt lat="44.61986935527747" lon="2.0222496784839934"><ele>278.0</ele><time>2026-04-30T17:17:59.999Z</time></trkpt><trkpt lat="44.619935454329315" lon="2.022168176570774"><ele>277.3333333333333</ele><time>2026-04-30T17:18:01.999Z</time></trkpt><trkpt lat="44.619991993733954" lon="2.0220894932580116"><ele>276.6666666666667</ele><time>2026-04-30T17:18:03.999Z</time></trkpt><trkpt lat="44.62003571243722" lon="2.0219899665519447"><ele>276.0</ele><time>2026-04-30T17:18:05.999Z</time></trkpt><trkpt lat="44.620072504724014" lon="2.0218786499689907"><ele>276.0</ele><time>2026-04-30T17:18:07.999Z</time></trkpt><trkpt lat="44.62010748054084" lon="2.021763520993834"><ele>276.0</ele><time>2026-04-30T17:18:09.999Z</time></trkpt><trkpt lat="44.62013972762275" lon="2.021655819595996"><ele>276.0</ele><time>2026-04-30T17:18:11.999Z</time></trkpt><trkpt lat="44.62018531557609" lon="2.021561952136328"><ele>276.0</ele><time>2026-04-30T17:18:13.999Z</time></trkpt><trkpt lat="44.62024388994046" lon="2.021442463609034"><ele>276.0</ele><time>2026-04-30T17:18:15.999Z</time></trkpt><trkpt lat="44.62029920110762" lon="2.0213368295855627"><ele>275.6</ele><time>2026-04-30T17:18:17.999Z</time></trkpt><trkpt lat="44.620369238556954" lon="2.0212423477843537"><ele>275.20000000000005</ele><time>2026-04-30T17:18:19.999Z</time></trkpt><trkpt lat="44.62043159026624" lon="2.0211035407287103"><ele>274.79999999999995</ele><time>2026-04-30T17:18:21.999Z</time></trkpt><trkpt lat="44.62048558190894" lon="2.0210084417453773"><ele>274.4</ele><time>2026-04-30T17:18:23.999Z</time></trkpt><trkpt lat="44.62053653850077" lon="2.020898316744587"><ele>274.0</ele><time>2026-04-30T17:18:25.999Z</time></trkpt><trkpt lat="44.62060405240792" lon="2.0207952670154192"><ele>274.0</ele><time>2026-04-30T17:18:28Z</time></trkpt><trkpt lat="44.62066715448592" lon="2.0206927853562693"><ele>274.0</ele><time>2026-04-30T17:18:30Z</time></trkpt><trkpt lat="44.62074157636998" lon="2.0205985593562836"><ele>274.0</ele><time>2026-04-30T17:18:32Z</time></trkpt><trkpt lat="44.62081926501941" lon="2.020488414666175"><ele>274.0</ele><time>2026-04-30T17:18:34Z</time></trkpt><trkpt lat="44.62089028565848" lon="2.0203970121820163"><ele>274.0</ele><time>2026-04-30T17:18:36Z</time></trkpt><trkpt lat="44.62095693832148" lon="2.0203204882599266"><ele>274.0</ele><time>2026-04-30T17:18:38Z</time></trkpt><trkpt lat="44.621021602581116" lon="2.0202474332333864"><ele>274.0</ele><time>2026-04-30T17:18:40Z</time></trkpt><trkpt lat="44.62108685150318" lon="2.020185934293905"><ele>274.0</ele><time>2026-04-30T17:18:42Z</time></trkpt><trkpt lat="44.62116170354024" lon="2.020142845478438"><ele>274.0</ele><time>2026-04-30T17:18:44Z</time></trkpt><trkpt lat="44.62123073110608" lon="2.020076044623766"><ele>274.0</ele><time>2026-04-30T17:18:46Z</time></trkpt><trkpt lat="44.621273105692936" lon="2.0199936189456524"><ele>274.0</ele><time>2026-04-30T17:18:48Z</time></trkpt><trkpt lat="44.621349864235334" lon="2.0199088881880916"><ele>273.5</ele><time>2026-04-30T17:18:51Z</time></trkpt><trkpt lat="44.62139578986149" lon="2.019832868823218"><ele>273.0</ele><time>2026-04-30T17:18:53Z</time></trkpt><trkpt lat="44.621421481973556" lon="2.0197354148192317"><ele>272.5</ele><time>2026-04-30T17:18:55Z</time></trkpt><trkpt lat="44.62144658416242" lon="2.019606682063061"><ele>272.0</ele><time>2026-04-30T17:18:58Z</time></trkpt><trkpt lat="44.62148646043109" lon="2.0195165102750625"><ele>271.5</ele><time>2026-04-30T17:19:00Z</time></trkpt><trkpt lat="44.6215361673709" lon="2.0194212841972004"><ele>271.0</ele><time>2026-04-30T17:19:02Z</time></trkpt><trkpt lat="44.621582217551556" lon="2.0193423683776515"><ele>271.0</ele><time>2026-04-30T17:19:04Z</time></trkpt><trkpt lat="44.621630248224974" lon="2.0192718477374005"><ele>271.0</ele><time>2026-04-30T17:19:06Z</time></trkpt><trkpt lat="44.621705970321834" lon="2.019211010435026"><ele>271.0</ele><time>2026-04-30T17:19:09Z</time></trkpt><trkpt lat="44.62175723222938" lon="2.019117774721715"><ele>271.0</ele><time>2026-04-30T17:19:11Z</time></trkpt><trkpt lat="44.621712003115455" lon="2.01902838913023"><ele>271.0</ele><time>2026-04-30T17:19:16Z</time></trkpt><trkpt lat="44.62162172506112" lon="2.0190333211819507"><ele>271.0</ele><time>2026-04-30T17:19:23Z</time></trkpt><trkpt lat="44.62156702374813" lon="2.019084567242565"><ele>269.66666666666663</ele><time>2026-04-30T17:19:27Z</time></trkpt><trkpt lat="44.62162462882373" lon="2.019136161626845"><ele>268.3333333333333</ele><time>2026-04-30T17:19:30Z</time></trkpt><trkpt lat="44.621679308780415" lon="2.0190902641024837"><ele>267.0</ele><time>2026-04-30T17:19:32Z</time></trkpt><trkpt lat="44.62166120337027" lon="2.018960963562302"><ele>265.6666666666667</ele><time>2026-04-30T17:19:36Z</time></trkpt><trkpt lat="44.62163839514716" lon="2.0188677757288036"><ele>264.33333333333337</ele><time>2026-04-30T17:19:39Z</time></trkpt><trkpt lat="44.62158500783034" lon="2.0187987527312896"><ele>263.0</ele><time>2026-04-30T17:19:42Z</time></trkpt><trkpt lat="44.621508772921736" lon="2.0187479037375993"><ele>263.0</ele><time>2026-04-30T17:19:46Z</time></trkpt><trkpt lat="44.62144576509722" lon="2.018772210655612"><ele>263.0</ele><time>2026-04-30T17:19:49Z</time></trkpt><trkpt lat="44.62136486856471" lon="2.018827087148399"><ele>263.0</ele><time>2026-04-30T17:19:53Z</time></trkpt><trkpt lat="44.62137426531498" lon="2.0189366499059003"><ele>263.0</ele><time>2026-04-30T17:19:56.999Z</time></trkpt><trkpt lat="44.62145529735102" lon="2.0188894490201865"><ele>263.0</ele><time>2026-04-30T17:19:58.999Z</time></trkpt><trkpt lat="44.621539228133514" lon="2.0189106183184307"><ele>263.0</ele><time>2026-04-30T17:20:01.999Z</time></trkpt><trkpt lat="44.62155881321413" lon="2.0190434186803885"><ele>263.0</ele><time>2026-04-30T17:20:04.999Z</time></trkpt><trkpt lat="44.62163939590312" lon="2.0190863375436456"><ele>263.0</ele><time>2026-04-30T17:20:07.999Z</time></trkpt><trkpt lat="44.62175158088668" lon="2.0190626649360035"><ele>263.0</ele><time>2026-04-30T17:20:09.999Z</time></trkpt><trkpt lat="44.62182349846504" lon="2.019043029554468"><ele>263.0</ele><time>2026-04-30T17:20:10.999Z</time></trkpt><trkpt lat="44.6219057929407" lon="2.0189985158348147"><ele>263.0</ele><time>2026-04-30T17:20:11.999Z</time></trkpt><trkpt lat="44.62198732855073" lon="2.018943487305066"><ele>263.5</ele><time>2026-04-30T17:20:12.999Z</time></trkpt><trkpt lat="44.62205721441181" lon="2.0188903948129844"><ele>264.0</ele><time>2026-04-30T17:20:13.999Z</time></trkpt><trkpt lat="44.62211730121578" lon="2.0188460285714656"><ele>264.5</ele><time>2026-04-30T17:20:14.999Z</time></trkpt><trkpt lat="44.62217848803864" lon="2.0188054221776444"><ele>265.0</ele><time>2026-04-30T17:20:15.999Z</time></trkpt><trkpt lat="44.622249058323355" lon="2.01875948691684"><ele>265.5</ele><time>2026-04-30T17:20:16.999Z</time></trkpt><trkpt lat="44.62232677021227" lon="2.018705566908"><ele>266.0</ele><time>2026-04-30T17:20:17.999Z</time></trkpt><trkpt lat="44.622400369538475" lon="2.0186577291845613"><ele>266.0</ele><time>2026-04-30T17:20:18.999Z</time></trkpt><trkpt lat="44.62246645908842" lon="2.0186150848514894"><ele>266.0</ele><time>2026-04-30T17:20:19.999Z</time></trkpt><trkpt lat="44.622527609452575" lon="2.018575995109315"><ele>266.0</ele><time>2026-04-30T17:20:20.999Z</time></trkpt><trkpt lat="44.6225886976094" lon="2.0185300210912227"><ele>266.0</ele><time>2026-04-30T17:20:21.999Z</time></trkpt><trkpt lat="44.622649937805136" lon="2.018486208512454"><ele>266.0</ele><time>2026-04-30T17:20:22.999Z</time></trkpt><trkpt lat="44.62270906011509" lon="2.018448875322421"><ele>266.0</ele><time>2026-04-30T17:20:23.999Z</time></trkpt><trkpt lat="44.622767481964466" lon="2.0184121221454894"><ele>266.0</ele><time>2026-04-30T17:20:24.999Z</time></trkpt><trkpt lat="44.622872431524804" lon="2.018342699223027"><ele>264.0</ele><time>2026-04-30T17:20:26.999Z</time></trkpt><trkpt lat="44.62297721366996" lon="2.018253358202919"><ele>262.0</ele><time>2026-04-30T17:20:28.999Z</time></trkpt><trkpt lat="44.62303612170088" lon="2.0181988713220074"><ele>260.0</ele><time>2026-04-30T17:20:29.999Z</time></trkpt><trkpt lat="44.62312935100338" lon="2.018104330645434"><ele>258.0</ele><time>2026-04-30T17:20:31.999Z</time></trkpt><trkpt lat="44.62321506657035" lon="2.018033140872669"><ele>256.0</ele><time>2026-04-30T17:20:34Z</time></trkpt><trkpt lat="44.62332831610691" lon="2.017968629282145"><ele>255.99999999999997</ele><time>2026-04-30T17:20:36Z</time></trkpt><trkpt lat="44.623391294420074" lon="2.0179396235471887"><ele>256.0</ele><time>2026-04-30T17:20:37Z</time></trkpt><trkpt lat="44.623453863196204" lon="2.0179063092232763"><ele>256.0</ele><time>2026-04-30T17:20:38Z</time></trkpt><trkpt lat="44.62355360208985" lon="2.0178434249322765"><ele>256.0</ele><time>2026-04-30T17:20:40Z</time></trkpt><trkpt lat="44.62362777301293" lon="2.0177839434052687"><ele>255.99999999999997</ele><time>2026-04-30T17:20:42Z</time></trkpt><trkpt lat="44.6236942448223" lon="2.0177694278446943"><ele>256.0</ele><time>2026-04-30T17:20:44Z</time></trkpt><trkpt lat="44.6237420924868" lon="2.017707416556775"><ele>256.0</ele><time>2026-04-30T17:20:49Z</time></trkpt><trkpt lat="44.62363586083693" lon="2.017638322958933"><ele>256.0</ele><time>2026-04-30T17:20:53Z</time></trkpt><trkpt lat="44.623490061356236" lon="2.017651890608212"><ele>256.0</ele><time>2026-04-30T17:20:55Z</time></trkpt><trkpt lat="44.62339381042239" lon="2.0176367380547573"><ele>256.0</ele><time>2026-04-30T17:20:56Z</time></trkpt><trkpt lat="44.62330525062613" lon="2.0176151012434977"><ele>256.0</ele><time>2026-04-30T17:20:57Z</time></trkpt><trkpt lat="44.62322183052604" lon="2.0175770884381063"><ele>256.0</ele><time>2026-04-30T17:20:58Z</time></trkpt><trkpt lat="44.623132144462716" lon="2.0175223610108057"><ele>256.0</ele><time>2026-04-30T17:20:59Z</time></trkpt><trkpt lat="44.62301662653846" lon="2.0174484904300276"><ele>256.0</ele><time>2026-04-30T17:21:00Z</time></trkpt><trkpt lat="44.6229052331683" lon="2.017381834190931"><ele>256.0</ele><time>2026-04-30T17:21:01Z</time></trkpt><trkpt lat="44.622770865231985" lon="2.0173041569950962"><ele>252.66666666666666</ele><time>2026-04-30T17:21:02Z</time></trkpt><trkpt lat="44.6225874772952" lon="2.017221418546608"><ele>249.33333333333331</ele><time>2026-04-30T17:21:03Z</time></trkpt><trkpt lat="44.62238121328621" lon="2.017100796231742"><ele>246.0</ele><time>2026-04-30T17:21:04Z</time></trkpt><trkpt lat="44.622184834131545" lon="2.016984080185007"><ele>246.0</ele><time>2026-04-30T17:21:05Z</time></trkpt><trkpt lat="44.62202301154124" lon="2.0168660335813047"><ele>246.0</ele><time>2026-04-30T17:21:06Z</time></trkpt><trkpt lat="44.62188162325184" lon="2.0168037429069208"><ele>246.0</ele><time>2026-04-30T17:21:07Z</time></trkpt><trkpt lat="44.62174892068979" lon="2.0167179591366517"><ele>244.5</ele><time>2026-04-30T17:21:08Z</time></trkpt><trkpt lat="44.621617224686624" lon="2.0166215178224722"><ele>243.0</ele><time>2026-04-30T17:21:09Z</time></trkpt><trkpt lat="44.62148736934893" lon="2.0165398424065146"><ele>241.5</ele><time>2026-04-30T17:21:10Z</time></trkpt><trkpt lat="44.62137170647279" lon="2.016470594588335"><ele>240.0</ele><time>2026-04-30T17:21:11Z</time></trkpt><trkpt lat="44.621275259731966" lon="2.016413317055885"><ele>240.0</ele><time>2026-04-30T17:21:12Z</time></trkpt><trkpt lat="44.621188071031355" lon="2.0163615377109814"><ele>240.0</ele><time>2026-04-30T17:21:13Z</time></trkpt><trkpt lat="44.621119628694075" lon="2.016320891459026"><ele>240.0</ele><time>2026-04-30T17:21:14Z</time></trkpt><trkpt lat="44.62101375877068" lon="2.016264064892736"><ele>240.0</ele><time>2026-04-30T17:21:16Z</time></trkpt><trkpt lat="44.62090168437353" lon="2.01622689862425"><ele>240.0</ele><time>2026-04-30T17:21:18Z</time></trkpt><trkpt lat="44.62080087363499" lon="2.0162008688011785"><ele>238.6</ele><time>2026-04-30T17:21:20Z</time></trkpt><trkpt lat="44.620663811544254" lon="2.0161673268780675"><ele>237.2</ele><time>2026-04-30T17:21:22Z</time></trkpt><trkpt lat="44.62055735849769" lon="2.0161423216199403"><ele>235.8</ele><time>2026-04-30T17:21:23Z</time></trkpt><trkpt lat="44.6204537892304" lon="2.0161179937613483"><ele>234.4</ele><time>2026-04-30T17:21:24Z</time></trkpt><trkpt lat="44.62036190227236" lon="2.016094443165123"><ele>233.0</ele><time>2026-04-30T17:21:25Z</time></trkpt><trkpt lat="44.62027501581501" lon="2.016072030194468"><ele>232.16666666666669</ele><time>2026-04-30T17:21:26Z</time></trkpt><trkpt lat="44.62018999463011" lon="2.0160500983775043"><ele>231.33333333333334</ele><time>2026-04-30T17:21:27Z</time></trkpt><trkpt lat="44.62011080762751" lon="2.016027431745065"><ele>230.5</ele><time>2026-04-30T17:21:28Z</time></trkpt><trkpt lat="44.62003356961701" lon="2.0159995190613778"><ele>229.66666666666669</ele><time>2026-04-30T17:21:29Z</time></trkpt><trkpt lat="44.61996030869184" lon="2.0159519090918496"><ele>228.83333333333334</ele><time>2026-04-30T17:21:30Z</time></trkpt><trkpt lat="44.61988616332986" lon="2.0158933220366753"><ele>228.0</ele><time>2026-04-30T17:21:31Z</time></trkpt><trkpt lat="44.6198263630376" lon="2.0158015588378615"><ele>227.66666666666666</ele><time>2026-04-30T17:21:32Z</time></trkpt><trkpt lat="44.619769332267694" lon="2.0157060607161426"><ele>227.33333333333331</ele><time>2026-04-30T17:21:33Z</time></trkpt><trkpt lat="44.61971007840908" lon="2.0156224130900586"><ele>227.0</ele><time>2026-04-30T17:21:34Z</time></trkpt><trkpt lat="44.619669051146445" lon="2.015521021670358"><ele>226.66666666666666</ele><time>2026-04-30T17:21:35Z</time></trkpt><trkpt lat="44.619591128288434" lon="2.0154724434685227"><ele>226.33333333333331</ele><time>2026-04-30T17:21:36Z</time></trkpt><trkpt lat="44.61952691699169" lon="2.0154379032143592"><ele>226.0</ele><time>2026-04-30T17:21:37Z</time></trkpt><trkpt lat="44.61945785317382" lon="2.015421569389243"><ele>225.71428571428572</ele><time>2026-04-30T17:21:38Z</time></trkpt><trkpt lat="44.61938753134231" lon="2.015403512870669"><ele>225.42857142857142</ele><time>2026-04-30T17:21:39Z</time></trkpt><trkpt lat="44.61931076316714" lon="2.015362290497443"><ele>225.14285714285714</ele><time>2026-04-30T17:21:40Z</time></trkpt><trkpt lat="44.61923841340293" lon="2.0153656520683594"><ele>224.85714285714286</ele><time>2026-04-30T17:21:41Z</time></trkpt><trkpt lat="44.61916201757229" lon="2.0153757962383567"><ele>224.57142857142856</ele><time>2026-04-30T17:21:42Z</time></trkpt><trkpt lat="44.619093969084076" lon="2.0153857636570796"><ele>224.28571428571428</ele><time>2026-04-30T17:21:43Z</time></trkpt><trkpt lat="44.6190239333609" lon="2.0153945027977054"><ele>224.0</ele><time>2026-04-30T17:21:44Z</time></trkpt><trkpt lat="44.61895743277569" lon="2.015402422738159"><ele>224.0</ele><time>2026-04-30T17:21:45Z</time></trkpt><trkpt lat="44.618864107855714" lon="2.0154131317872084"><ele>223.99999999999997</ele><time>2026-04-30T17:21:47Z</time></trkpt><trkpt lat="44.6187859286507" lon="2.015437157970756"><ele>223.99999999999997</ele><time>2026-04-30T17:21:50Z</time></trkpt><trkpt lat="44.61883842777654" lon="2.0152992845772997"><ele>224.0</ele><time>2026-04-30T17:21:53Z</time></trkpt><trkpt lat="44.618902214249864" lon="2.0152127115830214"><ele>224.0</ele><time>2026-04-30T17:21:54Z</time></trkpt><trkpt lat="44.61898018922877" lon="2.0151104720521067"><ele>224.00000000000003</ele><time>2026-04-30T17:21:55Z</time></trkpt><trkpt lat="44.619056406153106" lon="2.015013956090571"><ele>224.0</ele><time>2026-04-30T17:21:56Z</time></trkpt><trkpt lat="44.6191272615874" lon="2.0149391316693963"><ele>224.0</ele><time>2026-04-30T17:21:57Z</time></trkpt><trkpt lat="44.619201482735775" lon="2.0149044499586837"><ele>224.0</ele><time>2026-04-30T17:21:58Z</time></trkpt><trkpt lat="44.61927881332324" lon="2.0149096432368614"><ele>224.00000000000003</ele><time>2026-04-30T17:21:59Z</time></trkpt><trkpt lat="44.6193743796342" lon="2.01492519676804"><ele>224.0</ele><time>2026-04-30T17:22:00Z</time></trkpt><trkpt lat="44.619482367414065" lon="2.014948470372604"><ele>224.79999999999998</ele><time>2026-04-30T17:22:01Z</time></trkpt><trkpt lat="44.61960451259077" lon="2.0149758545073637"><ele>225.59999999999997</ele><time>2026-04-30T17:22:01.999Z</time></trkpt><trkpt lat="44.61972251411367" lon="2.014986175440734"><ele>226.4</ele><time>2026-04-30T17:22:02.999Z</time></trkpt><trkpt lat="44.61982307487331" lon="2.0149844563614345"><ele>227.2</ele><time>2026-04-30T17:22:03.999Z</time></trkpt><trkpt lat="44.61991510965624" lon="2.014971795358175"><ele>228.0</ele><time>2026-04-30T17:22:04.999Z</time></trkpt><trkpt lat="44.62000517945309" lon="2.0149317835240512"><ele>228.0</ele><time>2026-04-30T17:22:05.999Z</time></trkpt><trkpt lat="44.62009561450508" lon="2.014879466719337"><ele>228.0</ele><time>2026-04-30T17:22:06.999Z</time></trkpt><trkpt lat="44.62019023745085" lon="2.0148373202538843"><ele>228.0</ele><time>2026-04-30T17:22:07.999Z</time></trkpt><trkpt lat="44.62029262426883" lon="2.0148095169939584"><ele>228.0</ele><time>2026-04-30T17:22:08.999Z</time></trkpt><trkpt lat="44.6203979463095" lon="2.014819419430266"><ele>228.0</ele><time>2026-04-30T17:22:09.999Z</time></trkpt><trkpt lat="44.620500662190366" lon="2.0148399820252227"><ele>229.75</ele><time>2026-04-30T17:22:10.999Z</time></trkpt><trkpt lat="44.62061469993674" lon="2.0148772456340462"><ele>231.5</ele><time>2026-04-30T17:22:11.999Z</time></trkpt><trkpt lat="44.62073804224223" lon="2.0149216388862285"><ele>233.25</ele><time>2026-04-30T17:22:12.999Z</time></trkpt><trkpt lat="44.62086047172266" lon="2.014949598504538"><ele>235.0</ele><time>2026-04-30T17:22:13.999Z</time></trkpt><trkpt lat="44.6209549072272" lon="2.0149800468603396"><ele>234.49999999999997</ele><time>2026-04-30T17:22:14.999Z</time></trkpt><trkpt lat="44.62103991800941" lon="2.015002382854026"><ele>234.0</ele><time>2026-04-30T17:22:15.999Z</time></trkpt><trkpt lat="44.6211255001169" lon="2.015023461246931"><ele>233.5</ele><time>2026-04-30T17:22:16.999Z</time></trkpt><trkpt lat="44.62120673794074" lon="2.0150330813269464"><ele>233.0</ele><time>2026-04-30T17:22:17.999Z</time></trkpt><trkpt lat="44.62128945468051" lon="2.015024084760665"><ele>232.49999999999997</ele><time>2026-04-30T17:22:18.999Z</time></trkpt><trkpt lat="44.62136144423222" lon="2.0149865920966348"><ele>232.0</ele><time>2026-04-30T17:22:19.999Z</time></trkpt><trkpt lat="44.62144050261905" lon="2.014913364076038"><ele>234.49999999999997</ele><time>2026-04-30T17:22:21.999Z</time></trkpt><trkpt lat="44.62151683364279" lon="2.014855052263687"><ele>237.0</ele><time>2026-04-30T17:22:24.999Z</time></trkpt><trkpt lat="44.621575590869945" lon="2.0147942865823105"><ele>239.5</ele><time>2026-04-30T17:22:25.999Z</time></trkpt><trkpt lat="44.62163078202191" lon="2.014721571597417"><ele>242.0</ele><time>2026-04-30T17:22:26.999Z</time></trkpt><trkpt lat="44.62170188413065" lon="2.0146277888737005"><ele>244.49999999999997</ele><time>2026-04-30T17:22:27.999Z</time></trkpt><trkpt lat="44.62174816969221" lon="2.014532331056502"><ele>247.0</ele><time>2026-04-30T17:22:28.999Z</time></trkpt><trkpt lat="44.62178178318366" lon="2.0144364927742595"><ele>247.0</ele><time>2026-04-30T17:22:29.999Z</time></trkpt><trkpt lat="44.621806283152985" lon="2.014354313319029"><ele>247.0</ele><time>2026-04-30T17:22:30.999Z</time></trkpt><trkpt lat="44.62187896175263" lon="2.01422781605014"><ele>247.0</ele><time>2026-04-30T17:22:32.999Z</time></trkpt><trkpt lat="44.6219828246655" lon="2.0140862736111425"><ele>247.0</ele><time>2026-04-30T17:22:34.999Z</time></trkpt><trkpt lat="44.62206368161887" lon="2.0140170099756562"><ele>247.0</ele><time>2026-04-30T17:22:35.999Z</time></trkpt><trkpt lat="44.6221301645758" lon="2.0139552887672965"><ele>248.39999999999998</ele><time>2026-04-30T17:22:36.999Z</time></trkpt><trkpt lat="44.62221216962729" lon="2.013854760741966"><ele>249.79999999999998</ele><time>2026-04-30T17:22:38.999Z</time></trkpt><trkpt lat="44.622260186312275" lon="2.0137467598113306"><ele>251.2</ele><time>2026-04-30T17:22:41Z</time></trkpt><trkpt lat="44.62233658756449" lon="2.0136158081506887"><ele>252.6</ele><time>2026-04-30T17:22:43Z</time></trkpt><trkpt lat="44.62240628134795" lon="2.0134834152018364"><ele>254.0</ele><time>2026-04-30T17:22:45Z</time></trkpt><trkpt lat="44.62242833325065" lon="2.0133433548706634"><ele>256.2</ele><time>2026-04-30T17:22:47Z</time></trkpt><trkpt lat="44.62237835303726" lon="2.013172587733272"><ele>258.4</ele><time>2026-04-30T17:22:49Z</time></trkpt><trkpt lat="44.62232937028388" lon="2.013063254619677"><ele>260.6</ele><time>2026-04-30T17:22:50Z</time></trkpt><trkpt lat="44.62228460494014" lon="2.012961287403545"><ele>262.8</ele><time>2026-04-30T17:22:51Z</time></trkpt><trkpt lat="44.62225070998608" lon="2.012870077878162"><ele>265.0</ele><time>2026-04-30T17:22:52Z</time></trkpt><trkpt lat="44.62222156360105" lon="2.012777796892988"><ele>265.0</ele><time>2026-04-30T17:22:53Z</time></trkpt><trkpt lat="44.62218222804374" lon="2.0126641622328973"><ele>265.0</ele><time>2026-04-30T17:22:54Z</time></trkpt><trkpt lat="44.62214320586201" lon="2.0125396684714794"><ele>265.0</ele><time>2026-04-30T17:22:55Z</time></trkpt><trkpt lat="44.62210637976855" lon="2.012449829023737"><ele>265.0</ele><time>2026-04-30T17:22:56Z</time></trkpt><trkpt lat="44.62205685592507" lon="2.0123780011075425"><ele>265.0</ele><time>2026-04-30T17:22:57Z</time></trkpt><trkpt lat="44.62198061588397" lon="2.012258369094368"><ele>265.0</ele><time>2026-04-30T17:22:59Z</time></trkpt><trkpt lat="44.62192733435331" lon="2.0121899432430728"><ele>265.66666666666663</ele><time>2026-04-30T17:23:00Z</time></trkpt><trkpt lat="44.62187455605001" lon="2.0121273077443047"><ele>266.3333333333333</ele><time>2026-04-30T17:23:01Z</time></trkpt><trkpt lat="44.62182142669786" lon="2.01207087811635"><ele>267.0</ele><time>2026-04-30T17:23:02Z</time></trkpt><trkpt lat="44.62169967215108" lon="2.0120025251680063"><ele>267.6666666666667</ele><time>2026-04-30T17:23:04Z</time></trkpt><trkpt lat="44.62164231916813" lon="2.011953164274053"><ele>268.33333333333337</ele><time>2026-04-30T17:23:05Z</time></trkpt><trkpt lat="44.62156882788728" lon="2.0119429076436885"><ele>269.0</ele><time>2026-04-30T17:23:06Z</time></trkpt><trkpt lat="44.621497835541874" lon="2.0119272628040203"><ele>269.0</ele><time>2026-04-30T17:23:07Z</time></trkpt><trkpt lat="44.62143044631714" lon="2.0119137910403375"><ele>269.0</ele><time>2026-04-30T17:23:08Z</time></trkpt><trkpt lat="44.621309307895714" lon="2.0118952834360178"><ele>269.0</ele><time>2026-04-30T17:23:10Z</time></trkpt><trkpt lat="44.62119815342659" lon="2.0118723500754365"><ele>269.0</ele><time>2026-04-30T17:23:12Z</time></trkpt><trkpt lat="44.62108704409267" lon="2.011827217173589"><ele>269.0</ele><time>2026-04-30T17:23:14Z</time></trkpt><trkpt lat="44.62102541830511" lon="2.011771921010903"><ele>269.0</ele><time>2026-04-30T17:23:17Z</time></trkpt><trkpt lat="44.62109745341474" lon="2.011862770534718"><ele>269.0</ele><time>2026-04-30T17:23:46Z</time></trkpt><trkpt lat="44.62116722238215" lon="2.0118951088128676"><ele>269.0</ele><time>2026-04-30T17:23:48Z</time></trkpt><trkpt lat="44.62123370232567" lon="2.011912894861661"><ele>269.0</ele><time>2026-04-30T17:23:50Z</time></trkpt><trkpt lat="44.6213053534998" lon="2.0119297997357637"><ele>269.0</ele><time>2026-04-30T17:23:52Z</time></trkpt><trkpt lat="44.62138469448324" lon="2.011948601959747"><ele>269.0</ele><time>2026-04-30T17:23:54Z</time></trkpt><trkpt lat="44.621471088890566" lon="2.0119612435940315"><ele>269.0</ele><time>2026-04-30T17:23:56Z</time></trkpt><trkpt lat="44.62158204090607" lon="2.0119820358291602"><ele>269.0</ele><time>2026-04-30T17:23:58Z</time></trkpt><trkpt lat="44.62169074973793" lon="2.0120118707668126"><ele>269.0</ele><time>2026-04-30T17:24:00Z</time></trkpt><trkpt lat="44.62178278392235" lon="2.0120942951677985"><ele>269.0</ele><time>2026-04-30T17:24:02Z</time></trkpt><trkpt lat="44.6218337800776" lon="2.0121503767796205"><ele>269.0</ele><time>2026-04-30T17:24:03Z</time></trkpt><trkpt lat="44.621889462588484" lon="2.0122081349823047"><ele>269.0</ele><time>2026-04-30T17:24:04Z</time></trkpt><trkpt lat="44.62194462339392" lon="2.0122758724610894"><ele>269.0</ele><time>2026-04-30T17:24:05Z</time></trkpt><trkpt lat="44.621995676178166" lon="2.012351343717487"><ele>269.0</ele><time>2026-04-30T17:24:06Z</time></trkpt><trkpt lat="44.622039309375644" lon="2.012423456275187"><ele>269.0</ele><time>2026-04-30T17:24:07Z</time></trkpt><trkpt lat="44.62208766955488" lon="2.012507410245808"><ele>269.0</ele><time>2026-04-30T17:24:08Z</time></trkpt><trkpt lat="44.622135393882736" lon="2.0126094725946886"><ele>269.0</ele><time>2026-04-30T17:24:08.999Z</time></trkpt><trkpt lat="44.62217333516667" lon="2.0127141040917014"><ele>268.33333333333337</ele><time>2026-04-30T17:24:09.999Z</time></trkpt><trkpt lat="44.62220899433266" lon="2.0128271338945702"><ele>267.6666666666667</ele><time>2026-04-30T17:24:10.999Z</time></trkpt><trkpt lat="44.62224432567664" lon="2.012946178782385"><ele>267.0</ele><time>2026-04-30T17:24:11.999Z</time></trkpt><trkpt lat="44.62227956509687" lon="2.013056008347716"><ele>266.3333333333333</ele><time>2026-04-30T17:24:12.999Z</time></trkpt><trkpt lat="44.62232055811729" lon="2.0131554761080195"><ele>265.66666666666663</ele><time>2026-04-30T17:24:13.999Z</time></trkpt><trkpt lat="44.62235679977077" lon="2.013241418390492"><ele>265.0</ele><time>2026-04-30T17:24:14.999Z</time></trkpt><trkpt lat="44.6223810581034" lon="2.0133277498367796"><ele>262.8</ele><time>2026-04-30T17:24:15.999Z</time></trkpt><trkpt lat="44.62236697092862" lon="2.0134627460735914"><ele>260.6</ele><time>2026-04-30T17:24:17.999Z</time></trkpt><trkpt lat="44.622303145900645" lon="2.0135911943224665"><ele>258.4</ele><time>2026-04-30T17:24:19.999Z</time></trkpt><trkpt lat="44.622257598408005" lon="2.0136795647865338"><ele>256.2</ele><time>2026-04-30T17:24:20.999Z</time></trkpt><trkpt lat="44.62218865397604" lon="2.0137994362483074"><ele>254.0</ele><time>2026-04-30T17:24:22.999Z</time></trkpt><trkpt lat="44.62210570085838" lon="2.013915054853195"><ele>254.0</ele><time>2026-04-30T17:24:24.999Z</time></trkpt><trkpt lat="44.622012386741915" lon="2.0140029765972245"><ele>253.99999999999997</ele><time>2026-04-30T17:24:26.999Z</time></trkpt><trkpt lat="44.62193686272191" lon="2.014113823083713"><ele>253.99999999999997</ele><time>2026-04-30T17:24:28.999Z</time></trkpt><trkpt lat="44.62186615007543" lon="2.014163680131578"><ele>254.0</ele><time>2026-04-30T17:24:30.999Z</time></trkpt><trkpt lat="44.621807958739666" lon="2.0142208912705644"><ele>254.0</ele><time>2026-04-30T17:24:34.999Z</time></trkpt><trkpt lat="44.62178086764291" lon="2.01433530842129"><ele>252.83333333333334</ele><time>2026-04-30T17:24:36.999Z</time></trkpt><trkpt lat="44.62173331438599" lon="2.01442617182078"><ele>251.66666666666669</ele><time>2026-04-30T17:24:37.999Z</time></trkpt><trkpt lat="44.62167861261413" lon="2.0145274632406482"><ele>250.5</ele><time>2026-04-30T17:24:38.999Z</time></trkpt><trkpt lat="44.6216316117505" lon="2.014613639630309"><ele>249.33333333333331</ele><time>2026-04-30T17:24:39.999Z</time></trkpt><trkpt lat="44.62158720359056" lon="2.0146922618249126"><ele>248.16666666666666</ele><time>2026-04-30T17:24:40.999Z</time></trkpt><trkpt lat="44.62152552961184" lon="2.0148142512484943"><ele>247.0</ele><time>2026-04-30T17:24:42.999Z</time></trkpt><trkpt lat="44.62146592675192" lon="2.014874709749399"><ele>246.99999999999997</ele><time>2026-04-30T17:24:44.999Z</time></trkpt><trkpt lat="44.62139079027746" lon="2.01491493555844"><ele>247.0</ele><time>2026-04-30T17:24:48Z</time></trkpt><trkpt lat="44.621317500580325" lon="2.014955554474144"><ele>247.0</ele><time>2026-04-30T17:24:51Z</time></trkpt><trkpt lat="44.621251971724305" lon="2.0149783306797198"><ele>247.0</ele><time>2026-04-30T17:24:53Z</time></trkpt><trkpt lat="44.62113849130836" lon="2.014986767544332"><ele>246.99999999999997</ele><time>2026-04-30T17:24:55Z</time></trkpt><trkpt lat="44.62106238455236" lon="2.014973094806964"><ele>247.0</ele><time>2026-04-30T17:24:56Z</time></trkpt><trkpt lat="44.62099041792597" lon="2.0149510416006886"><ele>244.99999999999997</ele><time>2026-04-30T17:24:57Z</time></trkpt><trkpt lat="44.62092042780288" lon="2.0149308625263864"><ele>243.0</ele><time>2026-04-30T17:24:58Z</time></trkpt><trkpt lat="44.6208446162345" lon="2.0149090050549248"><ele>241.0</ele><time>2026-04-30T17:24:59Z</time></trkpt><trkpt lat="44.62076986241273" lon="2.0148844095244702"><ele>239.0</ele><time>2026-04-30T17:25:00Z</time></trkpt><trkpt lat="44.620677885717484" lon="2.014852237398249"><ele>236.99999999999997</ele><time>2026-04-30T17:25:01Z</time></trkpt><trkpt lat="44.620590616576834" lon="2.014820217361207"><ele>235.0</ele><time>2026-04-30T17:25:02Z</time></trkpt><trkpt lat="44.620504868829705" lon="2.0147930436605965"><ele>235.0</ele><time>2026-04-30T17:25:03Z</time></trkpt><trkpt lat="44.620416362286036" lon="2.0147746551453305"><ele>235.0</ele><time>2026-04-30T17:25:04Z</time></trkpt><trkpt lat="44.62031197631109" lon="2.014765750162371"><ele>235.0</ele><time>2026-04-30T17:25:05Z</time></trkpt><trkpt lat="44.62019494341277" lon="2.0147876619200904"><ele>235.0</ele><time>2026-04-30T17:25:06Z</time></trkpt><trkpt lat="44.62008401107099" lon="2.0148329678380703"><ele>235.0</ele><time>2026-04-30T17:25:07Z</time></trkpt><trkpt lat="44.619994384953266" lon="2.014872474492119"><ele>233.83333333333331</ele><time>2026-04-30T17:25:08Z</time></trkpt><trkpt lat="44.619909573120665" lon="2.0149122364416368"><ele>232.66666666666666</ele><time>2026-04-30T17:25:09Z</time></trkpt><trkpt lat="44.6198391412599" lon="2.0149366157880855"><ele>231.5</ele><time>2026-04-30T17:25:10Z</time></trkpt><trkpt lat="44.61976174179871" lon="2.0149427159415203"><ele>230.33333333333331</ele><time>2026-04-30T17:25:11Z</time></trkpt><trkpt lat="44.61967264607334" lon="2.014933893667791"><ele>229.16666666666666</ele><time>2026-04-30T17:25:12Z</time></trkpt><trkpt lat="44.619584505410685" lon="2.0149256582982833"><ele>228.0</ele><time>2026-04-30T17:25:13Z</time></trkpt><trkpt lat="44.619488569018856" lon="2.014912457577112"><ele>227.4</ele><time>2026-04-30T17:25:14Z</time></trkpt><trkpt lat="44.6193888934642" lon="2.014895268985342"><ele>226.8</ele><time>2026-04-30T17:25:15Z</time></trkpt><trkpt lat="44.61928674440375" lon="2.0148869623390553"><ele>226.2</ele><time>2026-04-30T17:25:16Z</time></trkpt><trkpt lat="44.6191840122778" lon="2.0148979606239417"><ele>225.6</ele><time>2026-04-30T17:25:17Z</time></trkpt><trkpt lat="44.61909491607293" lon="2.014919050835403"><ele>225.0</ele><time>2026-04-30T17:25:18Z</time></trkpt><trkpt lat="44.61902619432225" lon="2.014997001474637"><ele>224.8</ele><time>2026-04-30T17:25:19Z</time></trkpt><trkpt lat="44.61894985425776" lon="2.0151031767975636"><ele>224.6</ele><time>2026-04-30T17:25:20Z</time></trkpt><trkpt lat="44.61886905137633" lon="2.0152069881233867"><ele>224.39999999999998</ele><time>2026-04-30T17:25:21Z</time></trkpt><trkpt lat="44.618809413226586" lon="2.01529484948108"><ele>224.2</ele><time>2026-04-30T17:25:22Z</time></trkpt><trkpt lat="44.618758308305814" lon="2.015364071439391"><ele>224.0</ele><time>2026-04-30T17:25:23Z</time></trkpt><trkpt lat="44.61867722235655" lon="2.015447898986325"><ele>223.0</ele><time>2026-04-30T17:25:25Z</time></trkpt><trkpt lat="44.61862351750785" lon="2.015503694628934"><ele>221.99999999999997</ele><time>2026-04-30T17:25:26Z</time></trkpt><trkpt lat="44.61851539738088" lon="2.015479228594696"><ele>220.99999999999997</ele><time>2026-04-30T17:25:27Z</time></trkpt><trkpt lat="44.6183927977765" lon="2.015496678248868"><ele>220.0</ele><time>2026-04-30T17:25:28Z</time></trkpt><trkpt lat="44.61825479208421" lon="2.0155163893610797"><ele>219.0</ele><time>2026-04-30T17:25:29Z</time></trkpt><trkpt lat="44.618111260799985" lon="2.015535543351492"><ele>219.0</ele><time>2026-04-30T17:25:30Z</time></trkpt><trkpt lat="44.61795835387542" lon="2.0155559485049555"><ele>219.0</ele><time>2026-04-30T17:25:31Z</time></trkpt><trkpt lat="44.61782000155076" lon="2.015574411373988"><ele>219.0</ele><time>2026-04-30T17:25:32Z</time></trkpt><trkpt lat="44.61769561147538" lon="2.01559142856893"><ele>219.0</ele><time>2026-04-30T17:25:33Z</time></trkpt><trkpt lat="44.617587137130045" lon="2.015606731363474"><ele>218.66666666666666</ele><time>2026-04-30T17:25:34Z</time></trkpt><trkpt lat="44.617501718115626" lon="2.0156187816746707"><ele>218.33333333333331</ele><time>2026-04-30T17:25:35Z</time></trkpt><trkpt lat="44.61741813695469" lon="2.0156305727147545"><ele>218.0</ele><time>2026-04-30T17:25:37Z</time></trkpt><trkpt lat="44.61741812876117" lon="2.015511570370763"><ele>217.66666666666666</ele><time>2026-04-30T17:25:40Z</time></trkpt><trkpt lat="44.617414495616124" lon="2.015384192670024"><ele>217.33333333333331</ele><time>2026-04-30T17:25:41Z</time></trkpt><trkpt lat="44.61739255842683" lon="2.0152736876602555"><ele>217.0</ele><time>2026-04-30T17:25:42Z</time></trkpt><trkpt lat="44.61739919171104" lon="2.0151755653283026"><ele>217.0</ele><time>2026-04-30T17:25:43Z</time></trkpt><trkpt lat="44.617374886031484" lon="2.0150329684286574"><ele>217.0</ele><time>2026-04-30T17:25:45Z</time></trkpt><trkpt lat="44.61737462400319" lon="2.0148955868182035"><ele>217.0</ele><time>2026-04-30T17:25:47Z</time></trkpt><trkpt lat="44.61737307950964" lon="2.014795709283955"><ele>217.0</ele><time>2026-04-30T17:25:48Z</time></trkpt><trkpt lat="44.61736489962379" lon="2.0146613184837596"><ele>217.0</ele><time>2026-04-30T17:25:49Z</time></trkpt><trkpt lat="44.617360304901204" lon="2.0145104793008355"><ele>217.66666666666666</ele><time>2026-04-30T17:25:50Z</time></trkpt><trkpt lat="44.61736242593802" lon="2.014380059889562"><ele>218.33333333333331</ele><time>2026-04-30T17:25:51Z</time></trkpt><trkpt lat="44.617360082084836" lon="2.0142587806878747"><ele>219.0</ele><time>2026-04-30T17:25:52Z</time></trkpt><trkpt lat="44.61736279811565" lon="2.014151160228552"><ele>219.66666666666669</ele><time>2026-04-30T17:25:53Z</time></trkpt><trkpt lat="44.61736870655132" lon="2.014049163284079"><ele>220.33333333333334</ele><time>2026-04-30T17:25:54Z</time></trkpt><trkpt lat="44.61738089470696" lon="2.013946152118966"><ele>221.0</ele><time>2026-04-30T17:25:55Z</time></trkpt><trkpt lat="44.617385142067164" lon="2.0138557866843905"><ele>222.0</ele><time>2026-04-30T17:25:56Z</time></trkpt><trkpt lat="44.6173835585447" lon="2.01370466903709"><ele>223.00000000000003</ele><time>2026-04-30T17:25:58Z</time></trkpt><trkpt lat="44.61739398878096" lon="2.0135766931598864"><ele>224.00000000000003</ele><time>2026-04-30T17:26:00Z</time></trkpt><trkpt lat="44.61746874030654" lon="2.013522083814192"><ele>225.0</ele><time>2026-04-30T17:26:02Z</time></trkpt><trkpt lat="44.61758668871069" lon="2.0134914602986536"><ele>226.0</ele><time>2026-04-30T17:26:04Z</time></trkpt><trkpt lat="44.617672029026274" lon="2.0134684507066916"><ele>225.99999999999997</ele><time>2026-04-30T17:26:06Z</time></trkpt><trkpt lat="44.61769246731767" lon="2.0133671584908126"><ele>226.0</ele><time>2026-04-30T17:26:30.999Z</time></trkpt><trkpt lat="44.617708354916175" lon="2.013236429317638"><ele>226.0</ele><time>2026-04-30T17:26:32.999Z</time></trkpt><trkpt lat="44.61773133694813" lon="2.0131182072115297"><ele>226.0</ele><time>2026-04-30T17:26:34.999Z</time></trkpt><trkpt lat="44.617745656702155" lon="2.013012494965349"><ele>225.99999999999997</ele><time>2026-04-30T17:26:36.999Z</time></trkpt><trkpt lat="44.61777575442767" lon="2.012893478905915"><ele>226.0</ele><time>2026-04-30T17:26:39.999Z</time></trkpt><trkpt lat="44.61778278601953" lon="2.012770207778043"><ele>227.49999999999997</ele><time>2026-04-30T17:26:41.999Z</time></trkpt><trkpt lat="44.61779286760677" lon="2.0126521735432203"><ele>229.0</ele><time>2026-04-30T17:26:43.999Z</time></trkpt><trkpt lat="44.61780411205137" lon="2.012539892663139"><ele>230.5</ele><time>2026-04-30T17:26:45.999Z</time></trkpt><trkpt lat="44.61781873479517" lon="2.0124152990926496"><ele>232.0</ele><time>2026-04-30T17:26:47.999Z</time></trkpt><trkpt lat="44.61784244497017" lon="2.012318598655745"><ele>233.49999999999997</ele><time>2026-04-30T17:26:49.999Z</time></trkpt><trkpt lat="44.61784795863092" lon="2.0122041841848586"><ele>235.0</ele><time>2026-04-30T17:26:52Z</time></trkpt><trkpt lat="44.61784359222994" lon="2.0120829949933494"><ele>235.49999999999997</ele><time>2026-04-30T17:26:54Z</time></trkpt><trkpt lat="44.61782973336334" lon="2.01199197246436"><ele>236.0</ele><time>2026-04-30T17:26:56Z</time></trkpt><trkpt lat="44.61776580328334" lon="2.0119391107545668"><ele>236.5</ele><time>2026-04-30T17:28:55.999Z</time></trkpt><trkpt lat="44.61781524044738" lon="2.0120106707251746"><ele>237.0</ele><time>2026-04-30T17:29:32Z</time></trkpt><trkpt lat="44.61785097246831" lon="2.012113054473823"><ele>237.49999999999997</ele><time>2026-04-30T17:33:35Z</time></trkpt><trkpt lat="44.61785515345556" lon="2.012219077661137"><ele>238.0</ele><time>2026-04-30T17:33:38Z</time></trkpt><trkpt lat="44.61783285490979" lon="2.0123306738038096"><ele>237.57142857142856</ele><time>2026-04-30T17:33:42Z</time></trkpt><trkpt lat="44.61781764496315" lon="2.012428598915761"><ele>237.14285714285714</ele><time>2026-04-30T17:33:44Z</time></trkpt><trkpt lat="44.61778675909632" lon="2.0125208898381355"><ele>236.71428571428572</ele><time>2026-04-30T17:33:46Z</time></trkpt><trkpt lat="44.61777480419502" lon="2.012607874907387"><ele>236.28571428571428</ele><time>2026-04-30T17:33:48Z</time></trkpt><trkpt lat="44.61776421297761" lon="2.0127027562761954"><ele>235.85714285714283</ele><time>2026-04-30T17:33:50Z</time></trkpt><trkpt lat="44.61774981975313" lon="2.0128237307960313"><ele>235.42857142857142</ele><time>2026-04-30T17:33:52Z</time></trkpt><trkpt lat="44.61773530357949" lon="2.0129390789451636"><ele>235.0</ele><time>2026-04-30T17:33:54Z</time></trkpt><trkpt lat="44.61770636014334" lon="2.0130672646348424"><ele>235.0</ele><time>2026-04-30T17:33:56Z</time></trkpt><trkpt lat="44.617687778738485" lon="2.013225028664233"><ele>235.0</ele><time>2026-04-30T17:33:58Z</time></trkpt><trkpt lat="44.61767011340598" lon="2.013347607694077"><ele>235.0</ele><time>2026-04-30T17:34:00Z</time></trkpt><trkpt lat="44.61763505678836" lon="2.013453367328277"><ele>235.0</ele><time>2026-04-30T17:34:03Z</time></trkpt><trkpt lat="44.61753420943849" lon="2.0134880928338954"><ele>235.0</ele><time>2026-04-30T17:34:05Z</time></trkpt><trkpt lat="44.617461710259605" lon="2.0135084799134075"><ele>233.2</ele><time>2026-04-30T17:34:05.999Z</time></trkpt><trkpt lat="44.617382215491276" lon="2.0135779226357218"><ele>231.4</ele><time>2026-04-30T17:34:07.999Z</time></trkpt><trkpt lat="44.61737606581866" lon="2.0137010294035176"><ele>229.60000000000002</ele><time>2026-04-30T17:34:09.999Z</time></trkpt><trkpt lat="44.61735668844595" lon="2.0138143696023305"><ele>227.8</ele><time>2026-04-30T17:34:10.999Z</time></trkpt><trkpt lat="44.61734914061388" lon="2.013967331894486"><ele>226.0</ele><time>2026-04-30T17:34:11.999Z</time></trkpt><trkpt lat="44.61733732199729" lon="2.014137462275684"><ele>225.0</ele><time>2026-04-30T17:34:12.999Z</time></trkpt><trkpt lat="44.61734966882493" lon="2.0142984887269746"><ele>224.00000000000003</ele><time>2026-04-30T17:34:13.999Z</time></trkpt><trkpt lat="44.61734736450805" lon="2.0144498573956775"><ele>223.00000000000003</ele><time>2026-04-30T17:34:14.999Z</time></trkpt><trkpt lat="44.61733422429534" lon="2.0145983195785657"><ele>222.0</ele><time>2026-04-30T17:34:15.999Z</time></trkpt><trkpt lat="44.61733852038462" lon="2.014741159810238"><ele>221.0</ele><time>2026-04-30T17:34:16.999Z</time></trkpt><trkpt lat="44.61736254952105" lon="2.0148756716758274"><ele>220.33333333333334</ele><time>2026-04-30T17:34:17.999Z</time></trkpt><trkpt lat="44.61736927366493" lon="2.015005886013549"><ele>219.66666666666669</ele><time>2026-04-30T17:34:18.999Z</time></trkpt><trkpt lat="44.617361855823106" lon="2.0151264516577396"><ele>219.0</ele><time>2026-04-30T17:34:19.999Z</time></trkpt><trkpt lat="44.61737024365565" lon="2.0152336785798486"><ele>218.33333333333331</ele><time>2026-04-30T17:34:20.999Z</time></trkpt><trkpt lat="44.617394032885066" lon="2.015330169474"><ele>217.66666666666666</ele><time>2026-04-30T17:34:21.999Z</time></trkpt><trkpt lat="44.61738373748321" lon="2.0154254161879934"><ele>217.0</ele><time>2026-04-30T17:34:22.999Z</time></trkpt><trkpt lat="44.61740051106311" lon="2.015580644904061"><ele>217.0</ele><time>2026-04-30T17:34:24.999Z</time></trkpt><trkpt lat="44.617376590176484" lon="2.0156690454208097"><ele>217.0</ele><time>2026-04-30T17:34:26.999Z</time></trkpt><trkpt lat="44.617248470040785" lon="2.0156562980852604"><ele>217.0</ele><time>2026-04-30T17:34:27.999Z</time></trkpt><trkpt lat="44.61715395824027" lon="2.015670762800771"><ele>217.0</ele><time>2026-04-30T17:34:28.999Z</time></trkpt><trkpt lat="44.617038923865486" lon="2.015711560985806"><ele>217.0</ele><time>2026-04-30T17:34:29.999Z</time></trkpt><trkpt lat="44.616929035802755" lon="2.0157283527422685"><ele>216.8</ele><time>2026-04-30T17:34:30.999Z</time></trkpt><trkpt lat="44.61682947188716" lon="2.0157196752928916"><ele>216.6</ele><time>2026-04-30T17:34:31.999Z</time></trkpt><trkpt lat="44.616740985995506" lon="2.015732365552885"><ele>216.40000000000003</ele><time>2026-04-30T17:34:32.999Z</time></trkpt><trkpt lat="44.616656381084766" lon="2.015744499219359"><ele>216.20000000000002</ele><time>2026-04-30T17:34:33.999Z</time></trkpt><trkpt lat="44.616581100732596" lon="2.0157552955984523"><ele>216.0</ele><time>2026-04-30T17:34:34.999Z</time></trkpt><trkpt lat="44.61647097333905" lon="2.0157710895856056"><ele>216.0</ele><time>2026-04-30T17:34:36.999Z</time></trkpt><trkpt lat="44.61635649324161" lon="2.0157875078356127"><ele>216.00000000000003</ele><time>2026-04-30T17:34:38.999Z</time></trkpt><trkpt lat="44.61628902715338" lon="2.015796905407411"><ele>216.00000000000003</ele><time>2026-04-30T17:34:39.999Z</time></trkpt><trkpt lat="44.616192082249036" lon="2.0158106050196976"><ele>216.0</ele><time>2026-04-30T17:34:40.999Z</time></trkpt><trkpt lat="44.61607684020881" lon="2.015853284317739"><ele>216.0</ele><time>2026-04-30T17:34:41.999Z</time></trkpt><trkpt lat="44.61595029769061" lon="2.0158740836638485"><ele>216.20000000000002</ele><time>2026-04-30T17:34:42.999Z</time></trkpt><trkpt lat="44.61582182276452" lon="2.0158910267375627"><ele>216.40000000000003</ele><time>2026-04-30T17:34:43.999Z</time></trkpt><trkpt lat="44.61570977448725" lon="2.015914951476228"><ele>216.6</ele><time>2026-04-30T17:34:44.999Z</time></trkpt><trkpt lat="44.615605322361894" lon="2.0158995685663252"><ele>216.8</ele><time>2026-04-30T17:34:45.999Z</time></trkpt><trkpt lat="44.615508733114844" lon="2.015919206851341"><ele>217.0</ele><time>2026-04-30T17:34:46.999Z</time></trkpt><trkpt lat="44.61541246375072" lon="2.015943080009531"><ele>216.39999999999998</ele><time>2026-04-30T17:34:47.999Z</time></trkpt><trkpt lat="44.615320232478375" lon="2.015972059151915"><ele>215.79999999999998</ele><time>2026-04-30T17:34:48.999Z</time></trkpt><trkpt lat="44.615229442315744" lon="2.016000703279771"><ele>215.2</ele><time>2026-04-30T17:34:49.999Z</time></trkpt><trkpt lat="44.61513514178483" lon="2.0160288607443793"><ele>214.6</ele><time>2026-04-30T17:34:50.999Z</time></trkpt><trkpt lat="44.61504509092541" lon="2.016054815544072"><ele>214.0</ele><time>2026-04-30T17:34:51.999Z</time></trkpt><trkpt lat="44.6149535534628" lon="2.0160856260769697"><ele>214.0</ele><time>2026-04-30T17:34:52.999Z</time></trkpt><trkpt lat="44.61485001094744" lon="2.016138510215231"><ele>214.0</ele><time>2026-04-30T17:34:53.999Z</time></trkpt><trkpt lat="44.61473354695051" lon="2.0162185846313054"><ele>214.0</ele><time>2026-04-30T17:34:54.999Z</time></trkpt><trkpt lat="44.61461164366387" lon="2.0163261720866306"><ele>214.0</ele><time>2026-04-30T17:34:55.999Z</time></trkpt><trkpt lat="44.61448986470969" lon="2.0164265850372103"><ele>214.0</ele><time>2026-04-30T17:34:56.999Z</time></trkpt><trkpt lat="44.61437686682884" lon="2.016517313278426"><ele>214.0</ele><time>2026-04-30T17:34:57.999Z</time></trkpt><trkpt lat="44.614270659610526" lon="2.0165979170301793"><ele>214.0</ele><time>2026-04-30T17:34:58.999Z</time></trkpt><trkpt lat="44.614168239392626" lon="2.0166695091863236"><ele>214.0</ele><time>2026-04-30T17:34:59.999Z</time></trkpt><trkpt lat="44.61406399348721" lon="2.0167364187788768"><ele>214.0</ele><time>2026-04-30T17:35:00.999Z</time></trkpt><trkpt lat="44.61394408948162" lon="2.0168128029864842"><ele>214.0</ele><time>2026-04-30T17:35:01.999Z</time></trkpt><trkpt lat="44.61381944016048" lon="2.01689456532587"><ele>214.0</ele><time>2026-04-30T17:35:02.999Z</time></trkpt><trkpt lat="44.613706213208914" lon="2.016967079645673"><ele>214.0</ele><time>2026-04-30T17:35:03.999Z</time></trkpt><trkpt lat="44.61359758664283" lon="2.017032345131196"><ele>213.2</ele><time>2026-04-30T17:35:04.999Z</time></trkpt><trkpt lat="44.613491453230445" lon="2.0170945431551672"><ele>212.39999999999998</ele><time>2026-04-30T17:35:05.999Z</time></trkpt><trkpt lat="44.613390759914836" lon="2.0171535530541904"><ele>211.6</ele><time>2026-04-30T17:35:06.999Z</time></trkpt><trkpt lat="44.61328697594465" lon="2.0172143742239736"><ele>210.8</ele><time>2026-04-30T17:35:07.999Z</time></trkpt><trkpt lat="44.61319119851956" lon="2.0172741749466745"><ele>210.0</ele><time>2026-04-30T17:35:08.999Z</time></trkpt><trkpt lat="44.61310029392268" lon="2.017338903491892"><ele>210.0</ele><time>2026-04-30T17:35:09.999Z</time></trkpt><trkpt lat="44.61301581419189" lon="2.0174006775508198"><ele>210.0</ele><time>2026-04-30T17:35:10.999Z</time></trkpt><trkpt lat="44.61293799657484" lon="2.0174575801374766"><ele>210.0</ele><time>2026-04-30T17:35:11.999Z</time></trkpt><trkpt lat="44.61287205727961" lon="2.017507936522312"><ele>210.0</ele><time>2026-04-30T17:35:12.999Z</time></trkpt><trkpt lat="44.612815577688394" lon="2.017550923697618"><ele>210.0</ele><time>2026-04-30T17:35:14Z</time></trkpt><trkpt lat="44.612724087831154" lon="2.017620557341651"><ele>210.0</ele><time>2026-04-30T17:35:16Z</time></trkpt><trkpt lat="44.61265176181704" lon="2.017665252642899"><ele>209.66666666666666</ele><time>2026-04-30T17:35:18Z</time></trkpt><trkpt lat="44.61259588226983" lon="2.0176055045936523"><ele>209.33333333333331</ele><time>2026-04-30T17:35:22Z</time></trkpt><trkpt lat="44.61265067429496" lon="2.017438142205944"><ele>209.0</ele><time>2026-04-30T17:35:24Z</time></trkpt><trkpt lat="44.612674769530244" lon="2.017354139220047"><ele>208.66666666666666</ele><time>2026-04-30T17:35:25Z</time></trkpt><trkpt lat="44.612699620949265" lon="2.0172660127677524"><ele>208.33333333333331</ele><time>2026-04-30T17:35:26Z</time></trkpt><trkpt lat="44.61271655373591" lon="2.0171319994884853"><ele>208.0</ele><time>2026-04-30T17:35:27Z</time></trkpt><trkpt lat="44.61276126261992" lon="2.0169919195140404"><ele>208.0</ele><time>2026-04-30T17:35:28Z</time></trkpt><trkpt lat="44.61280402384889" lon="2.016864090795277"><ele>208.0</ele><time>2026-04-30T17:35:29Z</time></trkpt><trkpt lat="44.61285091458265" lon="2.0166718613209373"><ele>208.0</ele><time>2026-04-30T17:35:31Z</time></trkpt><trkpt lat="44.612872915005866" lon="2.0165455154124166"><ele>208.0</ele><time>2026-04-30T17:35:33Z</time></trkpt><trkpt lat="44.61280511398821" lon="2.016440230929864"><ele>208.0</ele><time>2026-04-30T17:35:35Z</time></trkpt><trkpt lat="44.6127822377386" lon="2.016355583844006"><ele>208.66666666666666</ele><time>2026-04-30T17:35:37Z</time></trkpt><trkpt lat="44.61272738323177" lon="2.0163020128139375"><ele>209.33333333333331</ele><time>2026-04-30T17:35:39Z</time></trkpt><trkpt lat="44.61268820412296" lon="2.0161784839037997"><ele>210.0</ele><time>2026-04-30T17:35:42Z</time></trkpt><trkpt lat="44.61264886811023" lon="2.0160961600305485"><ele>210.66666666666669</ele><time>2026-04-30T17:35:43Z</time></trkpt><trkpt lat="44.61259909840781" lon="2.016029012321267"><ele>211.33333333333334</ele><time>2026-04-30T17:35:44Z</time></trkpt><trkpt lat="44.61253465955765" lon="2.015969748136044"><ele>212.0</ele><time>2026-04-30T17:35:45Z</time></trkpt><trkpt lat="44.612487247042125" lon="2.015854428409413"><ele>214.39999999999998</ele><time>2026-04-30T17:35:46Z</time></trkpt><trkpt lat="44.612414107035654" lon="2.015780141600242"><ele>216.79999999999998</ele><time>2026-04-30T17:35:47Z</time></trkpt><trkpt lat="44.612361540288084" lon="2.015700700225099"><ele>219.2</ele><time>2026-04-30T17:35:48Z</time></trkpt><trkpt lat="44.61231317133113" lon="2.015642805326677"><ele>221.6</ele><time>2026-04-30T17:35:49Z</time></trkpt><trkpt lat="44.612198391445666" lon="2.0155326880395688"><ele>224.0</ele><time>2026-04-30T17:35:51Z</time></trkpt><trkpt lat="44.61211725578452" lon="2.0155025215123947"><ele>224.0</ele><time>2026-04-30T17:35:52Z</time></trkpt><trkpt lat="44.61204199168196" lon="2.0154535354392866"><ele>224.0</ele><time>2026-04-30T17:35:53Z</time></trkpt><trkpt lat="44.61197020195889" lon="2.0154093757366653"><ele>224.0</ele><time>2026-04-30T17:35:54Z</time></trkpt><trkpt lat="44.61190293678548" lon="2.015374980129908"><ele>224.0</ele><time>2026-04-30T17:35:55Z</time></trkpt><trkpt lat="44.611837994065326" lon="2.015348831634445"><ele>224.0</ele><time>2026-04-30T17:35:56Z</time></trkpt><trkpt lat="44.61177876978063" lon="2.015302048381696"><ele>224.0</ele><time>2026-04-30T17:35:57Z</time></trkpt><trkpt lat="44.6117133851476" lon="2.0152806305969206"><ele>224.0</ele><time>2026-04-30T17:35:58Z</time></trkpt><trkpt lat="44.61164341109904" lon="2.0152678968084468"><ele>223.33333333333334</ele><time>2026-04-30T17:35:59Z</time></trkpt><trkpt lat="44.61157384663806" lon="2.01526553465953"><ele>222.66666666666669</ele><time>2026-04-30T17:36:00Z</time></trkpt><trkpt lat="44.611456238992794" lon="2.015294336075685"><ele>222.0</ele><time>2026-04-30T17:36:02Z</time></trkpt><trkpt lat="44.611412760218826" lon="2.0153810495724693"><ele>221.33333333333331</ele><time>2026-04-30T17:36:03Z</time></trkpt><trkpt lat="44.6113717367243" lon="2.015463155046378"><ele>220.66666666666666</ele><time>2026-04-30T17:36:04Z</time></trkpt><trkpt lat="44.611348915627424" lon="2.0155584529171398"><ele>220.0</ele><time>2026-04-30T17:36:05Z</time></trkpt><trkpt lat="44.61134099485895" lon="2.015656739296891"><ele>219.99999999999997</ele><time>2026-04-30T17:36:06Z</time></trkpt><trkpt lat="44.611321902275186" lon="2.01576544883762"><ele>220.0</ele><time>2026-04-30T17:36:06.999Z</time></trkpt><trkpt lat="44.611317057190305" lon="2.0158824471483388"><ele>220.0</ele><time>2026-04-30T17:36:07.999Z</time></trkpt><trkpt lat="44.61131221832556" lon="2.01599624502973"><ele>220.0</ele><time>2026-04-30T17:36:08.999Z</time></trkpt><trkpt lat="44.61130505288305" lon="2.016111173107079"><ele>219.99999999999997</ele><time>2026-04-30T17:36:09.999Z</time></trkpt><trkpt lat="44.61129777138677" lon="2.016227962581731"><ele>220.0</ele><time>2026-04-30T17:36:10.999Z</time></trkpt><trkpt lat="44.611306053005066" lon="2.0163458853991516"><ele>218.49999999999997</ele><time>2026-04-30T17:36:11.999Z</time></trkpt><trkpt lat="44.61128627457421" lon="2.0164630217838195"><ele>217.0</ele><time>2026-04-30T17:36:12.999Z</time></trkpt><trkpt lat="44.61128072794414" lon="2.016577467263972"><ele>215.5</ele><time>2026-04-30T17:36:13.999Z</time></trkpt><trkpt lat="44.61129093147532" lon="2.0166796834959917"><ele>214.0</ele><time>2026-04-30T17:36:14.999Z</time></trkpt><trkpt lat="44.61126486088377" lon="2.016817793359947"><ele>212.49999999999997</ele><time>2026-04-30T17:36:16.999Z</time></trkpt><trkpt lat="44.61127202994845" lon="2.016906282639013"><ele>211.0</ele><time>2026-04-30T17:36:18.999Z</time></trkpt><trkpt lat="44.6112421109909" lon="2.0170004406464708"><ele>209.0</ele><time>2026-04-30T17:36:23.999Z</time></trkpt><trkpt lat="44.61144160929937" lon="2.0170025733435812"><ele>207.0</ele><time>2026-04-30T17:36:25.999Z</time></trkpt><trkpt lat="44.61154507291071" lon="2.0169777564506797"><ele>205.0</ele><time>2026-04-30T17:36:26.999Z</time></trkpt><trkpt lat="44.61167439672688" lon="2.016941947431942"><ele>203.0</ele><time>2026-04-30T17:36:27.999Z</time></trkpt><trkpt lat="44.61182385185711" lon="2.0168721295804435"><ele>203.0</ele><time>2026-04-30T17:36:28.999Z</time></trkpt><trkpt lat="44.61196575190227" lon="2.016775020877918"><ele>203.0</ele><time>2026-04-30T17:36:29.999Z</time></trkpt><trkpt lat="44.612080557293815" lon="2.016698746470802"><ele>203.0</ele><time>2026-04-30T17:36:30.999Z</time></trkpt><trkpt lat="44.61218470464287" lon="2.0166443294645435"><ele>203.0</ele><time>2026-04-30T17:36:31.999Z</time></trkpt><trkpt lat="44.61227973773792" lon="2.016602202589414"><ele>204.50000000000003</ele><time>2026-04-30T17:36:32.999Z</time></trkpt><trkpt lat="44.612369094266725" lon="2.016573882654429"><ele>206.0</ele><time>2026-04-30T17:36:33.999Z</time></trkpt><trkpt lat="44.612453562825245" lon="2.0165539376964343"><ele>207.5</ele><time>2026-04-30T17:36:34.999Z</time></trkpt><trkpt lat="44.61252911939024" lon="2.016536387928942"><ele>209.0</ele><time>2026-04-30T17:36:35.999Z</time></trkpt><trkpt lat="44.61259615428699" lon="2.016517550610371"><ele>210.50000000000003</ele><time>2026-04-30T17:36:36.999Z</time></trkpt><trkpt lat="44.61270195418749" lon="2.016483394737126"><ele>212.0</ele><time>2026-04-30T17:36:38.999Z</time></trkpt><trkpt lat="44.61273660460826" lon="2.0163028823724085"><ele>212.0</ele><time>2026-04-30T17:36:40.999Z</time></trkpt><trkpt lat="44.612761444038625" lon="2.0162051394477167"><ele>212.0</ele><time>2026-04-30T17:36:41.999Z</time></trkpt><trkpt lat="44.61294607077293" lon="2.016212993222093"><ele>212.0</ele><time>2026-04-30T17:36:43.999Z</time></trkpt><trkpt lat="44.61298428300617" lon="2.0161306441902056"><ele>212.0</ele><time>2026-04-30T17:36:44.999Z</time></trkpt><trkpt lat="44.61278670049207" lon="2.0158830068636924"><ele>214.00000000000003</ele><time>2026-04-30T17:36:46.999Z</time></trkpt><trkpt lat="44.61272926476156" lon="2.01579999831201"><ele>216.0</ele><time>2026-04-30T17:36:47.999Z</time></trkpt><trkpt lat="44.61268301138273" lon="2.0157275595309265"><ele>218.0</ele><time>2026-04-30T17:36:48.999Z</time></trkpt><trkpt lat="44.61262497083116" lon="2.0155838764259686"><ele>220.0</ele><time>2026-04-30T17:36:50.999Z</time></trkpt><trkpt lat="44.61259402242929" lon="2.015499022446592"><ele>222.00000000000003</ele><time>2026-04-30T17:36:51.999Z</time></trkpt><trkpt lat="44.61255611312791" lon="2.015405055895892"><ele>224.0</ele><time>2026-04-30T17:36:52.999Z</time></trkpt><trkpt lat="44.612532754101984" lon="2.0153111546843196"><ele>224.0</ele><time>2026-04-30T17:36:54.999Z</time></trkpt><trkpt lat="44.61251742692489" lon="2.0152065384130653"><ele>224.0</ele><time>2026-04-30T17:36:58.999Z</time></trkpt><trkpt lat="44.612580095379116" lon="2.015192184551605"><ele>224.0</ele><time>2026-04-30T17:37:00.999Z</time></trkpt><trkpt lat="44.61265300863843" lon="2.0151446679543854"><ele>224.0</ele><time>2026-04-30T17:37:09.999Z</time></trkpt><trkpt lat="44.612705761874345" lon="2.0150743013235783"><ele>224.0</ele><time>2026-04-30T17:37:11.999Z</time></trkpt><trkpt lat="44.61276553130658" lon="2.0149939627246662"><ele>224.0</ele><time>2026-04-30T17:37:13.999Z</time></trkpt><trkpt lat="44.61278701287325" lon="2.0149086783231303"><ele>224.0</ele><time>2026-04-30T17:37:15.999Z</time></trkpt><trkpt lat="44.61283658549991" lon="2.0147807751415017"><ele>227.39999999999998</ele><time>2026-04-30T17:37:17.999Z</time></trkpt><trkpt lat="44.6128842427639" lon="2.014640239769659"><ele>230.79999999999998</ele><time>2026-04-30T17:37:20Z</time></trkpt><trkpt lat="44.61288818482875" lon="2.014500568616037"><ele>234.20000000000002</ele><time>2026-04-30T17:37:22Z</time></trkpt><trkpt lat="44.612890775211454" lon="2.0144079662585757"><ele>237.60000000000002</ele><time>2026-04-30T17:37:23Z</time></trkpt><trkpt lat="44.61290094668311" lon="2.014271719871596"><ele>241.0</ele><time>2026-04-30T17:37:25Z</time></trkpt><trkpt lat="44.61289306092978" lon="2.0141044099017873"><ele>243.0</ele><time>2026-04-30T17:37:27Z</time></trkpt><trkpt lat="44.612904195697986" lon="2.01397563476375"><ele>245.00000000000003</ele><time>2026-04-30T17:37:29Z</time></trkpt><trkpt lat="44.61296566443188" lon="2.0138709978064337"><ele>247.00000000000003</ele><time>2026-04-30T17:37:31Z</time></trkpt><trkpt lat="44.613034175071725" lon="2.0137526304332494"><ele>249.0</ele><time>2026-04-30T17:37:33Z</time></trkpt><trkpt lat="44.613104656034324" lon="2.0136738856117913"><ele>251.0</ele><time>2026-04-30T17:37:35Z</time></trkpt><trkpt lat="44.6131907195106" lon="2.013628185946694"><ele>251.00000000000003</ele><time>2026-04-30T17:37:37Z</time></trkpt><trkpt lat="44.61328771201656" lon="2.0136063529992536"><ele>251.0</ele><time>2026-04-30T17:37:39Z</time></trkpt><trkpt lat="44.61332979742914" lon="2.0135365996744157"><ele>251.0</ele><time>2026-04-30T17:37:40Z</time></trkpt><trkpt lat="44.613378879116155" lon="2.013443434139763"><ele>251.0</ele><time>2026-04-30T17:37:41Z</time></trkpt><trkpt lat="44.61343662510944" lon="2.0133634008523362"><ele>251.00000000000003</ele><time>2026-04-30T17:37:42Z</time></trkpt><trkpt lat="44.613493714838064" lon="2.013301025982546"><ele>251.0</ele><time>2026-04-30T17:37:43Z</time></trkpt><trkpt lat="44.613572607986455" lon="2.013195375621296"><ele>253.20000000000002</ele><time>2026-04-30T17:37:45Z</time></trkpt><trkpt lat="44.613655147375134" lon="2.0130952415238403"><ele>255.40000000000003</ele><time>2026-04-30T17:37:47Z</time></trkpt><trkpt lat="44.61374793267362" lon="2.0130215370206295"><ele>257.6</ele><time>2026-04-30T17:37:49Z</time></trkpt><trkpt lat="44.6138005838595" lon="2.0128527493552077"><ele>259.8</ele><time>2026-04-30T17:37:51Z</time></trkpt><trkpt lat="44.61382279062204" lon="2.0127626724992713"><ele>262.0</ele><time>2026-04-30T17:37:52Z</time></trkpt><trkpt lat="44.61388841565514" lon="2.0126221610453445"><ele>263.66666666666663</ele><time>2026-04-30T17:37:54Z</time></trkpt><trkpt lat="44.61391700186707" lon="2.0124802823072985"><ele>265.3333333333333</ele><time>2026-04-30T17:37:56Z</time></trkpt><trkpt lat="44.61392774300995" lon="2.0123929723153857"><ele>267.0</ele><time>2026-04-30T17:37:57Z</time></trkpt><trkpt lat="44.613927921039455" lon="2.012281434945004"><ele>268.6666666666667</ele><time>2026-04-30T17:37:58Z</time></trkpt><trkpt lat="44.61393969062606" lon="2.0121758605817823"><ele>270.33333333333337</ele><time>2026-04-30T17:37:58.999Z</time></trkpt><trkpt lat="44.6139533216913" lon="2.012064344771093"><ele>272.0</ele><time>2026-04-30T17:37:59.999Z</time></trkpt><trkpt lat="44.61396815095145" lon="2.0119578729942305"><ele>272.0</ele><time>2026-04-30T17:38:01.999Z</time></trkpt><trkpt lat="44.6138608806808" lon="2.0118667678554663"><ele>272.0</ele><time>2026-04-30T17:38:02.999Z</time></trkpt><trkpt lat="44.613899113066076" lon="2.011763332150019"><ele>272.0</ele><time>2026-04-30T17:38:06.999Z</time></trkpt><trkpt lat="44.613924485138405" lon="2.0119287071043495"><ele>272.0</ele><time>2026-04-30T17:38:10.999Z</time></trkpt><trkpt lat="44.613851423411674" lon="2.011968511549134"><ele>272.0</ele><time>2026-04-30T17:38:13.999Z</time></trkpt><trkpt lat="44.61383039068971" lon="2.0118736237383184"><ele>272.0</ele><time>2026-04-30T17:38:17.999Z</time></trkpt><trkpt lat="44.613920895250104" lon="2.011694039376004"><ele>272.0</ele><time>2026-04-30T17:38:19.999Z</time></trkpt><trkpt lat="44.61398277468876" lon="2.011483652172878"><ele>272.0</ele><time>2026-04-30T17:38:20.999Z</time></trkpt><trkpt lat="44.61400973642095" lon="2.0112437266551546"><ele>275.5</ele><time>2026-04-30T17:38:21.999Z</time></trkpt><trkpt lat="44.61399852174289" lon="2.011052127511046"><ele>279.0</ele><time>2026-04-30T17:38:22.999Z</time></trkpt><trkpt lat="44.61414124337599" lon="2.0108625289579574"><ele>282.5</ele><time>2026-04-30T17:38:23.999Z</time></trkpt><trkpt lat="44.61420290242701" lon="2.0107529879169594"><ele>286.0</ele><time>2026-04-30T17:38:24.999Z</time></trkpt><trkpt lat="44.614243429246926" lon="2.0106371538235233"><ele>287.2</ele><time>2026-04-30T17:38:25.999Z</time></trkpt><trkpt lat="44.614297816269584" lon="2.0104989641662416"><ele>288.40000000000003</ele><time>2026-04-30T17:38:26.999Z</time></trkpt><trkpt lat="44.61435207873119" lon="2.0103541312389184"><ele>289.6</ele><time>2026-04-30T17:38:27.999Z</time></trkpt><trkpt lat="44.614405266340114" lon="2.0102105547012825"><ele>290.8</ele><time>2026-04-30T17:38:28.999Z</time></trkpt><trkpt lat="44.61444312141771" lon="2.010078103382161"><ele>292.0</ele><time>2026-04-30T17:38:29.999Z</time></trkpt><trkpt lat="44.61448378991364" lon="2.009957072567115"><ele>292.2</ele><time>2026-04-30T17:38:30.999Z</time></trkpt><trkpt lat="44.61452501193943" lon="2.009814207093892"><ele>292.4</ele><time>2026-04-30T17:38:31.999Z</time></trkpt><trkpt lat="44.61457523174513" lon="2.009672244082523"><ele>292.6</ele><time>2026-04-30T17:38:32.999Z</time></trkpt><trkpt lat="44.614627745201304" lon="2.0095252399924592"><ele>292.8</ele><time>2026-04-30T17:38:33.999Z</time></trkpt><trkpt lat="44.6146711702147" lon="2.0093870156036235"><ele>293.0</ele><time>2026-04-30T17:38:34.999Z</time></trkpt><trkpt lat="44.61470770920262" lon="2.009259045710154"><ele>293.4</ele><time>2026-04-30T17:38:35.999Z</time></trkpt><trkpt lat="44.614743574103954" lon="2.0091206961805796"><ele>293.8</ele><time>2026-04-30T17:38:36.999Z</time></trkpt><trkpt lat="44.61478816761288" lon="2.008990236317906"><ele>294.2</ele><time>2026-04-30T17:38:37.999Z</time></trkpt><trkpt lat="44.614833934096154" lon="2.0088585159784738"><ele>294.6</ele><time>2026-04-30T17:38:38.999Z</time></trkpt><trkpt lat="44.61487854770668" lon="2.008734984850245"><ele>295.0</ele><time>2026-04-30T17:38:39.999Z</time></trkpt><trkpt lat="44.61491487753225" lon="2.0086347689094075"><ele>295.0</ele><time>2026-04-30T17:38:40.999Z</time></trkpt><trkpt lat="44.6149606061627" lon="2.008494006286615"><ele>295.0</ele><time>2026-04-30T17:38:42.999Z</time></trkpt><trkpt lat="44.61501418072518" lon="2.008344788994359"><ele>295.0</ele><time>2026-04-30T17:38:44.999Z</time></trkpt><trkpt lat="44.615054124715755" lon="2.0082146342681915"><ele>295.0</ele><time>2026-04-30T17:38:46.999Z</time></trkpt><trkpt lat="44.6150752989134" lon="2.008113461176705"><ele>295.0</ele><time>2026-04-30T17:38:49.999Z</time></trkpt><trkpt lat="44.61509241050022" lon="2.008015895950238"><ele>295.16666666666663</ele><time>2026-04-30T17:38:52.999Z</time></trkpt><trkpt lat="44.615102553654935" lon="2.007922644348237"><ele>295.3333333333333</ele><time>2026-04-30T17:38:56.999Z</time></trkpt><trkpt lat="44.61511392503096" lon="2.00781810101209"><ele>295.5</ele><time>2026-04-30T17:38:59.999Z</time></trkpt><trkpt lat="44.61512534129192" lon="2.0077023901477795"><ele>295.6666666666667</ele><time>2026-04-30T17:39:02.999Z</time></trkpt><trkpt lat="44.615137766339" lon="2.007568596644935"><ele>295.83333333333337</ele><time>2026-04-30T17:39:04.999Z</time></trkpt><trkpt lat="44.615098785775544" lon="2.0074487263811407"><ele>296.0</ele><time>2026-04-30T17:39:07.999Z</time></trkpt><trkpt lat="44.615101243227855" lon="2.0073238515864062"><ele>296.0</ele><time>2026-04-30T17:39:10.999Z</time></trkpt><trkpt lat="44.615101500465954" lon="2.007190730761439"><ele>296.0</ele><time>2026-04-30T17:39:13.999Z</time></trkpt><trkpt lat="44.615098194222455" lon="2.007071266170418"><ele>296.0</ele><time>2026-04-30T17:39:16.999Z</time></trkpt><trkpt lat="44.61510966817492" lon="2.006952067220921"><ele>296.0</ele><time>2026-04-30T17:39:19.999Z</time></trkpt><trkpt lat="44.615123107592794" lon="2.0068490044789944"><ele>296.0</ele><time>2026-04-30T17:39:22.999Z</time></trkpt><trkpt lat="44.61514742131099" lon="2.006765496188035"><ele>296.0</ele><time>2026-04-30T17:39:25Z</time></trkpt><trkpt lat="44.615209355831134" lon="2.006636003805113"><ele>295.8</ele><time>2026-04-30T17:39:29Z</time></trkpt><trkpt lat="44.61523599658597" lon="2.0065259297591376"><ele>295.6</ele><time>2026-04-30T17:39:30Z</time></trkpt><trkpt lat="44.61526539031368" lon="2.00638310051499"><ele>295.4</ele><time>2026-04-30T17:39:31Z</time></trkpt><trkpt lat="44.615295215994095" lon="2.006219379017486"><ele>295.2</ele><time>2026-04-30T17:39:32Z</time></trkpt><trkpt lat="44.61533233098349" lon="2.00604629335623"><ele>295.0</ele><time>2026-04-30T17:39:33Z</time></trkpt><trkpt lat="44.61535610721339" lon="2.0058861116338074"><ele>296.2</ele><time>2026-04-30T17:39:34Z</time></trkpt><trkpt lat="44.61536887700375" lon="2.005733230965944"><ele>297.4</ele><time>2026-04-30T17:39:35Z</time></trkpt><trkpt lat="44.6153738844562" lon="2.005583267396669"><ele>298.6</ele><time>2026-04-30T17:39:36Z</time></trkpt><trkpt lat="44.61538061620948" lon="2.005432507068904"><ele>299.8</ele><time>2026-04-30T17:39:37Z</time></trkpt><trkpt lat="44.61538882971996" lon="2.005256798048939"><ele>301.0</ele><time>2026-04-30T17:39:38Z</time></trkpt><trkpt lat="44.615392857928335" lon="2.0050897850319096"><ele>301.0</ele><time>2026-04-30T17:39:39Z</time></trkpt><trkpt lat="44.61539632480481" lon="2.004947009779479"><ele>301.0</ele><time>2026-04-30T17:39:40Z</time></trkpt><trkpt lat="44.615398986771076" lon="2.004821507352993"><ele>301.0</ele><time>2026-04-30T17:39:41Z</time></trkpt><trkpt lat="44.615416684421454" lon="2.0047037061168127"><ele>301.0</ele><time>2026-04-30T17:39:42Z</time></trkpt><trkpt lat="44.61547224401788" lon="2.004577790567704"><ele>301.0</ele><time>2026-04-30T17:39:43Z</time></trkpt><trkpt lat="44.615556119991986" lon="2.0044487513837996"><ele>301.0</ele><time>2026-04-30T17:39:44Z</time></trkpt><trkpt lat="44.615629462387254" lon="2.0043008829032596"><ele>301.0</ele><time>2026-04-30T17:39:45Z</time></trkpt><trkpt lat="44.61567107683704" lon="2.004147748419301"><ele>301.0</ele><time>2026-04-30T17:39:46Z</time></trkpt><trkpt lat="44.61570962147169" lon="2.003996618262487"><ele>301.0</ele><time>2026-04-30T17:39:47Z</time></trkpt><trkpt lat="44.61574914849023" lon="2.0038545306854343"><ele>300.66666666666663</ele><time>2026-04-30T17:39:48Z</time></trkpt><trkpt lat="44.61578464819258" lon="2.0037250233976"><ele>300.3333333333333</ele><time>2026-04-30T17:39:49Z</time></trkpt><trkpt lat="44.615818703231305" lon="2.003603513742525"><ele>300.0</ele><time>2026-04-30T17:39:50Z</time></trkpt><trkpt lat="44.61585124946821" lon="2.0034948055035904"><ele>299.6666666666667</ele><time>2026-04-30T17:39:51Z</time></trkpt><trkpt lat="44.6158868534448" lon="2.0033951533700405"><ele>299.33333333333337</ele><time>2026-04-30T17:39:52Z</time></trkpt><trkpt lat="44.615917837377985" lon="2.003303262915418"><ele>299.0</ele><time>2026-04-30T17:39:53Z</time></trkpt><trkpt lat="44.61595259550137" lon="2.003222287389005"><ele>298.59999999999997</ele><time>2026-04-30T17:39:54Z</time></trkpt><trkpt lat="44.61602634338388" lon="2.00313369373448"><ele>298.2</ele><time>2026-04-30T17:39:56Z</time></trkpt><trkpt lat="44.61611040790188" lon="2.0030414803474357"><ele>297.79999999999995</ele><time>2026-04-30T17:39:59.999Z</time></trkpt><trkpt lat="44.6161539738865" lon="2.002972113351975"><ele>297.4</ele><time>2026-04-30T17:40:00.999Z</time></trkpt><trkpt lat="44.61604948820962" lon="2.0028286005097815"><ele>297.0</ele><time>2026-04-30T17:40:02.999Z</time></trkpt><trkpt lat="44.61602583156435" lon="2.0026913670584086"><ele>297.0</ele><time>2026-04-30T17:40:04.999Z</time></trkpt><trkpt lat="44.61600625249462" lon="2.002563520944051"><ele>297.0</ele><time>2026-04-30T17:40:06.999Z</time></trkpt><trkpt lat="44.615991522142586" lon="2.002415715440045"><ele>297.0</ele><time>2026-04-30T17:40:08.999Z</time></trkpt><trkpt lat="44.61598585215938" lon="2.0023104431655376"><ele>297.0</ele><time>2026-04-30T17:40:09.999Z</time></trkpt><trkpt lat="44.61598625099772" lon="2.002205074277602"><ele>297.0</ele><time>2026-04-30T17:40:10.999Z</time></trkpt><trkpt lat="44.615990404309265" lon="2.002105315670661"><ele>297.0</ele><time>2026-04-30T17:40:11.999Z</time></trkpt><trkpt lat="44.615999897984935" lon="2.001950965039909"><ele>296.6</ele><time>2026-04-30T17:40:13.999Z</time></trkpt><trkpt lat="44.61601684431062" lon="2.0017994505066192"><ele>296.2</ele><time>2026-04-30T17:40:15.999Z</time></trkpt><trkpt lat="44.61603574773593" lon="2.0016499733941946"><ele>295.8</ele><time>2026-04-30T17:40:17.999Z</time></trkpt><trkpt lat="44.6160585310064" lon="2.0014895524529392"><ele>295.4</ele><time>2026-04-30T17:40:19.999Z</time></trkpt><trkpt lat="44.616079022998285" lon="2.0013465247868845"><ele>295.0</ele><time>2026-04-30T17:40:21.999Z</time></trkpt><trkpt lat="44.61609349954909" lon="2.00124548302702"><ele>294.6</ele><time>2026-04-30T17:40:23.999Z</time></trkpt><trkpt lat="44.61611203085624" lon="2.0011156778211237"><ele>294.2</ele><time>2026-04-30T17:40:25.999Z</time></trkpt><trkpt lat="44.61613237743753" lon="2.0009728016948727"><ele>293.8</ele><time>2026-04-30T17:40:27.999Z</time></trkpt><trkpt lat="44.61614540535018" lon="2.0008813180216833"><ele>293.4</ele><time>2026-04-30T17:40:28.999Z</time></trkpt><trkpt lat="44.61616335164375" lon="2.0007552970149187"><ele>293.0</ele><time>2026-04-30T17:40:30.999Z</time></trkpt><trkpt lat="44.616184973610785" lon="2.000619989126156"><ele>293.0</ele><time>2026-04-30T17:40:32.999Z</time></trkpt><trkpt lat="44.61620482104752" lon="2.000505136245972"><ele>293.0</ele><time>2026-04-30T17:40:34.999Z</time></trkpt><trkpt lat="44.616221783597595" lon="2.0004178207888437"><ele>293.0</ele><time>2026-04-30T17:40:36.999Z</time></trkpt><trkpt lat="44.61635705702233" lon="2.0004018829804715"><ele>293.0</ele><time>2026-04-30T17:40:37.999Z</time></trkpt><trkpt lat="44.616271974350774" lon="2.0002010353056567"><ele>293.0</ele><time>2026-04-30T17:40:39.999Z</time></trkpt><trkpt lat="44.61630485318946" lon="2.000078047576486"><ele>293.0</ele><time>2026-04-30T17:40:41.999Z</time></trkpt><trkpt lat="44.61633218678891" lon="1.9999773822623954"><ele>293.0</ele><time>2026-04-30T17:40:43.999Z</time></trkpt><trkpt lat="44.616362060764864" lon="1.999867361239289"><ele>293.0</ele><time>2026-04-30T17:40:45.999Z</time></trkpt><trkpt lat="44.61639448964155" lon="1.9997479308339023"><ele>293.0</ele><time>2026-04-30T17:40:47.999Z</time></trkpt><trkpt lat="44.61642051326632" lon="1.9996520900549537"><ele>293.0</ele><time>2026-04-30T17:40:49.999Z</time></trkpt><trkpt lat="44.61645579337051" lon="1.9995212538618914"><ele>293.0</ele><time>2026-04-30T17:40:51.999Z</time></trkpt><trkpt lat="44.6164817090463" lon="1.999418697692207"><ele>293.0</ele><time>2026-04-30T17:40:53.999Z</time></trkpt><trkpt lat="44.616523328113466" lon="1.9993030588236334"><ele>293.0</ele><time>2026-04-30T17:40:56.999Z</time></trkpt><trkpt lat="44.61655919561699" lon="1.9990252788323122"><ele>293.0</ele><time>2026-04-30T17:40:59.999Z</time></trkpt><trkpt lat="44.616612596715896" lon="1.9989180187885478"><ele>291.5</ele><time>2026-04-30T17:41:01.999Z</time></trkpt><trkpt lat="44.61665440975638" lon="1.998830362668294"><ele>290.0</ele><time>2026-04-30T17:41:04.999Z</time></trkpt><trkpt lat="44.61708850456827" lon="1.9989510543713607"><ele>291.33333333333337</ele><time>2026-04-30T17:41:10.999Z</time></trkpt><trkpt lat="44.61717618311035" lon="1.9989118336964642"><ele>292.6666666666667</ele><time>2026-04-30T17:41:13.999Z</time></trkpt><trkpt lat="44.61723420957299" lon="1.9988214389538606"><ele>294.0</ele><time>2026-04-30T17:41:15.999Z</time></trkpt><trkpt lat="44.61728634661421" lon="1.9987331726897917"><ele>295.3333333333333</ele><time>2026-04-30T17:41:17.999Z</time></trkpt><trkpt lat="44.61734218544108" lon="1.9986719947300806"><ele>296.66666666666663</ele><time>2026-04-30T17:41:20.999Z</time></trkpt><trkpt lat="44.617409748172726" lon="1.9986256303845285"><ele>298.0</ele><time>2026-04-30T17:41:23.999Z</time></trkpt><trkpt lat="44.61746341239898" lon="1.9985684186114214"><ele>298.0</ele><time>2026-04-30T17:41:26.999Z</time></trkpt><trkpt lat="44.61754232498271" lon="1.9985018231962852"><ele>298.0</ele><time>2026-04-30T17:41:30Z</time></trkpt><trkpt lat="44.61757889717295" lon="1.9984049082199764"><ele>298.0</ele><time>2026-04-30T17:41:32Z</time></trkpt><trkpt lat="44.617650436185066" lon="1.9984062763155712"><ele>298.0</ele><time>2026-04-30T17:41:34Z</time></trkpt><trkpt lat="44.61773856148085" lon="1.9984384980802503"><ele>298.0</ele><time>2026-04-30T17:41:36Z</time></trkpt><trkpt lat="44.617812960880705" lon="1.9984703734796854"><ele>298.0</ele><time>2026-04-30T17:41:39Z</time></trkpt><trkpt lat="44.61791126739241" lon="1.9985264582769489"><ele>299.0</ele><time>2026-04-30T17:41:42Z</time></trkpt><trkpt lat="44.61799777743432" lon="1.9985507549132429"><ele>300.0</ele><time>2026-04-30T17:41:45Z</time></trkpt><trkpt lat="44.61808622212877" lon="1.9985283416265311"><ele>301.0</ele><time>2026-04-30T17:41:48Z</time></trkpt><trkpt lat="44.61815445608379" lon="1.9985174616773165"><ele>302.0</ele><time>2026-04-30T17:41:50Z</time></trkpt><trkpt lat="44.618236253862904" lon="1.9984645366468952"><ele>303.0</ele><time>2026-04-30T17:41:53Z</time></trkpt><trkpt lat="44.61830935045389" lon="1.998333271125706"><ele>303.0</ele><time>2026-04-30T17:41:55.999Z</time></trkpt><trkpt lat="44.618348136749425" lon="1.998234784938743"><ele>303.0</ele><time>2026-04-30T17:41:56.999Z</time></trkpt><trkpt lat="44.61839595503558" lon="1.9980917321147291"><ele>303.0</ele><time>2026-04-30T17:41:58.999Z</time></trkpt><trkpt lat="44.61844388175297" lon="1.9979339574346462"><ele>303.0</ele><time>2026-04-30T17:42:00.999Z</time></trkpt><trkpt lat="44.618494021379114" lon="1.997785823580249"><ele>303.0</ele><time>2026-04-30T17:42:02.999Z</time></trkpt><trkpt lat="44.61851835827012" lon="1.9976733811456868"><ele>303.0</ele><time>2026-04-30T17:42:04.999Z</time></trkpt><trkpt lat="44.61853002222085" lon="1.9975080289862681"><ele>303.0</ele><time>2026-04-30T17:42:06.999Z</time></trkpt><trkpt lat="44.61853261300102" lon="1.9974000704046597"><ele>303.0</ele><time>2026-04-30T17:42:07.999Z</time></trkpt><trkpt lat="44.61853131537928" lon="1.9973065151003664"><ele>303.0</ele><time>2026-04-30T17:42:08.999Z</time></trkpt><trkpt lat="44.618549787323076" lon="1.9971733954009485"><ele>303.0</ele><time>2026-04-30T17:42:10.999Z</time></trkpt><trkpt lat="44.61858386406141" lon="1.9970791582150076"><ele>303.0</ele><time>2026-04-30T17:42:12.999Z</time></trkpt><trkpt lat="44.618642654689516" lon="1.9970381684423686"><ele>303.6</ele><time>2026-04-30T17:42:14.999Z</time></trkpt><trkpt lat="44.61873820840921" lon="1.997119639337926"><ele>304.20000000000005</ele><time>2026-04-30T17:42:16.999Z</time></trkpt><trkpt lat="44.618842706105134" lon="1.997172630816714"><ele>304.8</ele><time>2026-04-30T17:42:18.999Z</time></trkpt><trkpt lat="44.618953762350245" lon="1.9971837438622535"><ele>305.40000000000003</ele><time>2026-04-30T17:42:20.999Z</time></trkpt><trkpt lat="44.61902572825066" lon="1.9972009423393806"><ele>306.0</ele><time>2026-04-30T17:42:22.999Z</time></trkpt><trkpt lat="44.61911549936494" lon="1.9971932550396034"><ele>306.0</ele><time>2026-04-30T17:42:24.999Z</time></trkpt><trkpt lat="44.61920058513366" lon="1.9971768231582065"><ele>306.0</ele><time>2026-04-30T17:42:27.999Z</time></trkpt><trkpt lat="44.619269627282655" lon="1.9971853953699712"><ele>306.0</ele><time>2026-04-30T17:42:29.999Z</time></trkpt><trkpt lat="44.619339318904316" lon="1.9971874699606862"><ele>306.0</ele><time>2026-04-30T17:42:31.999Z</time></trkpt><trkpt lat="44.6194124737403" lon="1.9972058903778989"><ele>306.0</ele><time>2026-04-30T17:42:33.999Z</time></trkpt><trkpt lat="44.61945819932266" lon="1.9972991493744403"><ele>306.0</ele><time>2026-04-30T17:42:35.999Z</time></trkpt><trkpt lat="44.619492490868" lon="1.9973769974293483"><ele>306.0</ele><time>2026-04-30T17:42:37.999Z</time></trkpt><trkpt lat="44.61951247834454" lon="1.9974734699930068"><ele>307.3333333333333</ele><time>2026-04-30T17:42:39.999Z</time></trkpt><trkpt lat="44.61956917409635" lon="1.9975373898945976"><ele>308.6666666666667</ele><time>2026-04-30T17:42:41.999Z</time></trkpt><trkpt lat="44.61962728813363" lon="1.9976061333516468"><ele>310.0</ele><time>2026-04-30T17:42:45.999Z</time></trkpt><trkpt lat="44.61970326194923" lon="1.997632344565198"><ele>311.33333333333337</ele><time>2026-04-30T17:42:47.999Z</time></trkpt><trkpt lat="44.61976876966496" lon="1.9977039120439415"><ele>312.6666666666667</ele><time>2026-04-30T17:42:50.999Z</time></trkpt><trkpt lat="44.61984497617854" lon="1.9977616634702697"><ele>314.0</ele><time>2026-04-30T17:42:53.999Z</time></trkpt><trkpt lat="44.619925345051" lon="1.9978327118038393"><ele>314.0</ele><time>2026-04-30T17:42:55.999Z</time></trkpt><trkpt lat="44.620011514109514" lon="1.9978759697453883"><ele>314.0</ele><time>2026-04-30T17:42:57.999Z</time></trkpt><trkpt lat="44.62008310918094" lon="1.9979322193270577"><ele>314.0</ele><time>2026-04-30T17:42:59.999Z</time></trkpt><trkpt lat="44.62015259486275" lon="1.9980130340524442"><ele>314.0</ele><time>2026-04-30T17:43:01.999Z</time></trkpt><trkpt lat="44.62020189375906" lon="1.9981055202917044"><ele>314.0</ele><time>2026-04-30T17:43:03.999Z</time></trkpt><trkpt lat="44.62021832895954" lon="1.9982379705781883"><ele>314.0</ele><time>2026-04-30T17:43:05.999Z</time></trkpt><trkpt lat="44.62023123571303" lon="1.9983651102929254"><ele>314.5</ele><time>2026-04-30T17:43:07.999Z</time></trkpt><trkpt lat="44.62025953882193" lon="1.9984646416116925"><ele>315.0</ele><time>2026-04-30T17:43:08.999Z</time></trkpt><trkpt lat="44.62030075150171" lon="1.998556942906112"><ele>315.5</ele><time>2026-04-30T17:43:09.999Z</time></trkpt><trkpt lat="44.620360149699536" lon="1.9986116568003467"><ele>316.0</ele><time>2026-04-30T17:43:10.999Z</time></trkpt><trkpt lat="44.62045039484844" lon="1.9987040391960105"><ele>316.5</ele><time>2026-04-30T17:43:12.999Z</time></trkpt><trkpt lat="44.620548936375336" lon="1.9987559636730958"><ele>317.0</ele><time>2026-04-30T17:43:14.999Z</time></trkpt><trkpt lat="44.62063592911301" lon="1.998751241170765"><ele>317.1666666666667</ele><time>2026-04-30T17:43:15.999Z</time></trkpt><trkpt lat="44.62073205653772" lon="1.9987515145955035"><ele>317.33333333333337</ele><time>2026-04-30T17:43:16.999Z</time></trkpt><trkpt lat="44.620805003750824" lon="1.998755254836401"><ele>317.5</ele><time>2026-04-30T17:43:17.999Z</time></trkpt><trkpt lat="44.62086681565622" lon="1.9987300243396424"><ele>317.6666666666667</ele><time>2026-04-30T17:43:18.999Z</time></trkpt><trkpt lat="44.62096467403997" lon="1.9986899441456092"><ele>317.8333333333333</ele><time>2026-04-30T17:43:20.999Z</time></trkpt><trkpt lat="44.621043234617275" lon="1.9987346869663014"><ele>318.0</ele><time>2026-04-30T17:43:22.999Z</time></trkpt><trkpt lat="44.62108774031395" lon="1.9988099421843115"><ele>318.0</ele><time>2026-04-30T17:43:23.999Z</time></trkpt><trkpt lat="44.62113047724063" lon="1.9989237707722973"><ele>318.0</ele><time>2026-04-30T17:43:24.999Z</time></trkpt><trkpt lat="44.62116881962985" lon="1.999070004144418"><ele>318.0</ele><time>2026-04-30T17:43:25.999Z</time></trkpt><trkpt lat="44.621206672594326" lon="1.9992026383011094"><ele>318.0</ele><time>2026-04-30T17:43:26.999Z</time></trkpt><trkpt lat="44.62124902080224" lon="1.99933113936163"><ele>318.0</ele><time>2026-04-30T17:43:27.999Z</time></trkpt><trkpt lat="44.621283358748016" lon="1.9994354980418911"><ele>318.6666666666667</ele><time>2026-04-30T17:43:28.999Z</time></trkpt><trkpt lat="44.62130718088186" lon="1.999525768375076"><ele>319.3333333333333</ele><time>2026-04-30T17:43:29.999Z</time></trkpt><trkpt lat="44.621331700701866" lon="1.9996289780826149"><ele>320.0</ele><time>2026-04-30T17:43:31.999Z</time></trkpt><trkpt lat="44.62131041594377" lon="1.9997543760519965"><ele>320.66666666666663</ele><time>2026-04-30T17:43:34.999Z</time></trkpt><trkpt lat="44.621250562411795" lon="1.9997825416913095"><ele>321.3333333333333</ele><time>2026-04-30T17:43:36Z</time></trkpt><trkpt lat="44.62116060801473" lon="1.9998231185766433"><ele>322.0</ele><time>2026-04-30T17:43:37Z</time></trkpt><trkpt lat="44.62104609362103" lon="1.999868954594548"><ele>322.0</ele><time>2026-04-30T17:43:38Z</time></trkpt><trkpt lat="44.620930722204" lon="1.9999170240416522"><ele>322.0</ele><time>2026-04-30T17:43:39Z</time></trkpt><trkpt lat="44.62080728036562" lon="1.9999757688926372"><ele>322.0</ele><time>2026-04-30T17:43:40Z</time></trkpt><trkpt lat="44.620691567697676" lon="2.0000324094775657"><ele>322.0</ele><time>2026-04-30T17:43:41Z</time></trkpt><trkpt lat="44.62058997087741" lon="2.0000664083118833"><ele>322.0</ele><time>2026-04-30T17:43:42Z</time></trkpt><trkpt lat="44.62049761095949" lon="2.0000988650472067"><ele>322.0</ele><time>2026-04-30T17:43:43Z</time></trkpt><trkpt lat="44.6204120985774" lon="2.0001332821322926"><ele>322.0</ele><time>2026-04-30T17:43:44Z</time></trkpt><trkpt lat="44.62032714770522" lon="2.00015664208101"><ele>322.0</ele><time>2026-04-30T17:43:45Z</time></trkpt><trkpt lat="44.62024061231369" lon="2.0001614652988766"><ele>322.0</ele><time>2026-04-30T17:43:46Z</time></trkpt><trkpt lat="44.6201442751934" lon="2.000137537929573"><ele>321.40000000000003</ele><time>2026-04-30T17:43:47Z</time></trkpt><trkpt lat="44.62006385582112" lon="2.0001050851710103"><ele>320.8</ele><time>2026-04-30T17:43:48Z</time></trkpt><trkpt lat="44.619984101612445" lon="2.0000872908929135"><ele>320.2</ele><time>2026-04-30T17:43:49Z</time></trkpt><trkpt lat="44.619896588278934" lon="2.000086135032361"><ele>319.6</ele><time>2026-04-30T17:43:50Z</time></trkpt><trkpt lat="44.61979609446336" lon="2.0001016063465924"><ele>319.0</ele><time>2026-04-30T17:43:51Z</time></trkpt><trkpt lat="44.619673644121505" lon="2.000083505224311"><ele>319.0</ele><time>2026-04-30T17:43:52Z</time></trkpt><trkpt lat="44.61955015497688" lon="2.000158699599618"><ele>319.0</ele><time>2026-04-30T17:43:53Z</time></trkpt><trkpt lat="44.619428717912264" lon="2.0002450569056234"><ele>319.0</ele><time>2026-04-30T17:43:54Z</time></trkpt><trkpt lat="44.61932716577534" lon="2.0003334796967116"><ele>319.0</ele><time>2026-04-30T17:43:55Z</time></trkpt><trkpt lat="44.61923513324218" lon="2.00045531184974"><ele>318.2</ele><time>2026-04-30T17:43:56Z</time></trkpt><trkpt lat="44.619126795392816" lon="2.0005602492529038"><ele>317.4</ele><time>2026-04-30T17:43:57Z</time></trkpt><trkpt lat="44.61902010710706" lon="2.0006308441962224"><ele>316.6</ele><time>2026-04-30T17:43:58Z</time></trkpt><trkpt lat="44.61893229398045" lon="2.0007085555161934"><ele>315.8</ele><time>2026-04-30T17:43:58.999Z</time></trkpt><trkpt lat="44.6188562327203" lon="2.0007769710719097"><ele>315.0</ele><time>2026-04-30T17:43:59.999Z</time></trkpt><trkpt lat="44.61875027833727" lon="2.000846635502389"><ele>314.2</ele><time>2026-04-30T17:44:01.999Z</time></trkpt><trkpt lat="44.61864465412571" lon="2.0008957948279193"><ele>313.4</ele><time>2026-04-30T17:44:03.999Z</time></trkpt><trkpt lat="44.61855778078669" lon="2.0009487332177054"><ele>312.6</ele><time>2026-04-30T17:44:05.999Z</time></trkpt><trkpt lat="44.61848891961146" lon="2.000954869881649"><ele>311.8</ele><time>2026-04-30T17:44:07.999Z</time></trkpt><trkpt lat="44.6184250848816" lon="2.0009759640126017"><ele>311.0</ele><time>2026-04-30T17:44:10.999Z</time></trkpt><trkpt lat="44.618311542744365" lon="2.0010148397161815"><ele>311.0</ele><time>2026-04-30T17:44:18.999Z</time></trkpt><trkpt lat="44.6182201716549" lon="2.00103114256721"><ele>311.0</ele><time>2026-04-30T17:44:20.999Z</time></trkpt><trkpt lat="44.618088507898094" lon="2.001051017851996"><ele>311.0</ele><time>2026-04-30T17:44:22.999Z</time></trkpt><trkpt lat="44.617980700904496" lon="2.001048733005675"><ele>311.0</ele><time>2026-04-30T17:44:23.999Z</time></trkpt><trkpt lat="44.61783653957044" lon="2.0010291595576293"><ele>310.8</ele><time>2026-04-30T17:44:24.999Z</time></trkpt><trkpt lat="44.617707505281466" lon="2.0010134981119694"><ele>310.6</ele><time>2026-04-30T17:44:25.999Z</time></trkpt><trkpt lat="44.617608537278514" lon="2.001007418130636"><ele>310.4</ele><time>2026-04-30T17:44:26.999Z</time></trkpt><trkpt lat="44.6175220874082" lon="2.001018631331923"><ele>310.2</ele><time>2026-04-30T17:44:27.999Z</time></trkpt><trkpt lat="44.61743185627137" lon="2.00104684195839"><ele>310.0</ele><time>2026-04-30T17:44:28.999Z</time></trkpt><trkpt lat="44.617336619345494" lon="2.0010987794329655"><ele>310.0</ele><time>2026-04-30T17:44:29.999Z</time></trkpt><trkpt lat="44.6172412955373" lon="2.0011973047302427"><ele>310.0</ele><time>2026-04-30T17:44:30.999Z</time></trkpt><trkpt lat="44.61714844924809" lon="2.0013356760819825"><ele>310.0</ele><time>2026-04-30T17:44:31.999Z</time></trkpt><trkpt lat="44.61702573135089" lon="2.001520972930552"><ele>310.0</ele><time>2026-04-30T17:44:32.999Z</time></trkpt><trkpt lat="44.61689601658034" lon="2.0017261071586177"><ele>308.25</ele><time>2026-04-30T17:44:33.999Z</time></trkpt><trkpt lat="44.61678530390612" lon="2.001902251578106"><ele>306.5</ele><time>2026-04-30T17:44:34.999Z</time></trkpt><trkpt lat="44.616694732964" lon="2.00204813359834"><ele>304.75</ele><time>2026-04-30T17:44:35.999Z</time></trkpt><trkpt lat="44.61661723164802" lon="2.002172964625842"><ele>303.0</ele><time>2026-04-30T17:44:36.999Z</time></trkpt><trkpt lat="44.616546568176716" lon="2.002286781934654"><ele>303.0</ele><time>2026-04-30T17:44:37.999Z</time></trkpt><trkpt lat="44.61648155057918" lon="2.0023927272769684"><ele>303.0</ele><time>2026-04-30T17:44:38.999Z</time></trkpt><trkpt lat="44.61642522161785" lon="2.002490116504626"><ele>303.0</ele><time>2026-04-30T17:44:39.999Z</time></trkpt><trkpt lat="44.616379010013794" lon="2.002574355472423"><ele>303.0</ele><time>2026-04-30T17:44:40.999Z</time></trkpt><trkpt lat="44.61631140729311" lon="2.0026975892394767"><ele>303.0</ele><time>2026-04-30T17:44:42.999Z</time></trkpt><trkpt lat="44.61625471815905" lon="2.0027847496056457"><ele>303.5</ele><time>2026-04-30T17:44:44.999Z</time></trkpt><trkpt lat="44.61610450259951" lon="2.0032898127524192"><ele>304.0</ele><time>2026-04-30T17:44:46.999Z</time></trkpt><trkpt lat="44.61616899593687" lon="2.0034485589399926"><ele>304.0</ele><time>2026-04-30T17:44:48.999Z</time></trkpt><trkpt lat="44.61620573155998" lon="2.003528979572265"><ele>304.0</ele><time>2026-04-30T17:44:49.999Z</time></trkpt><trkpt lat="44.61624427160307" lon="2.0036031864013744"><ele>304.0</ele><time>2026-04-30T17:44:50.999Z</time></trkpt><trkpt lat="44.61630518443758" lon="2.0037111448304468"><ele>304.0</ele><time>2026-04-30T17:44:52.999Z</time></trkpt><trkpt lat="44.616379531248796" lon="2.0038295206038548"><ele>304.0</ele><time>2026-04-30T17:44:54.999Z</time></trkpt><trkpt lat="44.61643225727535" lon="2.0039032036725333"><ele>304.0</ele><time>2026-04-30T17:44:56.999Z</time></trkpt><trkpt lat="44.61653615796407" lon="2.004014910377285"><ele>304.0</ele><time>2026-04-30T17:44:58.999Z</time></trkpt><trkpt lat="44.61663266043862" lon="2.004088989397263"><ele>304.0</ele><time>2026-04-30T17:45:00.999Z</time></trkpt><trkpt lat="44.61672439845573" lon="2.0041375389934113"><ele>304.0</ele><time>2026-04-30T17:45:02.999Z</time></trkpt><trkpt lat="44.61679343059743" lon="2.00416192487674"><ele>304.0</ele><time>2026-04-30T17:45:03.999Z</time></trkpt><trkpt lat="44.61687972068178" lon="2.0041776120220374"><ele>304.0</ele><time>2026-04-30T17:45:05.999Z</time></trkpt><trkpt lat="44.61695247614729" lon="2.004183963759315"><ele>304.0</ele><time>2026-04-30T17:45:07.999Z</time></trkpt><trkpt lat="44.617022234392785" lon="2.004189022359089"><ele>304.16666666666663</ele><time>2026-04-30T17:45:10.999Z</time></trkpt><trkpt lat="44.61710317325236" lon="2.0041938310713947"><ele>304.3333333333333</ele><time>2026-04-30T17:45:12.999Z</time></trkpt><trkpt lat="44.6171713848145" lon="2.0041980291087063"><ele>304.5</ele><time>2026-04-30T17:45:13.999Z</time></trkpt><trkpt lat="44.617235858021814" lon="2.0042019970711227"><ele>304.6666666666667</ele><time>2026-04-30T17:45:14.999Z</time></trkpt><trkpt lat="44.61732281474939" lon="2.004208152793089"><ele>304.83333333333337</ele><time>2026-04-30T17:45:16.999Z</time></trkpt><trkpt lat="44.61741383765898" lon="2.0042150918688257"><ele>305.0</ele><time>2026-04-30T17:45:19.999Z</time></trkpt><trkpt lat="44.61748435966677" lon="2.004220468074503"><ele>305.0</ele><time>2026-04-30T17:45:21.999Z</time></trkpt><trkpt lat="44.6175585324376" lon="2.0042085433815036"><ele>305.0</ele><time>2026-04-30T17:45:26.999Z</time></trkpt><trkpt lat="44.61766995700787" lon="2.0042412910596803"><ele>305.0</ele><time>2026-04-30T17:45:28.999Z</time></trkpt><trkpt lat="44.617742658018464" lon="2.0042446605920086"><ele>305.0</ele><time>2026-04-30T17:45:29.999Z</time></trkpt><trkpt lat="44.61782566885028" lon="2.004234928658612"><ele>305.0</ele><time>2026-04-30T17:45:30.999Z</time></trkpt><trkpt lat="44.61791009161778" lon="2.0042086338801894"><ele>305.0</ele><time>2026-04-30T17:45:31.999Z</time></trkpt><trkpt lat="44.617990623119304" lon="2.004171935880586"><ele>305.0</ele><time>2026-04-30T17:45:32.999Z</time></trkpt><trkpt lat="44.61804738755043" lon="2.0042950606793997"><ele>305.0</ele><time>2026-04-30T17:45:33.999Z</time></trkpt><trkpt lat="44.6181387622897" lon="2.004316430372124"><ele>305.0</ele><time>2026-04-30T17:45:34.999Z</time></trkpt><trkpt lat="44.618237774839265" lon="2.004340333238377"><ele>305.0</ele><time>2026-04-30T17:45:35.999Z</time></trkpt><trkpt lat="44.618342868607705" lon="2.0043657041654326"><ele>305.0</ele><time>2026-04-30T17:45:36.999Z</time></trkpt><trkpt lat="44.61844753371544" lon="2.0043909716316892"><ele>305.0</ele><time>2026-04-30T17:45:37.999Z</time></trkpt><trkpt lat="44.618568345095255" lon="2.0044193587610586"><ele>305.0</ele><time>2026-04-30T17:45:38.999Z</time></trkpt><trkpt lat="44.61869876931272" lon="2.004448907338312"><ele>305.0</ele><time>2026-04-30T17:45:39.999Z</time></trkpt><trkpt lat="44.61882228496954" lon="2.0044768907235517"><ele>305.0</ele><time>2026-04-30T17:45:40.999Z</time></trkpt><trkpt lat="44.618933506929245" lon="2.0045020888925658"><ele>304.25</ele><time>2026-04-30T17:45:41.999Z</time></trkpt><trkpt lat="44.61904930397722" lon="2.004528323562315"><ele>303.5</ele><time>2026-04-30T17:45:42.999Z</time></trkpt><trkpt lat="44.61915266326196" lon="2.004552960816034"><ele>302.75</ele><time>2026-04-30T17:45:43.999Z</time></trkpt><trkpt lat="44.619249026089456" lon="2.0045791679580005"><ele>302.0</ele><time>2026-04-30T17:45:44.999Z</time></trkpt><trkpt lat="44.61937369607756" lon="2.004650842151237"><ele>301.5</ele><time>2026-04-30T17:45:46.999Z</time></trkpt><trkpt lat="44.619642159647" lon="2.004684102743655"><ele>301.0</ele><time>2026-04-30T17:45:49.999Z</time></trkpt><trkpt lat="44.619723879202624" lon="2.0047398498211657"><ele>300.5</ele><time>2026-04-30T17:45:51.999Z</time></trkpt><trkpt lat="44.61979850084576" lon="2.004760041440864"><ele>300.0</ele><time>2026-04-30T17:45:52.999Z</time></trkpt><trkpt lat="44.62022357963143" lon="2.0048068231326805"><ele>300.0</ele><time>2026-04-30T17:45:53.999Z</time></trkpt><trkpt lat="44.62029319963825" lon="2.004715256424727"><ele>300.0</ele><time>2026-04-30T17:45:54.999Z</time></trkpt><trkpt lat="44.62036013393411" lon="2.0046356907603746"><ele>300.0</ele><time>2026-04-30T17:45:55.999Z</time></trkpt><trkpt lat="44.620417881316875" lon="2.0045145437112493"><ele>300.0</ele><time>2026-04-30T17:45:56.999Z</time></trkpt><trkpt lat="44.62045910691099" lon="2.004407268181789"><ele>300.0</ele><time>2026-04-30T17:45:57.999Z</time></trkpt><trkpt lat="44.62051535712863" lon="2.0043658473284722"><ele>300.0</ele><time>2026-04-30T17:45:58.999Z</time></trkpt><trkpt lat="44.62006780231008" lon="2.003594295597691"><ele>301.0</ele><time>2026-04-30T17:46:01.999Z</time></trkpt><trkpt lat="44.61997414969136" lon="2.0035635970226355"><ele>302.0</ele><time>2026-04-30T17:46:02.999Z</time></trkpt><trkpt lat="44.6198676365933" lon="2.003533780655875"><ele>303.0</ele><time>2026-04-30T17:46:03.999Z</time></trkpt><trkpt lat="44.619763634155625" lon="2.003509201921624"><ele>304.0</ele><time>2026-04-30T17:46:04.999Z</time></trkpt><trkpt lat="44.61966904888561" lon="2.003489588389556"><ele>305.0</ele><time>2026-04-30T17:46:05.999Z</time></trkpt><trkpt lat="44.61959617033431" lon="2.003450081063554"><ele>305.0</ele><time>2026-04-30T17:46:06.999Z</time></trkpt><trkpt lat="44.61953669367164" lon="2.0034086419956854"><ele>305.0</ele><time>2026-04-30T17:46:07.999Z</time></trkpt><trkpt lat="44.61946360085052" lon="2.003367611900169"><ele>305.0</ele><time>2026-04-30T17:46:08.999Z</time></trkpt><trkpt lat="44.619370553665135" lon="2.0033353562481953"><ele>305.0</ele><time>2026-04-30T17:46:09.999Z</time></trkpt><trkpt lat="44.61929148042606" lon="2.0033554821591695"><ele>305.0</ele><time>2026-04-30T17:46:10.999Z</time></trkpt><trkpt lat="44.61921128564075" lon="2.0034081862272846"><ele>305.0</ele><time>2026-04-30T17:46:11.999Z</time></trkpt><trkpt lat="44.61914364436884" lon="2.0034546843157934"><ele>304.4</ele><time>2026-04-30T17:46:12.999Z</time></trkpt><trkpt lat="44.61908358440616" lon="2.0034884851331434"><ele>303.8</ele><time>2026-04-30T17:46:13.999Z</time></trkpt><trkpt lat="44.61897631321397" lon="2.0035536899400337"><ele>303.2</ele><time>2026-04-30T17:46:15.999Z</time></trkpt><trkpt lat="44.61886708867402" lon="2.003598547513263"><ele>302.6</ele><time>2026-04-30T17:46:17.999Z</time></trkpt><trkpt lat="44.618776067264655" lon="2.003618793356166"><ele>302.0</ele><time>2026-04-30T17:46:19.999Z</time></trkpt><trkpt lat="44.618735273603335" lon="2.0036896918903673"><ele>302.0</ele><time>2026-04-30T17:46:21.999Z</time></trkpt><trkpt lat="44.61875678112427" lon="2.0037928672259797"><ele>302.0</ele><time>2026-04-30T17:46:23.999Z</time></trkpt><trkpt lat="44.61876666528854" lon="2.0039490733167944"><ele>302.0</ele><time>2026-04-30T17:46:25.999Z</time></trkpt><trkpt lat="44.61868972446227" lon="2.0040366514959684"><ele>302.0</ele><time>2026-04-30T17:46:27.999Z</time></trkpt><trkpt lat="44.618610018815716" lon="2.004034070023348"><ele>302.0</ele><time>2026-04-30T17:46:28.999Z</time></trkpt><trkpt lat="44.61851264651699" lon="2.004006706128595"><ele>302.4</ele><time>2026-04-30T17:46:29.999Z</time></trkpt><trkpt lat="44.618409767262904" lon="2.0040046846087796"><ele>302.79999999999995</ele><time>2026-04-30T17:46:30.999Z</time></trkpt><trkpt lat="44.618315797279784" lon="2.004030763729726"><ele>303.2</ele><time>2026-04-30T17:46:31.999Z</time></trkpt><trkpt lat="44.61820883353016" lon="2.0040830592406342"><ele>303.59999999999997</ele><time>2026-04-30T17:46:32.999Z</time></trkpt><trkpt lat="44.61810609953831" lon="2.004130790947183"><ele>304.0</ele><time>2026-04-30T17:46:33.999Z</time></trkpt><trkpt lat="44.618015185870526" lon="2.0041562899677774"><ele>304.0</ele><time>2026-04-30T17:46:34.999Z</time></trkpt><trkpt lat="44.61789810871618" lon="2.0041381963434093"><ele>304.0</ele><time>2026-04-30T17:46:36.999Z</time></trkpt><trkpt lat="44.61781897662291" lon="2.0041466871508646"><ele>304.0</ele><time>2026-04-30T17:46:38.999Z</time></trkpt><trkpt lat="44.61772759609372" lon="2.0041338315901447"><ele>304.0</ele><time>2026-04-30T17:46:40.999Z</time></trkpt><trkpt lat="44.617659693666006" lon="2.0041292909409947"><ele>304.0</ele><time>2026-04-30T17:46:42.999Z</time></trkpt><trkpt lat="44.617669187529344" lon="2.0038075200253926"><ele>303.0</ele><time>2026-04-30T17:46:45.999Z</time></trkpt><trkpt lat="44.617717074772685" lon="2.003742586758095"><ele>303.0</ele><time>2026-04-30T17:46:51.999Z</time></trkpt><trkpt lat="44.617665958546816" lon="2.0036772874653663"><ele>303.0</ele><time>2026-04-30T17:46:58.999Z</time></trkpt></trkseg></trk></gpx>